[[{"header":{"parameterUnit":"m.s-1","parameterCategory":1,"la1":30.6,"la2":29.2853,"lo1":-89.7004,"lo2":-87.6739,"dy":0.0162,"dx":0.0183,"nx":112,"ny":82,"refTime":"2023-11-18T18:00:00:Z","depth":0,"parameterNumber":2,"parameterNumberName":"U-component_of_WINDS"},"data":[0.0,0.0,0.0,0.0,0.0,0.0,0.0,0.0,0.0,0.0,0.0,0.0,0.0,0.0,0.0,0.0,0.0,0.0,0.0,0.0,0.0,0.0,0.0,0.0,0.0,0.0,0.0,0.0,0.0,0.0,0.0,0.0,0.0,0.0,0.0,0.0,0.0,0.0,0.0,0.0,0.0,0.0,0.0,0.0,0.0,0.0,0.0,0.0,0.0,0.0,0.0,0.0,0.0,0.0,0.0,0.0,0.0,0.0,0.0,0.0,0.0,0.0,0.0,0.0,0.0,0.0,0.0,0.0,0.0,0.0,0.0,0.0,0.0,0.0,0.0,0.0,0.0,0.0,0.0,0.0,0.0,0.0,0.0,0.0,0.0,0.0,0.0,0.0,0.0,0.0,0.0,5.3481,5.6071,5.7631,5.7166,5.7123,5.5533,5.1627,0.0,0.0,0.0,0.0,0.0,0.0,0.0,0.0,0.0,0.0,0.0,0.0,0.0,0.0,0.0,0.0,0.0,0.0,0.0,0.0,0.0,0.0,0.0,0.0,0.0,0.0,0.0,0.0,0.0,0.0,0.0,0.0,0.0,0.0,0.0,0.0,0.0,0.0,0.0,0.0,0.0,0.0,0.0,0.0,0.0,0.0,0.0,0.0,0.0,0.0,0.0,0.0,0.0,0.0,0.0,0.0,0.0,0.0,0.0,0.0,0.0,0.0,0.0,0.0,0.0,0.0,0.0,0.0,0.0,0.0,0.0,0.0,0.0,0.0,0.0,0.0,0.0,0.0,0.0,0.0,0.0,0.0,0.0,0.0,0.0,0.0,0.0,0.0,0.0,0.0,0.0,0.0,0.0,0.0,0.0,0.0,0.0,0.0,0.0,0.0,0.0,0.0,0.0,0.0,5.5265,5.6885,5.7611,5.7726,5.7166,5.7262,5.5633,5.1612,0.0,0.0,0.0,0.0,0.0,0.0,0.0,0.0,0.0,0.0,0.0,0.0,0.0,0.0,0.0,0.0,0.0,0.0,0.0,0.0,0.0,0.0,0.0,0.0,0.0,0.0,0.0,0.0,0.0,0.0,0.0,0.0,0.0,0.0,0.0,0.0,0.0,0.0,0.0,0.0,0.0,0.0,0.0,0.0,0.0,0.0,0.0,0.0,0.0,0.0,0.0,0.0,0.0,0.0,0.0,0.0,0.0,0.0,0.0,0.0,0.0,0.0,0.0,0.0,0.0,0.0,0.0,0.0,0.0,0.0,0.0,0.0,0.0,0.0,0.0,0.0,0.0,0.0,0.0,0.0,0.0,0.0,0.0,0.0,0.0,0.0,0.0,0.0,0.0,0.0,0.0,0.0,0.0,0.0,0.0,0.0,0.0,0.0,0.0,0.0,0.0,0.0,0.0,5.4073,5.5368,5.7591,5.7904,5.7774,5.7166,5.6922,5.5382,5.2147,5.1616,0.0,0.0,0.0,0.0,0.0,0.0,0.0,0.0,0.0,0.0,0.0,0.0,0.0,0.0,0.0,0.0,0.0,0.0,0.0,0.0,0.0,0.0,0.0,0.0,0.0,0.0,0.0,0.0,0.0,0.0,0.0,0.0,0.0,0.0,0.0,0.0,0.0,0.0,0.0,0.0,0.0,0.0,0.0,0.0,0.0,0.0,0.0,0.0,0.0,0.0,0.0,0.0,0.0,0.0,0.0,0.0,0.0,0.0,0.0,0.0,0.0,0.0,0.0,0.0,0.0,0.0,0.0,0.0,0.0,0.0,0.0,0.0,0.0,0.0,0.0,0.0,0.0,0.0,0.0,0.0,0.0,0.0,0.0,0.0,0.0,0.0,0.0,0.0,0.0,0.0,0.0,0.0,0.0,0.0,0.0,0.0,0.0,0.0,0.0,0.0,0.0,0.0,5.472,5.5806,5.7637,5.7821,5.7594,5.7166,5.6492,5.506,5.2591,5.1906,0.0,0.0,0.0,0.0,0.0,0.0,0.0,0.0,0.0,0.0,0.0,0.0,0.0,0.0,0.0,0.0,0.0,0.0,0.0,0.0,0.0,0.0,0.0,0.0,0.0,0.0,0.0,0.0,0.0,0.0,0.0,0.0,0.0,0.0,0.0,0.0,0.0,0.0,0.0,0.0,0.0,0.0,0.0,0.0,0.0,0.0,0.0,0.0,0.0,0.0,0.0,0.0,0.0,0.0,0.0,0.0,0.0,0.0,0.0,0.0,0.0,0.0,0.0,0.0,0.0,0.0,0.0,0.0,0.0,0.0,0.0,0.0,0.0,0.0,0.0,0.0,0.0,0.0,0.0,0.0,0.0,0.0,0.0,0.0,0.0,0.0,0.0,0.0,0.0,0.0,0.0,0.0,0.0,0.0,0.0,0.0,0.0,0.0,0.0,0.0,0.0,0.0,5.6603,5.7674,5.796,5.7498,5.7166,5.7116,5.6075,5.4613,5.2714,5.2017,0.0,0.0,0.0,0.0,0.0,0.0,0.0,0.0,0.0,0.0,0.0,0.0,0.0,0.0,0.0,0.0,0.0,0.0,0.0,0.0,0.0,0.0,0.0,0.0,0.0,0.0,0.0,0.0,0.0,0.0,0.0,0.0,0.0,0.0,0.0,0.0,0.0,0.0,0.0,0.0,0.0,0.0,0.0,0.0,0.0,0.0,0.0,0.0,0.0,0.0,0.0,0.0,0.0,0.0,0.0,0.0,0.0,0.0,0.0,0.0,0.0,0.0,0.0,0.0,0.0,0.0,0.0,0.0,0.0,0.0,0.0,0.0,0.0,0.0,0.0,0.0,0.0,0.0,0.0,0.0,0.0,0.0,0.0,0.0,0.0,0.0,0.0,0.0,0.0,0.0,0.0,0.0,0.0,0.0,0.0,0.0,0.0,0.0,0.0,0.0,0.0,0.0,5.7543,5.8857,0.0,5.9225,5.8992,5.8601,5.7441,5.5964,5.4171,0.0,0.0,0.0,0.0,0.0,0.0,0.0,0.0,0.0,0.0,0.0,0.0,0.0,0.0,0.0,0.0,0.0,0.0,0.0,0.0,0.0,0.0,0.0,0.0,0.0,0.0,0.0,0.0,0.0,0.0,0.0,0.0,0.0,0.0,0.0,0.0,0.0,0.0,0.0,0.0,0.0,0.0,0.0,0.0,0.0,0.0,0.0,0.0,0.0,0.0,0.0,0.0,0.0,0.0,0.0,0.0,0.0,0.0,0.0,0.0,0.0,0.0,0.0,0.0,0.0,0.0,0.0,0.0,0.0,0.0,0.0,0.0,0.0,0.0,0.0,0.0,0.0,0.0,0.0,0.0,0.0,0.0,0.0,0.0,0.0,0.0,0.0,0.0,0.0,0.0,0.0,0.0,0.0,0.0,0.0,0.0,0.0,0.0,0.0,0.0,0.0,0.0,5.6379,5.8249,5.97,0.0,6.0188,5.999,5.9595,5.8299,5.6837,5.5114,0.0,0.0,0.0,0.0,0.0,0.0,0.0,0.0,0.0,0.0,0.0,0.0,0.0,0.0,0.0,0.0,0.0,0.0,0.0,0.0,0.0,0.0,0.0,0.0,0.0,0.0,0.0,0.0,0.0,0.0,0.0,0.0,0.0,0.0,0.0,0.0,0.0,0.0,0.0,0.0,0.0,0.0,0.0,0.0,0.0,0.0,0.0,0.0,0.0,0.0,0.0,0.0,0.0,0.0,0.0,0.0,0.0,0.0,0.0,0.0,0.0,0.0,0.0,0.0,0.0,0.0,0.0,0.0,0.0,0.0,0.0,0.0,0.0,0.0,0.0,0.0,0.0,0.0,0.0,0.0,0.0,0.0,0.0,0.0,0.0,0.0,0.0,0.0,0.0,0.0,0.0,0.0,0.0,0.0,0.0,0.0,0.0,0.0,0.0,0.0,0.0,0.0,5.6777,5.882,6.0274,6.0419,5.9976,5.9579,5.9615,5.8459,5.7035,0.0,0.0,0.0,0.0,0.0,0.0,0.0,0.0,0.0,0.0,0.0,0.0,0.0,0.0,0.0,0.0,0.0,0.0,0.0,0.0,0.0,0.0,0.0,0.0,0.0,0.0,0.0,0.0,0.0,0.0,0.0,0.0,0.0,0.0,0.0,0.0,0.0,0.0,0.0,0.0,0.0,0.0,0.0,0.0,0.0,0.0,0.0,0.0,0.0,0.0,0.0,0.0,0.0,0.0,0.0,0.0,0.0,0.0,0.0,0.0,0.0,0.0,0.0,0.0,0.0,0.0,0.0,0.0,0.0,0.0,0.0,0.0,0.0,0.0,0.0,0.0,0.0,0.0,0.0,0.0,0.0,0.0,0.0,0.0,0.0,0.0,0.0,0.0,0.0,0.0,0.0,0.0,0.0,0.0,0.0,0.0,0.0,0.0,0.0,0.0,0.0,0.0,0.0,5.7491,6.0042,6.1958,6.2108,6.1563,6.1009,6.0526,5.9299,5.7605,5.5495,0.0,0.0,0.0,0.0,0.0,0.0,0.0,0.0,0.0,0.0,0.0,0.0,0.0,0.0,0.0,0.0,0.0,0.0,0.0,0.0,0.0,0.0,0.0,0.0,0.0,0.0,0.0,0.0,0.0,0.0,0.0,0.0,0.0,0.0,0.0,0.0,0.0,0.0,0.0,0.0,0.0,0.0,0.0,0.0,0.0,0.0,0.0,0.0,0.0,0.0,0.0,0.0,0.0,0.0,0.0,0.0,0.0,0.0,0.0,0.0,0.0,0.0,0.0,0.0,0.0,0.0,0.0,0.0,0.0,0.0,0.0,0.0,0.0,0.0,0.0,0.0,0.0,0.0,0.0,0.0,0.0,0.0,0.0,0.0,0.0,0.0,0.0,0.0,0.0,0.0,0.0,0.0,0.0,0.0,0.0,0.0,0.0,0.0,0.0,0.0,0.0,0.0,5.8333,6.086,6.2705,6.2805,6.2464,6.2112,6.1659,6.0428,5.8885,5.6985,0.0,0.0,0.0,0.0,0.0,0.0,0.0,0.0,0.0,0.0,0.0,0.0,0.0,0.0,0.0,0.0,0.0,0.0,0.0,0.0,0.0,0.0,0.0,0.0,0.0,0.0,0.0,0.0,0.0,0.0,0.0,0.0,0.0,0.0,0.0,0.0,0.0,0.0,0.0,0.0,0.0,0.0,0.0,0.0,0.0,0.0,0.0,0.0,0.0,0.0,0.0,0.0,0.0,0.0,0.0,0.0,0.0,0.0,0.0,0.0,0.0,0.0,0.0,0.0,0.0,0.0,0.0,0.0,0.0,0.0,0.0,0.0,0.0,0.0,0.0,0.0,0.0,0.0,0.0,0.0,0.0,0.0,0.0,0.0,0.0,0.0,0.0,0.0,0.0,0.0,0.0,0.0,0.0,0.0,0.0,0.0,0.0,0.0,0.0,0.0,0.0,0.0,5.9208,6.1288,6.2805,6.2805,6.2705,6.2654,6.2705,6.1492,6.0237,5.913,0.0,0.0,0.0,0.0,0.0,0.0,0.0,0.0,0.0,0.0,0.0,0.0,0.0,0.0,0.0,0.0,0.0,0.0,0.0,0.0,0.0,0.0,0.0,0.0,0.0,0.0,0.0,0.0,0.0,0.0,0.0,0.0,0.0,0.0,0.0,0.0,0.0,0.0,0.0,0.0,0.0,0.0,0.0,0.0,0.0,0.0,0.0,0.0,0.0,0.0,0.0,0.0,0.0,0.0,0.0,0.0,0.0,0.0,0.0,0.0,5.2169,0.0,0.0,0.0,0.0,0.0,0.0,0.0,0.0,0.0,0.0,0.0,0.0,0.0,0.0,0.0,0.0,0.0,0.0,0.0,0.0,0.0,0.0,0.0,0.0,0.0,0.0,0.0,0.0,0.0,0.0,0.0,0.0,0.0,0.0,0.0,0.0,0.0,0.0,0.0,0.0,0.0,5.9161,6.1202,6.2705,6.2805,6.1915,6.1492,6.2059,6.0432,5.908,5.8426,5.7377,0.0,0.0,0.0,0.0,0.0,0.0,0.0,0.0,0.0,0.0,0.0,0.0,0.0,0.0,0.0,0.0,0.0,0.0,0.0,0.0,0.0,0.0,0.0,0.0,0.0,0.0,0.0,0.0,0.0,0.0,0.0,0.0,0.0,0.0,0.0,0.0,0.0,0.0,0.0,0.0,0.0,0.0,0.0,0.0,0.0,0.0,0.0,0.0,0.0,0.0,0.0,0.0,0.0,0.0,0.0,0.0,0.0,0.0,0.0,0.0,5.2926,0.0,0.0,0.0,0.0,0.0,0.0,0.0,0.0,0.0,0.0,0.0,0.0,0.0,0.0,0.0,0.0,0.0,0.0,0.0,0.0,0.0,0.0,0.0,0.0,0.0,0.0,0.0,0.0,0.0,0.0,0.0,0.0,0.0,0.0,0.0,0.0,0.0,0.0,0.0,0.0,5.9795,6.1508,6.2705,6.2805,6.2219,6.186,6.1897,6.0676,5.9714,5.9126,5.7828,0.0,0.0,0.0,0.0,0.0,0.0,0.0,0.0,0.0,0.0,0.0,0.0,0.0,0.0,0.0,0.0,0.0,0.0,0.0,0.0,0.0,0.0,0.0,0.0,0.0,0.0,0.0,0.0,0.0,0.0,0.0,0.0,0.0,0.0,0.0,0.0,0.0,0.0,0.0,0.0,0.0,0.0,0.0,0.0,0.0,0.0,0.0,0.0,0.0,0.0,0.0,0.0,0.0,5.5465,5.5202,5.5238,5.4575,5.5012,5.6242,5.5581,5.5757,5.6492,0.0,0.0,0.0,0.0,0.0,0.0,0.0,0.0,0.0,0.0,0.0,0.0,0.0,0.0,0.0,0.0,0.0,0.0,0.0,0.0,0.0,0.0,0.0,0.0,0.0,5.9869,6.0347,0.0,0.0,0.0,0.0,0.0,0.0,0.0,0.0,0.0,0.0,0.0,0.0,6.1006,6.2328,6.3246,6.3246,6.3145,6.2902,6.2549,6.1552,6.0767,6.0403,5.8467,5.7278,0.0,0.0,0.0,0.0,0.0,0.0,0.0,0.0,0.0,0.0,0.0,0.0,0.0,0.0,0.0,0.0,0.0,0.0,0.0,0.0,0.0,0.0,0.0,0.0,0.0,0.0,0.0,0.0,0.0,0.0,0.0,0.0,5.0909,5.0909,0.0,0.0,0.0,0.0,0.0,0.0,0.0,0.0,0.0,0.0,0.0,0.0,0.0,5.3971,5.5036,5.5047,5.5733,5.7026,5.7098,5.74,5.7913,5.7802,5.8157,5.8915,5.8804,0.0,5.5721,5.5544,0.0,0.0,0.0,0.0,0.0,0.0,0.0,0.0,0.0,0.0,0.0,0.0,0.0,0.0,0.0,0.0,0.0,0.0,0.0,0.0,0.0,0.0,6.2328,6.2181,6.2328,6.2388,0.0,6.0335,5.8945,5.9627,6.0335,0.0,0.0,0.0,0.0,0.0,0.0,0.0,6.3429,6.442,6.4971,6.4971,6.4475,6.433,6.4815,6.2618,6.1369,6.19,5.9919,5.8494,5.8071,5.7967,0.0,0.0,0.0,0.0,0.0,0.0,0.0,0.0,0.0,0.0,0.0,0.0,0.0,0.0,0.0,0.0,0.0,0.0,0.0,0.0,0.0,0.0,0.0,0.0,0.0,0.0,0.0,0.0,0.0,5.0089,5.0489,5.1378,5.1351,5.1203,0.0,0.0,0.0,0.0,0.0,0.0,0.0,0.0,0.0,5.4481,5.4719,5.5477,5.6722,5.7244,5.7958,5.8714,5.9316,5.9678,5.9849,5.9849,5.9989,6.0149,6.0103,5.9467,5.8391,5.7958,5.7641,5.7359,0.0,0.0,0.0,0.0,5.7851,5.7943,5.9108,5.9448,0.0,0.0,0.0,0.0,0.0,0.0,0.0,0.0,0.0,0.0,0.0,0.0,0.0,6.3319,6.3539,6.3649,6.4127,6.3658,6.2874,0.0,6.1605,6.1471,6.1153,0.0,0.0,0.0,0.0,6.3246,6.4016,6.4787,6.5301,6.5301,6.5055,6.4658,6.423,6.3046,6.2181,6.1761,6.0808,5.9978,5.9356,5.9009,5.838,0.0,0.0,0.0,0.0,0.0,0.0,0.0,0.0,0.0,0.0,0.0,0.0,0.0,0.0,0.0,0.0,0.0,0.0,0.0,0.0,0.0,0.0,0.0,0.0,0.0,0.0,0.0,0.0,5.0574,5.0936,5.2085,5.2319,5.2243,0.0,0.0,0.0,0.0,0.0,0.0,5.3922,5.4273,5.493,5.5907,5.6473,5.7426,5.8731,5.9485,5.9997,6.0258,6.089,6.1143,6.1056,6.1056,6.1078,6.1089,6.0997,6.1014,6.1077,6.014,5.9833,5.9937,5.9478,5.9339,5.9417,5.9599,5.9461,5.9456,6.0766,6.115,6.097,6.0893,0.0,6.155,6.0774,0.0,0.0,0.0,0.0,6.1439,6.2192,6.2463,6.2842,6.409,6.4237,6.4237,6.4861,6.5118,6.4934,0.0,6.3429,6.2952,6.2328,0.0,0.0,0.0,0.0,6.4567,6.4971,6.5521,6.5925,6.5925,6.5925,6.5532,6.4518,6.3918,6.3151,6.2161,6.1605,6.1047,6.0496,6.0048,5.939,5.8522,0.0,0.0,0.0,0.0,0.0,0.0,0.0,0.0,0.0,0.0,0.0,0.0,0.0,0.0,0.0,0.0,0.0,0.0,0.0,0.0,0.0,0.0,0.0,0.0,0.0,0.0,0.0,0.0,0.0,5.3419,5.3704,0.0,0.0,0.0,0.0,5.4464,5.3973,5.4685,5.6979,5.6687,5.7298,5.9131,5.9583,6.0018,6.0461,6.09,6.115,6.115,6.1187,6.1224,6.1187,6.1187,6.1463,6.1939,6.1939,6.224,6.2585,6.1006,6.0691,6.13,6.1263,6.1384,6.1578,6.2201,6.216,6.1892,6.25,6.2695,6.2598,6.2308,6.2092,6.2296,6.3804,6.3312,0.0,0.0,6.3381,6.3749,6.4382,6.4808,6.5154,6.5228,6.464,6.409,6.4127,6.2952,6.2732,0.0,6.688,6.6659,6.4347,0.0,6.4897,6.409,6.4714,6.5778,6.732,6.754,6.7577,6.7577,6.7577,6.7577,6.7486,6.5574,6.4412,6.4314,6.247,6.1289,6.1254,6.122,6.0566,5.9284,5.9215,0.0,0.0,0.0,0.0,0.0,0.0,0.0,0.0,0.0,0.0,0.0,0.0,0.0,0.0,0.0,0.0,0.0,0.0,0.0,0.0,0.0,0.0,0.0,0.0,0.0,0.0,0.0,0.0,5.4811,5.484,0.0,5.4974,5.5109,5.5354,5.5659,5.5663,5.6248,5.7575,5.7953,5.8664,5.975,6.043,6.0839,6.0974,6.1663,6.1967,6.2004,6.2524,6.2747,6.2747,6.2747,6.2851,6.302,6.2928,6.2983,6.3158,6.2472,6.2214,6.2271,6.2271,6.2318,6.2447,6.265,6.2656,6.2537,6.2695,6.2805,6.2768,6.2634,6.254,6.2621,6.3214,6.3037,6.2673,6.2925,6.3039,6.3231,6.3431,6.3616,6.3833,6.4383,6.431,6.4237,6.4751,6.442,6.4347,6.5521,6.5081,6.4457,6.4127,6.5191,6.5815,6.5007,6.5999,6.7026,6.7614,6.7687,6.7687,6.7687,6.7322,6.6852,6.6368,6.5248,6.4383,6.3939,6.3165,6.2565,6.2082,6.2048,6.1565,6.06,6.0566,5.9495,0.0,0.0,0.0,0.0,0.0,0.0,0.0,0.0,0.0,0.0,0.0,0.0,0.0,0.0,0.0,0.0,0.0,0.0,0.0,0.0,0.0,0.0,0.0,0.0,0.0,0.0,5.4266,5.5623,5.5714,5.5741,5.5977,5.6283,5.6564,5.6808,5.7166,5.7647,5.8374,5.93,5.9998,6.0602,6.1382,6.1871,6.2004,6.2562,6.2822,6.2822,6.3379,6.3602,6.3602,6.3602,6.3557,6.3511,6.3465,6.3382,6.3336,6.3345,6.3205,6.2953,6.3147,6.311,6.3014,6.3062,6.3002,6.2805,6.2805,6.2904,6.3014,6.3014,6.3158,6.3262,6.3262,6.3262,6.3262,6.3262,6.3342,6.3419,6.3419,6.3529,6.3796,6.4383,6.431,6.4237,6.4787,6.4677,6.4457,6.4457,6.4016,6.3759,6.4053,6.5191,6.5815,6.5007,6.6256,6.7283,6.7283,6.7341,6.7378,6.7378,6.6736,6.6125,6.5653,6.4791,6.4182,6.3967,6.3543,6.319,6.2875,6.2672,6.2189,6.1394,6.0727,5.9727,5.8359,0.0,0.0,0.0,0.0,0.0,0.0,0.0,0.0,0.0,0.0,0.0,0.0,0.0,0.0,0.0,0.0,0.0,0.0,0.0,0.0,0.0,0.0,0.0,5.4825,5.5539,5.602,5.5918,5.6481,5.6725,5.6404,5.6651,5.715,5.7874,5.8241,5.8751,5.9516,6.0626,6.1415,6.1824,6.2581,6.3194,6.3602,6.3602,6.3602,6.3602,6.3602,6.3602,6.3602,6.3602,6.3511,6.3382,6.3382,6.3336,6.3242,6.3624,6.358,6.3242,6.3705,6.3749,6.349,6.3661,6.3299,6.2805,6.2805,6.311,6.349,6.349,6.3761,6.4056,6.4056,6.4056,6.4056,6.4056,6.4321,6.4633,6.4633,6.4918,6.5228,6.5228,6.464,6.4053,6.4053,6.3392,6.2805,6.2842,6.4163,6.5007,6.42,6.4751,6.5044,6.4237,6.5521,0.0,6.6549,6.6644,6.6677,6.6641,6.5966,6.5554,6.5554,6.4397,6.3928,6.4566,6.3414,6.3024,6.3565,6.3021,6.2402,6.1709,5.9667,5.8665,5.8698,0.0,0.0,0.0,0.0,0.0,0.0,0.0,0.0,0.0,0.0,0.0,0.0,0.0,0.0,0.0,0.0,0.0,0.0,0.0,0.0,0.0,0.0,5.6892,5.6474,5.6408,5.6836,5.7964,5.7801,5.7803,5.8248,5.8321,5.8495,5.8702,5.877,5.9076,5.9551,6.0676,6.1456,6.1824,6.288,6.3511,6.3602,6.3602,6.3602,6.3602,6.3602,6.3602,6.3602,6.3602,6.3557,6.3557,6.3557,6.3511,6.3511,6.361,6.3519,6.3382,6.358,6.3445,6.311,6.3158,6.3099,6.2953,6.2953,6.2953,6.2965,6.2965,6.3062,6.3168,6.3168,6.3168,6.3168,6.3168,6.321,6.3334,6.3334,6.3419,6.3503,6.3503,6.3319,6.3172,6.3172,6.2989,6.2989,6.3613,6.409,6.4163,6.3319,6.4347,6.5228,6.5007,6.6329,0.0,6.6733,6.6685,6.6342,6.5406,6.4678,6.419,6.419,6.3447,6.324,6.3861,6.3539,6.3432,6.3565,6.3466,6.3259,6.3052,6.1418,6.0223,0.0,0.0,0.0,0.0,0.0,0.0,0.0,0.0,0.0,0.0,0.0,0.0,0.0,0.0,0.0,0.0,0.0,0.0,0.0,0.0,0.0,0.0,5.752,5.7998,5.7835,5.7635,5.7912,5.8909,5.8633,5.853,5.8978,5.9012,5.9012,5.9012,5.9012,5.9219,5.9837,6.1138,6.2104,6.2599,6.396,6.4642,6.4642,6.4642,6.4642,6.4642,6.4642,6.4642,6.4642,6.4642,6.4642,0.0,6.427,6.4122,6.4085,6.3935,6.3698,0.0,0.0,0.0,0.0,0.0,6.3099,6.3051,6.3002,6.2953,6.2855,6.2805,6.2805,6.2805,6.2805,6.2805,6.2805,6.2805,6.2805,6.2805,6.2805,6.2805,6.2805,6.2805,6.2805,6.2805,6.2805,6.2805,6.2952,6.3466,6.3833,0.0,6.3429,6.442,6.5301,6.5301,6.6366,6.7066,6.67,6.6401,6.5981,6.5207,6.427,6.3694,6.3694,6.31,0.0,0.0,0.0,6.3263,6.3263,6.3263,0.0,0.0,0.0,6.1251,6.064,0.0,0.0,0.0,5.4924,5.4148,0.0,0.0,0.0,0.0,0.0,0.0,0.0,0.0,0.0,0.0,0.0,0.0,0.0,0.0,0.0,0.0,5.8628,5.8944,5.884,5.8875,5.9012,5.9012,5.9012,5.9047,5.915,5.915,5.9185,5.9254,5.9288,5.9564,6.0393,0.0,0.0,0.0,0.0,6.6091,6.6091,6.6091,6.6091,6.6091,6.6091,6.6091,6.6091,6.6091,6.6091,6.6054,6.5274,6.4976,6.4902,6.4561,6.4177,6.3862,6.3631,6.3419,6.3194,6.3194,6.3194,6.3194,6.3099,0.0,0.0,6.2855,6.2855,6.2855,6.2855,6.2805,6.2805,6.2805,6.2805,6.2805,6.2805,6.2805,6.2805,6.2805,6.2805,6.2805,6.2805,6.2805,6.2842,6.2952,6.3649,6.4237,6.4347,6.4971,6.5448,6.5448,6.6109,6.657,6.6426,6.5935,6.549,6.529,0.0,0.0,6.3462,6.2986,6.2989,6.3531,6.309,6.2781,6.2781,6.2781,6.2781,6.2781,6.2164,6.1791,6.1676,6.0357,5.9395,5.868,5.6255,5.5197,0.0,0.0,0.0,0.0,0.0,0.0,0.0,0.0,0.0,0.0,0.0,0.0,0.0,0.0,0.0,5.759,5.8349,5.9012,5.8944,5.9012,5.9012,5.9012,5.9012,5.9254,5.9909,5.9978,6.022,6.0806,6.0875,6.1155,6.1873,6.2923,6.3769,6.4457,6.5546,6.6091,6.6091,6.6091,6.6091,6.6091,0.0,0.0,6.6091,6.6091,6.6091,6.6091,6.5942,6.5868,6.5831,6.5775,6.57,6.5496,6.403,6.3419,6.3336,6.3336,6.3336,6.3336,6.3336,6.3242,6.3147,6.3099,6.3099,6.3099,6.3099,6.3051,0.0,6.2953,6.2904,6.2805,6.2805,6.2805,6.2805,6.2805,6.2805,6.2805,6.2805,6.2805,6.3025,6.3723,6.4494,6.5264,6.5925,6.6145,6.6256,6.6256,6.6953,6.7067,6.5909,6.5708,6.4989,6.345,6.2993,6.2885,6.2885,6.2747,6.2989,6.3531,6.3462,6.3432,6.3432,6.3432,6.3432,6.3432,6.2802,6.2222,6.1676,6.0887,6.0148,5.9457,5.7242,5.6237,0.0,0.0,0.0,0.0,0.0,0.0,0.0,0.0,0.0,0.0,0.0,5.6666,0.0,0.0,5.7886,5.8137,5.863,5.9012,5.9012,5.9357,5.9599,5.9599,5.9599,5.9909,6.0668,6.0737,6.0909,6.1254,6.1289,6.1603,6.237,6.3527,6.4531,6.5222,6.6522,6.7221,6.7221,6.7269,6.7317,6.7317,6.7317,6.7317,6.7317,6.7317,6.7317,6.728,6.6871,6.6722,6.6685,6.6277,6.6091,6.6017,6.5069,6.4476,6.4105,6.4105,6.3845,6.3511,6.3428,6.3336,6.3289,6.3194,6.3194,6.3194,6.3099,6.3051,6.3002,6.2904,6.2855,6.2805,6.2805,6.2805,6.2805,6.2805,6.2805,6.2915,6.3356,6.3466,6.3686,6.453,6.5338,6.6035,6.6439,6.6843,6.71,6.71,6.7177,6.6946,6.6283,6.5561,6.4697,6.3764,6.334,6.3159,6.3159,6.3159,6.3259,6.3565,6.36,6.36,6.36,6.36,6.36,6.36,6.3268,6.2625,6.1676,6.0984,6.0157,5.9134,5.732,5.6705,0.0,0.0,0.0,0.0,0.0,0.0,0.0,0.0,5.6489,5.628,5.6659,5.7129,5.7473,5.7578,5.7863,5.8806,5.9012,5.9047,5.9219,5.9806,6.0323,6.0599,6.0496,6.0703,6.1461,6.153,6.1599,6.1737,6.1737,6.2085,6.2851,6.4149,6.5284,6.6017,6.7486,6.8309,6.8358,6.8457,6.8506,6.8506,6.8506,6.8506,6.8506,6.8506,6.8506,6.8468,6.7837,6.754,6.7503,6.6834,6.6574,6.6574,6.6574,6.6054,6.5274,6.5125,6.4642,6.4085,6.3993,6.3799,6.3641,6.3548,6.339,6.3194,6.3099,6.3051,6.3039,6.3038,6.3062,6.3099,6.3246,6.3319,6.3319,6.3319,6.3319,6.3503,6.4163,6.431,6.453,6.5191,6.5962,6.6512,6.6512,6.7173,6.7687,6.7488,6.7061,6.6618,6.6344,6.5303,6.4532,6.4393,6.3895,6.36,6.36,6.36,6.36,6.36,6.36,6.36,6.36,6.36,6.36,6.36,6.3343,6.2634,6.1441,6.0598,5.9614,5.8389,5.7093,5.6802,5.545,5.5743,5.6796,5.7882,5.7477,5.7117,0.0,0.0,5.7548,5.8421,5.8699,5.8736,5.8805,5.8839,5.8806,5.8978,5.9012,5.9254,5.9978,6.0151,6.0703,6.2082,6.1599,6.1496,6.2289,6.2358,6.2634,6.3289,6.3324,6.3615,6.4357,6.519,6.6103,6.6952,6.7826,6.8358,6.8457,6.8506,6.8506,6.8506,6.8506,6.8506,6.8506,6.8506,6.8506,6.8506,6.8431,6.8394,6.8357,6.8283,6.8246,6.8246,6.8246,6.7763,6.6945,6.6239,6.5905,6.5831,6.5831,6.5264,6.4633,6.4633,6.4058,6.3382,6.3336,6.3194,6.3149,6.3836,6.4007,6.4127,6.4824,6.5044,6.5044,6.5044,6.5044,6.5044,6.5154,6.5191,6.5191,6.5301,6.5962,6.6512,6.6512,6.7173,6.7488,6.6889,6.6736,6.6222,6.4972,6.4738,6.4323,6.3785,6.3673,6.36,6.36,6.36,6.36,6.36,6.36,6.36,6.36,6.36,6.36,6.36,6.2469,6.1501,6.0751,5.9464,5.8463,5.7676,5.6867,5.6543,5.7891,5.76,0.0,0.0,5.8264,5.8051,5.8646,5.8432,5.8258,5.8839,5.9012,5.9012,5.9012,5.9392,5.9702,0.0,6.0082,6.0461,6.0806,6.122,6.1772,6.2393,6.2565,6.2772,6.3082,6.3117,6.3255,6.3565,6.36,6.3895,6.4532,6.5267,6.6089,6.6988,6.7773,6.8259,6.8358,6.8457,6.8506,6.8506,6.8506,6.8506,6.8506,6.8506,6.8506,6.8506,6.8506,6.8506,6.8506,6.8506,6.8506,6.8506,6.8506,6.832,6.7911,6.7094,6.65,6.6091,6.6091,6.5868,6.5571,6.5571,6.5301,6.4958,6.4911,6.4731,6.4611,6.488,6.489,6.4897,6.5228,6.5301,6.5301,6.5301,6.5301,6.5448,6.5888,6.5999,6.6145,6.6623,6.6953,6.7173,6.7173,6.7467,6.7286,6.6186,6.6064,6.5878,6.5237,6.4463,6.3895,6.3673,6.36,6.36,6.36,6.36,6.36,6.36,6.36,6.36,6.36,6.36,6.36,6.36,6.2706,6.1689,6.0617,5.9145,5.7937,5.6931,5.6187,5.5863,5.9199,0.0,0.0,5.8667,5.8736,5.8681,5.8681,5.8681,5.8789,5.8977,5.9185,5.9323,5.9323,5.9978,6.0496,6.0496,6.0944,6.1392,6.1599,6.2117,6.2565,6.2772,6.3255,6.36,6.36,6.36,6.36,6.36,6.36,6.3854,6.4567,6.549,6.6334,6.7197,6.8274,6.8823,6.8976,6.9076,6.9174,6.9174,6.9174,6.9174,6.9174,6.9174,6.9174,6.9174,6.9174,6.9174,6.9137,6.8951,6.884,6.884,6.8617,6.8506,6.8431,6.7874,6.728,6.676,6.676,6.6611,6.6425,6.6425,6.6229,6.6044,6.5949,6.5804,6.573,6.6072,6.6066,6.6072,6.6512,6.6623,6.6623,6.6623,6.6476,6.6476,6.7026,6.699,6.699,6.7577,6.7687,6.7707,6.7726,6.7762,6.7367,6.6423,6.6073,6.5698,6.5141,6.4218,6.36,6.36,6.36,6.36,6.36,6.36,6.36,6.36,6.36,6.36,6.36,6.36,6.3496,6.3289,6.2591,6.1484,6.0013,5.8708,5.7483,5.6187,5.5668,5.5409,0.0,0.0,5.8224,5.8818,5.8955,5.8978,5.8978,5.8978,5.8978,5.9012,5.9633,6.0151,6.0151,6.0771,6.1254,6.1254,6.1289,6.1565,6.2324,6.2461,6.2772,6.3462,6.3565,6.36,0.0,6.36,6.36,6.36,6.36,6.391,6.4634,6.6035,6.7153,6.8135,6.9608,7.0486,7.0643,7.0745,7.0846,7.0846,7.0846,7.0846,7.0846,7.0846,7.0846,7.0846,7.0846,7.0846,7.0772,6.9992,6.9694,6.962,6.8803,6.8506,6.8506,6.8468,6.8468,6.8431,6.8431,6.7948,6.728,6.728,6.6627,6.5901,6.5901,6.5706,6.5837,6.7384,6.772,6.7981,6.9559,6.9963,6.9963,6.9963,6.9376,6.8788,6.8825,6.8201,6.765,6.7687,6.7687,6.7744,6.781,6.78,6.7811,6.7832,6.7302,6.6108,6.3919,6.3673,6.36,6.36,6.36,6.36,6.36,6.36,6.36,6.36,6.36,6.36,6.36,6.36,6.3255,6.253,6.1838,6.0562,5.8504,5.774,5.6741,5.5442,5.5442,5.5409,5.8003,0.0,5.8605,5.9503,5.9307,5.9149,5.9582,5.9733,5.9806,5.9806,6.022,6.0599,6.0632,6.1189,6.171,6.1779,6.2366,6.291,6.3186,6.322,6.3324,6.3565,6.36,0.0,0.0,0.0,0.0,6.4289,6.4324,6.4858,6.6101,6.6602,6.7496,6.8775,6.9391,7.0,7.0717,7.0768,7.0819,7.092,7.092,7.092,7.092,7.092,7.092,7.092,7.092,7.092,7.0883,7.0623,7.0846,7.1329,7.1069,7.1292,7.1701,7.1143,7.0586,6.9955,6.8877,6.832,6.8097,6.8097,6.7863,6.7592,6.7494,6.7395,6.7303,6.7768,6.8162,6.8605,6.9155,6.9302,6.9449,6.9963,6.9486,6.9045,6.9596,6.9486,6.9265,6.9265,6.9265,6.9172,6.8657,6.8573,6.8274,6.7338,6.706,6.6491,6.5302,6.5117,6.5117,6.5117,6.5117,6.5117,6.5117,6.5117,6.5117,6.5117,6.5117,6.4669,6.3634,6.36,6.2832,6.116,6.0427,5.9321,5.7819,5.7008,5.625,5.5409,5.5409,5.5409,5.8259,5.8429,5.8736,5.9439,5.9525,5.9564,6.0,6.0357,6.0599,6.0599,6.0843,6.1117,6.1285,6.1812,6.2335,6.2708,6.3136,6.3546,6.3823,6.3615,6.3577,6.391,6.3979,6.4289,0.0,0.0,0.0,6.5083,6.5117,6.5803,6.7232,6.7623,6.8382,6.9926,7.0383,7.0881,7.15,7.1606,7.171,7.1812,7.1812,7.1812,7.1812,7.1812,7.1812,7.1812,7.1812,7.1961,7.2221,7.1923,7.2295,7.3001,7.2741,7.2927,7.3335,7.2815,7.2258,7.1515,6.962,6.8766,6.8506,6.8506,6.8506,6.8457,6.8358,6.8208,6.8144,6.8283,6.8823,6.9412,6.9706,6.9963,7.033,7.0844,7.033,6.9926,7.044,7.0293,7.011,7.011,7.011,6.9864,6.9146,6.8821,6.8325,6.7469,6.7322,6.6999,6.6021,6.5876,6.5876,6.5876,6.5876,6.5876,6.5876,6.5876,6.5876,6.5876,6.5876,6.5462,6.4462,6.4152,6.3062,6.1197,6.0177,5.8934,5.7423,5.6665,5.602,5.5409,5.5409,5.5409,5.8667,5.8631,5.8746,5.9078,5.9737,6.0324,6.0393,6.0946,6.1465,6.1394,6.1641,6.195,0.0,0.0,6.3171,6.3842,6.3512,6.3485,6.4218,6.3729,6.3623,0.0,0.0,0.0,0.0,0.0,0.0,6.5979,0.0,6.6601,6.8039,6.882,6.9818,7.1323,7.2401,7.2927,7.2982,7.3305,7.3372,7.3372,7.3372,7.3372,7.3372,7.3372,7.3372,7.3372,7.3372,7.3818,7.445,7.3744,7.393,7.4561,7.3855,7.3595,7.3632,7.3595,7.3558,7.3187,7.0772,6.9397,6.8691,6.8691,6.8654,6.8605,6.847,6.8319,6.8365,6.8984,6.9632,7.033,7.1101,7.1872,7.2459,7.2496,7.1908,7.1321,7.1358,7.077,7.022,7.022,7.0164,6.9945,6.9287,6.8597,6.8083,6.8083,6.8083,6.7566,6.6186,6.5979,6.5979,6.5979,6.5979,6.5979,6.5979,6.5979,6.5979,6.5979,6.5979,6.5979,6.5876,6.5152,6.4057,6.2591,6.1163,5.9472,5.7442,5.6685,5.6006,5.5474,5.5442,5.5409,5.8654,5.9172,6.0043,6.1129,6.1571,6.187,6.2393,6.3215,6.3412,6.1987,6.2516,6.3101,0.0,0.0,0.0,6.3094,6.3344,0.0,6.3785,6.4097,0.0,0.0,0.0,6.5876,6.6635,6.6704,0.0,0.0,6.7014,6.7092,6.805,6.8772,6.9637,7.057,7.1511,7.2307,7.2982,7.3305,7.3372,7.3372,7.3372,7.3372,7.3372,7.3372,7.3372,7.3372,7.3372,7.3521,7.3707,7.4115,7.4747,7.5527,7.5973,7.6493,7.6976,7.6382,7.575,7.5007,7.3781,7.2406,7.1255,7.1255,7.0809,7.0239,7.0138,7.0087,7.0073,7.0101,7.0605,7.1195,7.1416,7.1524,7.1762,7.2349,7.1908,7.1468,7.2055,7.2018,7.1908,7.1908,7.0992,7.0165,7.0047,6.8947,6.8083,6.8083,6.8083,6.7945,6.7566,6.7532,6.7532,6.7532,6.7532,6.7532,6.7532,6.7532,6.7532,6.7532,6.7532,6.7049,6.5945,6.5669,6.4453,6.1997,6.1054,5.9771,5.832,5.7051,5.6384,5.6219,5.5668,5.5409,5.9346,5.9978,6.0878,6.1621,6.2115,6.247,6.2717,6.3406,6.3725,6.2494,6.2903,0.0,0.0,0.0,0.0,0.0,0.0,0.0,6.4312,6.4485,6.4863,0.0,6.6117,0.0,6.7394,6.7463,6.7635,0.0,6.7704,6.7791,6.8559,6.9273,7.0024,7.0806,7.1696,7.2537,7.3199,7.332,7.3372,7.3372,7.3372,7.3372,7.3372,7.3372,7.3372,7.3372,0.0,7.3595,7.3967,7.4784,7.5601,7.6456,7.7273,7.7905,7.8239,7.7793,7.731,7.6827,7.6382,7.5378,7.4153,7.3075,7.2406,7.1947,7.1843,7.1532,7.1235,7.1078,7.1303,7.1581,7.1508,7.171,7.2002,7.2386,7.2165,7.1945,7.2422,7.2496,7.2438,7.2108,7.0872,6.9814,6.9814,6.8863,6.8083,6.8083,6.8083,6.8083,6.8083,6.8083,6.8083,6.8083,6.8083,6.8083,6.8083,6.8083,6.8083,6.8083,6.8083,6.7581,6.6484,6.6141,6.489,6.2698,6.1634,6.0388,5.9101,5.7968,5.7288,5.6964,5.6219,5.5895,6.0324,6.0806,6.1461,6.1569,6.2156,6.268,6.2436,6.2954,6.3365,6.2811,0.0,6.3403,6.3478,6.3634,6.3912,6.4555,0.0,6.3834,6.5194,6.488,6.5117,6.6816,6.7083,6.7394,6.8049,6.8083,6.8083,6.8083,6.8162,6.844,6.9013,6.9814,7.0704,7.1547,7.2516,7.3145,7.3372,7.3372,7.3372,7.3372,7.3372,7.3372,7.3372,7.3372,7.3372,7.3372,7.3372,0.0,7.4487,7.5416,7.6233,7.7013,7.7942,7.8276,7.8276,7.8276,7.8276,7.8276,7.8276,7.783,7.6865,7.4598,7.3781,7.3707,7.3602,7.3066,7.251,7.2351,7.226,7.2152,7.2042,7.2502,7.2961,7.2679,7.2679,7.2642,7.238,7.2285,7.2011,7.1359,7.0094,6.9235,6.9235,6.8593,6.8083,6.8083,6.8083,6.8083,6.8083,6.8083,6.8083,6.8083,6.8083,6.8083,6.8083,6.8083,6.8083,6.8083,6.8083,6.7765,6.7112,6.65,6.543,6.3913,6.2595,6.1197,5.9846,5.9036,5.8324,5.7709,5.6996,5.664,6.0185,6.122,6.2398,6.2961,6.3658,6.4146,6.3872,6.4465,0.0,0.0,6.3509,6.4255,6.33,6.3932,6.4492,6.4202,0.0,0.0,0.0,0.0,6.5994,0.0,0.0,0.0,0.0,0.0,0.0,0.0,0.0,6.8787,6.8319,6.9529,7.0966,7.2459,7.2779,7.3091,7.3252,7.332,7.3372,7.3372,7.3372,7.3372,7.3372,7.3372,7.3372,7.3372,7.3372,0.0,7.3707,7.5193,7.5899,7.6159,7.7682,7.8276,7.8276,7.8276,7.8276,7.8276,7.8276,7.8202,7.7905,7.679,7.5973,7.5378,7.5378,7.5267,7.5102,7.5102,7.4922,7.4755,7.4699,7.4638,7.4331,7.3634,7.3487,7.3149,7.1853,7.1131,7.0637,7.0503,6.9743,6.9235,6.9235,6.8593,6.8083,6.8083,6.8083,6.8083,6.8083,6.8083,6.8083,6.8083,6.8083,6.8083,6.8083,6.8083,6.8083,6.8083,6.8083,6.7765,6.7112,6.701,6.5935,6.3913,6.3089,6.1983,6.0623,5.9295,5.8583,5.8421,5.7709,5.7385,6.1289,6.222,6.3121,6.3518,6.3832,6.4079,6.4084,0.0,0.0,0.0,6.4224,6.4924,6.4447,6.4842,0.0,0.0,0.0,0.0,0.0,0.0,0.0,0.0,0.0,0.0,0.0,0.0,0.0,0.0,0.0,6.867,6.867,7.0094,7.1448,7.2779,7.3333,7.372,7.3935,7.445,7.4635,7.4635,7.4635,7.4635,7.4635,7.4635,7.4635,7.4635,7.4635,0.0,7.4747,7.5973,7.6196,7.5899,7.7162,7.7682,7.7682,7.7682,7.7942,7.8276,7.8276,7.8276,7.8239,7.783,7.7422,7.7087,7.7087,7.679,7.6456,7.6456,7.5995,7.5495,7.542,7.5211,7.4926,7.4404,7.4055,7.3416,7.2233,7.1158,7.0309,7.0309,6.9442,6.867,6.867,6.8284,6.8083,6.8083,6.8083,6.8083,6.8083,6.8083,6.8083,6.8083,6.8083,6.8083,6.8083,6.8083,6.7945,6.7532,6.7559,6.7073,6.6002,6.5664,6.4773,6.3407,6.2689,6.1825,6.0785,6.0105,5.9555,5.9166,5.8453,5.813,6.2327,6.3013,6.36,6.36,6.36,6.365,6.3956,6.4008,0.0,0.0,6.4896,6.538,6.5591,6.579,6.5922,0.0,0.0,0.0,0.0,0.0,0.0,0.0,0.0,0.0,0.0,0.0,0.0,0.0,0.0,0.0,6.9419,7.0883,7.2206,7.3185,7.4016,7.4589,7.4805,7.549,7.5787,7.5787,7.5787,7.5787,7.5787,7.5787,7.5787,7.5787,7.5787,0.0,0.0,7.6716,7.6679,7.6159,7.7013,7.7347,7.7347,7.7347,7.7756,7.8276,7.8276,7.8276,7.8276,7.8276,7.8276,7.8276,7.8276,7.783,7.7347,7.7347,7.6755,7.6069,7.5994,7.5785,7.5537,7.5055,7.4215,7.3312,7.2549,7.136,7.0371,7.0371,6.9454,6.8532,6.8359,6.8359,6.829,6.8118,6.8083,6.8083,6.8083,6.8083,6.8083,6.8083,6.8083,6.8083,6.8083,6.8083,6.7842,6.7256,6.6963,6.6237,6.4991,6.41,6.3261,6.2437,6.1886,6.1239,6.0558,6.0558,6.0267,5.9716,5.9134,5.8874,6.2398,6.3013,6.36,6.36,6.36,6.365,6.3956,0.0,0.0,6.4368,6.5048,6.5591,6.5591,6.6184,6.6548,0.0,0.0,6.6073,0.0,0.0,0.0,0.0,0.0,0.0,0.0,0.0,0.0,0.0,0.0,0.0,7.0163,7.1817,7.3106,7.3865,7.4922,7.5495,7.5495,7.5696,7.5787,7.5787,7.5787,7.5787,7.5787,7.5787,7.5787,7.5787,7.5787,0.0,0.0,7.6716,7.705,7.705,7.7868,7.8165,7.8165,7.8165,7.8239,7.8276,7.8276,7.8276,7.8276,7.8276,7.8276,7.8276,7.8276,7.8239,7.8165,7.8165,7.7979,7.7735,7.762,7.7481,7.6998,7.5342,7.3852,7.2549,7.1744,7.0976,7.0419,7.0419,7.0303,6.998,6.9291,6.9153,6.8911,6.8187,6.8083,6.8083,6.8083,6.8083,6.8083,6.8083,6.8083,6.8083,6.8083,6.8083,6.8049,6.8014,6.6804,6.5779,6.5042,6.3723,6.2399,6.1012,6.0915,6.0526,5.9814,5.9814,5.9781,5.9716,5.9652,5.9619,6.2952,6.3358,6.36,6.36,6.3511,6.3485,6.3882,0.0,6.4572,6.5041,6.5772,6.6315,6.6315,6.6569,6.6727,0.0,6.6207,0.0,6.6261,0.0,0.0,0.0,0.0,0.0,0.0,0.0,0.0,0.0,0.0,0.0,7.1621,7.2911,7.3986,7.4826,7.5791,7.6403,7.6513,7.705,7.7273,7.7273,7.7273,7.7273,7.7273,7.7273,7.7273,7.7273,7.7273,0.0,0.0,7.7682,7.7533,7.7125,7.7422,7.757,7.757,7.757,7.7868,7.8276,7.8276,7.8276,7.8276,7.8276,7.8276,7.8276,7.8276,7.8276,7.8276,7.8276,7.7957,7.7607,7.7725,7.7643,7.7009,7.543,7.4512,7.3718,7.2485,7.1607,7.105,7.105,7.0705,7.0291,6.998,6.9946,6.967,6.8911,6.8808,6.8635,6.8152,6.8083,6.8083,6.8083,6.8083,6.8083,6.8083,6.8083,6.7753,6.6907,6.588,6.4841,6.3723,6.2333,6.1345,6.0785,6.0364,6.0008,5.9716,5.9716,5.9716,5.9716,5.9716,5.9716,6.3308,6.3539,6.36,6.36,6.3412,6.3377,0.0,0.0,6.4925,6.5475,6.6243,6.6786,6.6786,6.6786,6.6786,6.6786,6.6452,6.6279,6.6308,6.6621,0.0,0.0,0.0,0.0,0.0,0.0,0.0,0.0,0.0,0.0,7.3269,7.4249,7.5084,7.5752,7.6699,7.7311,7.7422,7.8016,7.8276,7.8276,7.8276,7.8276,7.8276,7.8276,7.8276,7.8276,7.8276,0.0,0.0,7.8276,7.7942,7.7422,7.7422,7.7422,7.7422,7.7422,7.7793,7.8276,7.8276,7.8276,7.8276,7.8276,7.8276,7.8276,7.8276,7.8276,7.8276,7.8276,7.7688,7.7107,7.7169,7.692,7.63,7.4975,7.4642,7.4264,7.297,7.2222,7.1843,7.1843,7.1429,7.0981,7.0774,7.0705,7.0463,6.9739,6.9601,6.9325,6.8566,6.8428,6.8359,6.8118,6.8083,6.8083,6.8083,6.8083,6.7639,6.6364,6.5514,6.44,6.2892,6.1499,6.0688,6.0494,5.9976,5.9716,5.9716,5.9716,5.9716,5.9716,5.9716,5.9716,6.3098,6.3412,6.36,6.36,6.3412,6.3377,0.0,0.0,6.4925,6.5475,6.6243,6.6786,6.6786,6.6786,6.6786,6.6786,6.6822,6.6861,6.7024,6.7068,0.0,0.0,0.0,0.0,0.0,0.0,0.0,0.0,0.0,0.0,7.4928,7.5959,7.6602,7.6602,7.7663,7.8276,7.8276,7.8276,7.8276,7.8276,7.8276,7.8276,7.8276,7.8276,7.8276,7.8276,0.0,0.0,0.0,7.8276,7.8276,7.8276,7.8276,7.8276,7.8276,7.8276,7.8276,7.8276,7.8276,7.8276,7.8276,7.8276,7.8276,7.8276,7.8276,7.8276,7.8276,7.8276,7.7496,7.649,7.6063,7.5441,7.4864,7.4033,7.3799,7.3597,7.2887,7.2671,7.2671,7.2671,7.2671,7.2395,7.1636,7.1498,7.1222,7.0498,7.036,7.0118,6.936,6.9256,6.898,6.8187,6.8083,6.8083,6.8083,6.8083,6.7845,6.7112,6.5817,6.44,6.2979,6.1588,6.0461,5.9749,5.9716,5.9716,5.9716,5.9716,5.9716,5.9716,5.9716,5.9716,6.2888,6.3014,6.3056,6.3056,6.2852,6.2666,6.2852,6.331,6.3899,6.4649,6.541,6.6134,6.6714,6.6786,6.6786,6.6786,6.6786,6.6836,6.6873,0.0,0.0,0.0,0.0,0.0,0.0,0.0,0.0,0.0,0.0,0.0,7.5677,7.6788,7.7414,7.7414,7.796,7.8276,7.8276,7.8276,7.8276,7.8276,7.8276,7.8276,7.8276,7.8276,7.8276,0.0,0.0,0.0,0.0,7.8276,7.8276,7.8276,7.8276,7.8276,7.8276,7.8276,7.8276,7.8276,7.8276,7.8276,7.8276,7.8276,7.8276,7.8221,7.7863,7.8014,7.8071,7.7096,7.6461,7.5927,7.5191,7.4937,7.479,7.3956,7.3799,7.3597,7.2887,7.2671,7.2671,7.2671,7.2671,7.2602,7.2326,7.2291,7.205,7.1256,7.1153,7.0877,7.0118,6.9601,6.9187,6.8946,6.8428,6.8083,6.8083,6.7684,6.7112,6.644,6.5014,6.3584,6.2183,6.1231,6.0461,5.9716,5.9716,5.9716,5.9716,5.9716,5.9716,5.9716,5.9716,5.9716,6.2577,6.2754,6.2775,6.2775,6.2586,0.0,0.0,0.0,6.378,6.4287,6.5265,6.6207,6.6714,6.6786,6.6786,6.6786,6.6786,6.6836,6.6945,0.0,0.0,0.0,0.0,0.0,0.0,0.0,0.0,0.0,0.0,0.0,7.6533,7.7349,7.782,7.782,7.8108,7.8276,7.8276,7.8276,7.8276,7.8276,7.8276,7.8276,7.8276,7.8276,7.8276,0.0,0.0,0.0,0.0,7.8276,7.8276,7.8276,7.8276,7.8276,7.8276,7.8276,7.8165,7.8014,7.8014,7.79,7.7688,7.7688,7.7688,7.7629,7.7292,7.7413,7.7473,7.6591,7.5927,7.5299,7.4487,7.4223,7.3991,7.3517,7.3392,7.3229,7.2838,7.2671,7.2671,7.2671,7.2671,7.2671,7.2671,7.2671,7.2498,7.2015,7.1946,7.167,7.0912,7.0394,6.9911,6.9325,6.8842,6.8349,6.7799,6.736,6.6779,6.6182,6.5017,6.3621,6.2242,6.1562,6.085,6.0137,5.9846,5.9716,5.9716,5.9716,5.9716,5.9716,5.9716,5.954,0.0,6.2567,6.2726,6.2726,0.0,0.0,0.0,0.0,0.0,0.0,0.0,6.675,6.6786,6.6786,6.6786,6.6786,6.6786,6.6861,6.7024,0.0,0.0,0.0,0.0,0.0,0.0,0.0,0.0,0.0,0.0,0.0,7.7268,7.7607,7.782,7.782,7.8108,7.8276,7.8276,7.8276,7.8276,7.8276,7.8276,7.8276,7.8276,7.8276,7.8276,0.0,0.0,0.0,0.0,7.8276,7.8276,7.8276,7.8276,7.8276,7.8276,7.8276,7.7957,7.7473,7.7473,7.7169,7.6728,7.6728,7.6664,7.6664,7.6728,7.6664,7.6664,7.6599,7.5652,7.4492,7.3983,7.3299,7.2671,7.2671,7.2671,7.2671,7.2671,7.2671,7.2671,7.2671,7.2671,7.2671,7.2671,7.2671,7.2671,7.2671,7.2671,7.2429,7.167,7.1532,7.0946,6.9497,6.9325,6.8704,6.7263,6.7029,6.6779,6.6095,6.5359,6.4342,6.2923,6.2178,6.1498,6.0818,6.0073,5.9716,5.9716,5.9716,5.9716,5.9716,5.9628,5.9062,6.2057,0.0,6.2212,6.2212,6.2125,6.2093,0.0,0.0,0.0,0.0,0.0,0.0,0.0,6.6786,6.6786,6.6786,6.6786,6.6861,6.7024,0.0,0.0,0.0,0.0,0.0,0.0,0.0,0.0,0.0,0.0,7.646,7.7268,7.7524,7.7703,7.782,7.7957,7.8127,7.8276,7.8276,7.8276,7.8276,7.8276,7.8276,7.8276,7.8276,7.8276,0.0,0.0,0.0,7.8276,7.8276,7.8276,7.8276,7.8276,7.8276,7.8276,7.8276,7.7957,7.7473,7.7473,7.7169,7.6728,7.6728,7.6469,7.6239,7.6599,7.6403,7.6104,7.5757,7.49,7.3983,7.3542,7.3088,7.2671,7.2671,7.2671,7.2671,7.2671,7.2671,7.2671,7.2671,7.2671,7.2671,7.2671,7.2671,7.2671,7.2671,7.2671,7.2602,7.2429,7.1877,7.1153,7.0222,6.9635,6.8704,6.7263,6.661,6.6009,6.527,6.4577,6.3822,6.2923,6.2178,6.1498,6.0818,6.0073,5.9716,5.9716,5.9716,5.9716,5.9716,5.8882,5.8395,6.2005,6.2005,6.2005,6.2005,6.2005,6.2005,6.2005,0.0,0.0,0.0,0.0,0.0,0.0,0.0,0.0,6.6727,6.6679,6.6746,0.0,0.0,0.0,0.0,0.0,0.0,0.0,0.0,0.0,0.0,0.0,7.6864,7.7304,7.7584,7.7703,7.782,7.8014,7.8221,7.8276,7.8276,7.8276,7.8276,7.8276,7.8276,7.8276,7.8276,7.8276,0.0,0.0,0.0,7.8276,7.8276,7.8276,7.8276,7.8276,7.8276,7.8276,7.8014,7.7629,7.7107,7.6856,7.6469,7.6036,7.6036,7.5865,7.5655,7.5898,7.5829,7.5655,7.5584,7.4787,7.3861,7.3622,7.3135,7.2671,7.2671,7.2671,7.2671,7.2671,7.2671,7.2671,7.2671,7.2671,7.2671,7.2671,7.236,7.2119,7.2119,7.1843,7.1636,7.1636,7.1532,7.1222,7.0463,6.977,6.8724,6.7235,6.6176,6.5448,6.5,6.4333,6.3829,6.3408,6.2372,6.1336,6.0332,5.9911,5.9716,5.9716,5.9716,5.9716,5.9716,5.8669,5.7902,6.2005,6.2059,6.204,6.1987,6.2005,6.2041,6.2186,0.0,0.0,0.0,0.0,0.0,0.0,0.0,0.0,0.0,0.0,0.0,0.0,0.0,0.0,0.0,0.0,0.0,0.0,0.0,0.0,0.0,0.0,7.7181,7.7341,7.7584,7.7762,7.7842,7.8108,7.8221,7.8276,7.8276,7.8276,7.8276,7.8276,7.8276,7.8276,7.8276,7.8276,7.8276,0.0,0.0,7.8276,7.8276,7.8276,7.8276,7.8276,7.8221,7.8127,7.7688,7.7107,7.6534,7.6036,7.5621,7.5225,7.5225,7.5225,7.5225,7.5225,7.5225,7.5262,7.5726,7.4971,7.4018,7.394,7.338,7.2755,7.2671,7.2671,7.2671,7.2671,7.2671,7.2671,7.2671,7.2567,7.2498,7.2498,7.1843,7.1325,7.1325,7.0774,7.0394,7.0394,7.0946,7.1084,7.0381,6.9678,6.8658,6.72,6.579,6.5,6.4819,6.4333,6.3959,6.3862,6.2534,6.1206,5.9911,5.9781,5.9716,5.9716,5.9716,5.9716,5.9716,5.8487,5.7496,6.2005,6.2197,6.2292,6.2076,6.2005,6.2186,6.2875,0.0,0.0,0.0,0.0,0.0,0.0,0.0,0.0,0.0,0.0,0.0,0.0,0.0,0.0,0.0,0.0,0.0,0.0,0.0,0.0,0.0,0.0,7.67,7.7524,7.7463,7.7547,7.7957,7.79,7.7994,7.8276,7.8276,7.8276,7.8276,7.8276,7.8276,7.8276,7.8276,7.8276,7.8276,0.0,7.8276,7.8276,7.8276,7.8276,7.8276,7.8276,7.8014,7.7629,7.7533,7.692,7.6072,7.555,7.5262,7.5225,7.5225,7.5225,7.5225,7.5225,7.5225,7.5225,7.5262,7.4894,7.4441,7.4018,7.3542,7.317,7.2755,7.2671,7.2671,7.2671,7.2671,7.2671,7.2671,7.2153,7.167,7.167,7.105,7.0567,7.0567,7.0463,7.0394,7.0394,7.0498,7.0333,6.9814,6.8947,6.7911,6.6756,6.561,6.4761,6.4179,6.4118,6.3732,6.3084,6.2242,6.1433,6.0656,6.004,5.9716,5.9716,5.9716,5.9716,5.9628,5.7777,5.68,6.2005,6.2418,6.2717,6.2299,6.2341,6.2498,0.0,0.0,0.0,0.0,0.0,0.0,0.0,0.0,0.0,0.0,0.0,0.0,0.0,0.0,0.0,0.0,0.0,0.0,0.0,0.0,0.0,0.0,0.0,0.0,7.7524,7.7607,7.7783,7.8014,7.8051,7.8165,7.8276,7.8276,7.8276,7.8276,7.8276,7.8165,7.79,7.8165,7.7957,7.745,0.0,7.7957,7.751,7.8071,7.7957,7.745,7.7747,7.757,7.7045,7.6793,7.6239,7.555,7.5262,7.5225,7.5225,7.5225,7.5225,7.5225,7.5225,7.5225,7.5225,7.5225,7.4894,7.4517,7.4018,7.3622,7.317,7.2755,7.2671,7.2671,7.2671,7.2671,7.2567,7.2119,7.1739,7.136,7.0946,7.0291,6.9808,6.9808,6.9428,6.9153,6.9153,6.9336,6.9282,6.8913,6.7892,6.699,6.6395,6.5187,6.4333,6.4024,6.4024,6.3761,6.314,6.2301,6.1556,6.0963,6.0161,5.9716,5.9716,5.9716,5.9716,5.9628,5.7559,5.6577,6.2259,6.2819,6.3228,6.2785,0.0,0.0,0.0,0.0,0.0,0.0,0.0,0.0,0.0,0.0,0.0,0.0,0.0,0.0,0.0,0.0,0.0,0.0,0.0,0.0,0.0,0.0,0.0,0.0,0.0,0.0,7.7365,7.7725,7.8014,7.8071,7.8127,7.8276,7.8276,7.8276,7.8276,7.8276,7.8165,7.79,7.7473,7.7842,7.751,7.6728,7.757,7.745,7.6793,7.757,7.745,7.6728,7.7169,7.6983,7.6469,7.6003,7.555,7.5225,7.5225,7.5225,7.5225,7.5225,7.5225,7.5225,7.5225,7.5225,7.5225,7.5225,7.4968,7.4593,7.4018,7.3702,7.3299,7.2838,7.2671,7.2671,7.2671,7.2671,7.2498,7.1877,7.1498,7.105,7.0498,6.9601,6.9015,6.9015,6.8497,6.8083,6.8083,6.8199,6.8315,6.8116,6.7033,6.6039,6.5706,6.4659,6.4085,6.4085,6.4085,6.3952,6.3551,6.249,6.171,6.1336,6.0226,5.9716,5.9716,5.9716,5.9628,5.9331,5.7465,5.648,6.2911,6.3329,6.3549,6.3513,0.0,0.0,0.0,0.0,0.0,0.0,0.0,0.0,0.0,0.0,0.0,0.0,0.0,0.0,0.0,0.0,0.0,0.0,0.0,0.0,0.0,0.0,0.0,0.0,0.0,0.0,7.6619,7.7413,7.7994,7.8276,7.8127,7.8127,7.8276,7.8276,7.8276,7.8276,7.7805,7.757,7.7473,7.7045,7.6793,7.6728,7.6793,7.6793,7.6728,7.6793,7.6793,7.6728,7.6728,7.6469,7.6003,7.5478,7.5189,7.5225,7.5225,7.5225,7.5225,7.5225,7.5225,7.5225,7.5225,7.5225,7.5225,7.5225,7.5225,7.4968,7.4096,7.3861,7.3702,7.2922,7.2671,7.2671,7.2671,7.2671,7.2671,7.2602,7.1429,7.0429,7.0394,6.9153,6.8187,6.8187,6.8152,6.8083,6.8083,6.7753,6.7652,6.7912,6.6422,6.5132,6.4276,6.4179,6.4333,6.4333,6.4333,6.43,6.4235,6.29,6.215,6.2085,6.0485,5.9716,5.9716,5.9716,5.9241,5.8303,5.7086,5.6122,6.2367,6.3005,0.0,0.0,0.0,0.0,0.0,0.0,0.0,0.0,0.0,0.0,0.0,0.0,0.0,0.0,0.0,0.0,0.0,0.0,0.0,0.0,0.0,0.0,0.0,0.0,0.0,0.0,0.0,0.0,7.6518,7.7255,7.7688,7.7805,7.8071,7.8071,7.7805,7.7805,7.7805,7.7805,7.7629,7.7169,7.657,7.6664,7.6336,7.576,7.6403,7.6336,7.5829,7.6469,7.6336,7.5796,7.5796,7.5655,7.5478,7.5262,7.5225,7.5225,7.5225,7.5225,7.5225,7.5225,7.5225,7.5225,7.5225,7.5225,7.5225,7.5225,7.5225,7.4968,7.4174,7.394,7.3702,7.2922,7.2671,7.2671,7.2671,7.2671,7.2533,7.205,7.1084,7.0222,6.9773,6.8808,6.8083,6.8083,6.8083,6.8162,6.8474,6.7604,6.7165,6.7369,6.5791,6.461,6.424,6.424,6.4426,6.4518,6.4518,6.461,6.4826,6.3146,6.2273,6.2484,6.0606,5.9716,5.9716,5.9062,5.8578,5.8211,5.6445,5.546,6.2434,6.3069,6.3489,0.0,0.0,0.0,0.0,0.0,0.0,0.0,0.0,0.0,0.0,0.0,0.0,0.0,0.0,0.0,0.0,0.0,0.0,0.0,0.0,0.0,0.0,0.0,0.0,0.0,0.0,0.0,0.0,7.6846,7.7231,7.7231,7.7629,7.7688,7.7473,7.7353,7.7231,7.7231,7.7107,7.67,7.6003,7.6172,7.5829,7.5262,7.5898,7.5829,7.5262,7.5967,7.5829,7.5225,7.5225,7.5225,7.5225,7.5225,7.5225,7.5225,7.5225,7.5225,7.5225,7.5225,7.5225,7.5225,7.5225,7.5225,7.5225,7.5225,7.5225,7.4968,7.4174,7.394,7.3702,7.2922,7.2671,7.2671,7.2671,7.2671,7.2533,7.1981,7.105,7.0222,6.9704,6.8773,6.8083,6.8083,6.8083,6.8162,6.8319,6.7441,6.6694,6.6339,6.518,6.4426,6.4333,6.4426,6.4518,6.4793,6.4885,6.4976,6.5099,6.3326,6.2362,6.2573,6.0694,5.954,5.9241,5.8578,5.7808,5.7244,5.5758,5.4666,6.337,6.3621,0.0,0.0,0.0,0.0,0.0,0.0,0.0,0.0,0.0,0.0,0.0,0.0,0.0,0.0,0.0,0.0,0.0,0.0,0.0,0.0,0.0,0.0,0.0,0.0,0.0,0.0,0.0,0.0,0.0,7.6167,7.6728,7.6728,7.6728,7.6983,7.7473,7.6983,7.6728,7.6664,7.6239,7.6003,7.6003,7.5478,7.5225,7.5225,7.5225,7.5225,7.5225,7.5225,7.5225,7.5225,7.5225,7.5225,7.5225,7.5225,7.5225,7.5225,7.5225,7.5225,7.5225,7.5225,7.5225,7.5225,7.5225,7.5225,7.5225,7.5225,7.5225,7.4968,7.4174,7.394,7.3702,7.2922,7.2671,7.2671,7.2671,7.2671,7.2671,7.2671,7.1429,7.0394,7.0394,6.9118,6.8118,6.8083,6.8083,6.7959,6.7557,6.7063,6.6268,6.4852,6.4702,6.461,6.4333,6.461,6.4793,6.5099,6.5246,6.5336,6.5099,6.3538,6.2573,6.2573,6.0694,5.9241,5.8211,5.8211,5.7117,5.5089,5.5089,5.3583,6.2398,0.0,0.0,0.0,0.0,0.0,0.0,0.0,0.0,0.0,0.0,0.0,0.0,0.0,0.0,0.0,0.0,0.0,0.0,0.0,0.0,0.0,0.0,0.0,0.0,0.0,0.0,0.0,0.0,0.0,0.0,7.5862,7.6172,7.6172,7.6534,7.6599,7.6439,7.6306,7.6172,7.6172,7.5655,7.5406,7.5406,7.5262,7.5225,7.5225,7.5225,7.5225,7.5225,7.5225,7.5225,7.5225,7.5225,7.5225,7.5225,7.5225,7.5225,7.5225,7.5225,7.5225,7.5225,7.5225,7.5225,7.5225,7.5225,7.5225,7.5225,7.5225,7.5225,7.5042,7.4517,7.4364,7.4132,7.3005,7.2671,7.2671,7.2671,7.2671,7.2671,7.2671,7.1843,7.1015,7.0463,6.9566,6.8739,6.8187,6.8319,6.8241,6.7488,6.6995,6.632,6.5099,6.5008,6.4918,6.4918,6.4918,6.5099,6.5336,6.5336,6.5336,6.5099,6.3538,6.2484,6.2362,5.9949,5.8487,5.8211,5.6735,5.5659,5.5089,5.4304,5.2914,6.2523,0.0,0.0,0.0,0.0,0.0,0.0,0.0,0.0,0.0,0.0,0.0,0.0,0.0,0.0,0.0,0.0,0.0,0.0,0.0,0.0,0.0,0.0,0.0,0.0,0.0,0.0,0.0,0.0,0.0,0.0,7.5442,7.5655,7.5655,7.5967,7.6036,7.6003,7.5796,7.5796,7.6003,7.5478,7.5225,7.5225,7.5225,7.5225,7.5225,7.5225,7.5225,7.5225,7.5225,7.5225,7.5225,7.5225,7.5225,7.5225,7.5225,7.5225,7.5225,7.5225,7.5225,7.5225,7.5225,7.5225,7.5225,7.5225,7.5225,7.5225,7.5225,7.5225,7.5116,7.4669,7.4441,7.4096,7.317,7.2922,7.2922,7.2755,7.2671,7.2671,7.2671,7.205,7.1256,7.0532,6.9773,6.9095,6.8457,6.8206,6.7935,6.7454,6.6711,6.5888,6.5189,6.5099,6.5099,6.5099,6.5099,6.5189,6.5425,6.5425,6.5246,6.4918,6.3416,6.2362,6.1757,5.937,5.7808,5.6927,5.5659,5.4887,5.4377,5.3106,5.1591,0.0,0.0,0.0,0.0,0.0,0.0,0.0,0.0,0.0,0.0,0.0,0.0,0.0,0.0,0.0,0.0,0.0,0.0,0.0,0.0,0.0,0.0,0.0,0.0,0.0,0.0,0.0,0.0,0.0,0.0,0.0,7.4968,7.5225,7.5225,7.5225,7.5406,7.5934,7.5478,7.5478,7.5934,7.5406,7.5225,7.5225,7.5225,7.5225,7.5225,7.5225,7.5225,7.5225,7.5225,7.5225,7.5225,7.5225,7.5225,7.5225,7.5225,7.5225,7.5225,7.5225,7.5225,7.5225,7.5225,7.5225,7.5225,7.5225,7.5225,7.5225,7.5225,7.5225,7.5116,7.4669,7.4252,7.3861,7.3461,7.3334,7.317,7.2755,7.2671,7.2671,7.2671,7.2084,7.136,7.0601,6.9877,6.9243,6.8844,6.7935,6.7373,6.7454,6.6235,6.5336,6.5099,6.5099,6.5099,6.5099,6.5099,6.5189,6.5425,6.5303,6.5033,6.4577,6.3269,6.2035,6.0956,5.9031,5.6988,5.5089,5.4988,5.4347,5.3203,5.1619,4.9904,0.0,0.0,0.0,0.0,0.0,0.0,0.0,0.0,0.0,0.0,0.0,0.0,0.0,0.0,0.0,0.0,0.0,0.0,0.0,0.0,0.0,0.0,0.0,0.0,0.0,0.0,0.0,0.0,0.0,0.0,7.4593,7.4968,7.5225,7.5225,7.5225,7.5262,7.5334,7.5262,7.5262,0.0,7.5262,7.5225,7.5225,7.5225,7.5225,7.5225,7.5225,7.5225,7.5225,7.5225,7.5225,7.5225,7.5225,7.5225,7.5225,7.5225,7.5225,7.5225,7.5225,7.5225,7.5225,7.5225,7.5225,7.5225,7.5225,7.5225,7.5225,7.5225,7.5225,7.5116,7.4669,7.4517,7.4364,7.3861,7.3299,7.2838,7.2755,7.2671,7.2671,7.2671,7.2533,7.2188,7.1394,7.0636,6.9911,6.9293,6.8206,6.7535,6.7822,6.6457,6.5425,6.5336,6.5336,6.5336,6.5336,6.5336,6.5336,6.5425,6.4669,6.4081,6.3735,6.2708,6.1626,6.0424,5.7839,5.5973,5.5089,5.4304,5.3001,5.1456,5.1101,4.9224,0.0,0.0,0.0,0.0,0.0,0.0,0.0,0.0,0.0,0.0,0.0,0.0,0.0,0.0,0.0,0.0,0.0,0.0,0.0,0.0,0.0,0.0,0.0,0.0,0.0,0.0,0.0,0.0,0.0,7.4096,7.4593,7.4968,7.5225,7.5225,7.5225,7.5225,7.5225,7.5225,7.5225,7.5225,7.5225,7.5225,7.5225,7.5225,7.5225,7.5225,7.5225,7.5225,7.5225,7.5225,7.5225,7.5225,7.5225,7.5225,7.5225,7.5225,7.5225,7.5225,7.5225,7.5225,7.5225,7.5225,7.5225,7.5225,7.5225,7.5225,7.5225,7.5225,7.5225,7.5116,7.4894,7.4593,7.4252,7.4252,7.3782,7.3299,7.3299,7.3299,7.3217,7.3005,7.3005,7.268,7.1719,7.0891,7.0279,6.9637,6.8492,6.7616,6.742,6.6201,6.5425,6.5425,6.5425,6.5425,6.5425,6.5425,6.5425,6.5425,6.4453,6.3673,6.3228,6.1779,6.0328,5.8938,5.7193,5.5645,5.4304,5.3232,5.2067,5.0831,4.9391,4.7564,0.0,0.0,0.0,0.0,0.0,0.0,0.0,0.0,0.0,0.0,0.0,0.0,0.0,0.0,0.0,0.0,0.0,0.0,0.0,0.0,0.0,0.0,0.0,0.0,0.0,0.0,0.0,0.0,0.0,7.4096,7.4441,7.4894,7.5225,7.5225,7.5225,7.5225,7.5225,7.5225,7.5225,7.5225,7.5225,7.5225,7.5225,7.5225,7.5225,7.5225,7.5225,7.5225,7.5225,7.5225,7.5225,7.5225,7.5225,7.5225,7.5225,7.5225,7.5225,7.5225,7.5225,7.5225,7.5225,7.5225,7.5225,7.5225,7.5225,7.5225,7.5225,7.5225,7.5225,7.5189,7.5116,7.4558,7.4096,7.4517,7.4252,7.4018,7.394,7.394,7.3782,7.338,7.3334,7.2892,7.1801,7.1081,7.0412,6.9896,6.8621,6.7501,6.6761,6.5975,6.5425,6.5425,6.5425,6.5425,6.5425,6.5425,6.5336,6.5123,6.4175,6.3292,6.2551,6.0609,5.8882,5.7139,5.6629,5.5382,5.35,5.2266,5.1225,5.0421,4.7615,4.5701,0.0,0.0,0.0,0.0,0.0,0.0,0.0,0.0,0.0,0.0,0.0,0.0,0.0,0.0,0.0,0.0,0.0,0.0,0.0,0.0,0.0,0.0,0.0,0.0,0.0,0.0,0.0,0.0,7.3461,7.394,7.4018,7.4744,7.5225,7.5225,7.5225,7.5225,7.5225,7.5225,7.5225,7.5225,7.5225,7.5225,7.5225,7.5225,7.5225,7.5225,7.5225,7.5225,7.5225,7.5225,7.5225,7.5225,7.5225,7.5225,7.5225,7.5225,7.5225,7.5225,7.5225,7.5225,7.5225,7.5225,7.5225,7.5225,7.5225,7.5225,7.5225,7.5225,7.5225,7.5116,7.4744,7.4593,7.4517,7.4593,7.4517,7.4441,7.4018,7.394,7.3782,7.338,7.3334,7.309,7.2209,7.142,7.0663,6.9888,6.8143,6.6844,6.6677,6.5975,6.5425,6.5425,6.5425,6.5425,6.5425,6.5425,6.5033,6.4175,6.3068,6.1859,6.0298,5.9332,5.7823,5.5742,5.584,5.5089,5.35,5.2052,5.0472,4.8572,4.6671,4.4326,0.0,0.0,0.0,0.0,0.0,0.0,0.0,0.0,0.0,0.0,0.0,0.0,0.0,0.0,0.0,0.0,0.0,0.0,0.0,0.0,0.0,0.0,0.0,0.0,0.0,0.0,0.0,0.0,7.3702,7.4096,7.4558,7.4968,7.5225,7.5225,7.5225,7.5225,7.5225,7.5225,7.5225,7.5225,7.5225,7.5225,7.5225,7.5225,7.5225,7.5225,7.5225,7.5225,7.5225,7.5225,7.5225,7.5225,7.5225,7.5225,7.5225,7.5225,7.5225,7.5225,7.5225,7.5225,7.5225,7.5225,7.5225,7.5225,7.5225,7.5225,7.5225,7.5225,7.5225,7.5151,7.4968,7.4744,7.4669,7.4894,7.4744,7.4593,7.4633,7.4633,7.4482,7.4132,7.3622,7.3195,7.2812,7.2081,7.1076,6.955,6.8216,6.7015,6.6095,6.5658,6.5425,6.5425,6.5425,6.5425,6.5425,6.5425,6.4943,6.3988,6.2875,6.1558,5.9879,5.8931,5.7496,5.5445,5.585,5.4788,5.2215,5.0916,4.9171,4.6999,4.533,4.3325,0.0,0.0,0.0,0.0,0.0,0.0,0.0,0.0,0.0,0.0,0.0,0.0,0.0,0.0,0.0,0.0,0.0,0.0,0.0,0.0,0.0,0.0,0.0,0.0,0.0,0.0,0.0,0.0,7.3861,7.4252,7.4968,7.5116,7.5225,7.5225,7.5225,7.5225,7.5225,7.5225,7.5225,7.5225,7.5225,7.5225,7.5225,7.5225,7.5225,7.5225,7.5225,7.5225,7.5225,7.5225,7.5225,7.5225,7.5225,7.5225,7.5225,7.5225,7.5225,7.5225,7.5225,7.5225,7.5225,7.5225,7.5225,7.5225,7.5225,7.5225,7.5225,7.5225,7.5225,7.5225,7.5042,7.4894,7.4819,7.4968,7.4894,7.4819,7.5151,7.5116,7.4894,7.4517,7.394,7.3542,7.3148,7.2406,7.1201,6.9304,6.8128,6.6987,6.5581,6.5425,6.5425,6.5425,6.5425,6.5425,6.5425,6.5425,6.4819,6.3578,6.268,6.1356,5.9485,5.8605,5.7276,5.5554,5.5567,5.4178,5.1152,4.9718,4.7918,4.5888,4.3953,4.2176,0.0,0.0,0.0,0.0,0.0,0.0,0.0,0.0,0.0,0.0,0.0,0.0,0.0,0.0,0.0,0.0,0.0,0.0,0.0,0.0,0.0,0.0,0.0,0.0,0.0,0.0,0.0,0.0,7.3702,7.4096,7.4593,7.4968,7.5225,7.5225,7.5225,7.5225,7.5225,7.5225,7.5225,7.5225,7.5225,7.5225,7.5225,7.5225,7.5225,7.5225,7.5225,7.5225,7.5225,7.5225,7.5225,7.5225,7.5225,7.5225,7.5225,7.5225,7.5225,7.5225,7.5225,7.5225,7.5225,7.5225,7.5225,7.5225,7.5225,7.5225,7.5225,7.5225,7.5225,7.5116,7.4744,7.4894,7.5042,7.4669,7.4894,7.5189,7.5225,7.4894,7.4517,7.4018,7.4252,7.4096,7.2853,7.1995,7.0869,6.9218,6.7636,6.6254,6.5525,6.5425,6.5425,6.5425,6.5425,6.5425,6.5425,6.5425,6.4545,6.2453,6.2058,6.0712,5.8415,5.8003,5.7166,5.585,5.4454,5.2858,5.0938,4.8545,4.6747,4.5506,4.2598,4.0524,0.0,0.0,0.0,0.0,0.0,0.0,0.0,0.0,0.0,0.0,0.0,0.0,0.0,0.0,0.0,0.0,0.0,0.0,0.0,0.0,0.0,0.0,0.0,0.0,0.0,0.0,0.0,0.0,0.0,7.4096,7.4593,7.4968,7.5225,7.5225,7.5225,7.5225,7.5225,7.5225,7.5225,7.5225,7.5225,7.5225,7.5225,7.5225,7.5225,7.5225,7.5225,7.5225,7.5225,7.5225,7.5225,7.5225,7.5225,7.5225,7.5225,7.5225,7.5225,7.5225,7.5225,7.5225,7.5225,7.5225,7.5225,7.5225,7.5225,7.5225,7.5225,7.5225,7.5225,7.5151,7.5042,7.5042,7.5116,7.5042,7.5151,7.5116,7.4894,7.4517,7.4252,7.4633,7.4405,7.3826,7.27,7.2291,7.1165,6.8562,6.7563,6.6784,6.5591,6.5425,6.5425,6.5425,6.5425,6.5425,6.5425,6.4852,6.3862,6.2355,6.1558,6.0359,5.8555,5.8225,5.6961,5.4483,5.2992,5.1404,4.976,4.7731,4.548,4.2937,4.1745,4.0036,0.0,0.0,0.0,0.0,0.0,0.0,0.0,0.0,0.0,0.0,0.0,0.0,0.0,0.0,0.0,0.0,0.0,0.0,0.0,0.0,0.0,0.0,0.0,0.0,0.0,0.0,0.0,0.0,0.0,0.0,7.4744,7.5042,7.5225,7.5225,7.5225,7.5225,7.5225,7.5225,7.5225,7.5225,7.5225,7.5225,7.5225,7.5225,7.5225,7.5225,7.5225,7.5225,7.5225,7.5225,7.5225,7.5225,7.5225,7.5225,7.5225,7.5225,7.5225,7.5225,7.5225,7.5225,7.5225,7.5225,7.5225,7.5225,7.5225,7.5225,7.5225,7.5225,7.5225,7.5151,7.5042,7.4968,7.5042,7.5151,7.5116,7.4968,7.4819,7.4593,7.4405,7.4709,7.4293,7.3552,7.2498,7.2159,7.1076,6.8086,6.7612,6.7082,6.5591,6.5425,6.5425,6.5425,6.5425,6.5213,6.4943,6.4268,6.3292,6.1891,6.0846,5.9864,5.8555,5.7517,5.5921,5.3703,5.1432,4.9552,4.8242,4.6104,4.3838,4.1305,4.0245,3.8484,0.0,0.0,0.0,0.0,0.0,0.0,6.7941,0.0,6.8274,0.0,0.0,0.0,0.0,0.0,0.0,0.0,0.0,0.0,0.0,0.0,0.0,0.0,0.0,0.0,0.0,0.0,0.0,0.0,7.3905,7.4252,7.5116,7.5189,7.5225,7.5225,7.5225,7.5225,7.5225,7.5225,7.5225,7.5225,7.5225,7.5225,7.5225,7.5225,7.5225,7.5225,7.5225,7.5225,7.5225,7.5225,7.5225,7.5225,7.5225,7.5225,7.5225,7.5225,7.5225,7.5225,7.5225,7.5225,7.5225,7.5225,7.5225,7.5225,7.5225,7.5225,7.5225,7.5225,7.5225,7.5116,7.4744,7.4593,7.4669,7.5116,7.4894,7.4669,7.5042,7.5189,7.4968,7.4096,7.3869,7.3402,7.2108,7.1532,7.0344,6.7936,6.7612,6.7082,6.5591,6.5425,6.5425,6.5425,6.5425,6.5033,6.3988,6.3894,6.3004,6.0774,6.0119,5.9302,5.8305,5.585,5.4346,5.3675,4.9826,4.7304,4.6328,4.3664,4.1953,4.0985,3.8365,3.5971,6.7687,0.0,0.0,0.0,0.0,0.0,6.8686,6.921,6.9543,0.0,0.0,0.0,0.0,0.0,0.0,0.0,0.0,0.0,0.0,0.0,0.0,0.0,0.0,0.0,0.0,0.0,0.0,0.0,7.3782,7.4174,7.4744,7.5042,7.5225,7.5225,7.5225,7.5225,7.5225,7.5225,7.5225,7.5225,7.5225,7.5225,7.5225,7.5225,7.5225,7.5225,7.5225,7.5225,7.5225,7.5225,7.5225,7.5225,7.5225,7.5225,7.5225,7.5225,7.5225,7.5225,7.5225,7.5225,7.5225,7.5225,7.5225,7.5225,7.5225,7.5225,7.5225,7.5225,7.5225,7.5189,7.5042,7.5042,7.5042,7.5189,7.4894,7.4517,7.4329,7.4517,7.4744,7.4819,7.4026,7.3195,7.2414,7.1674,7.0344,6.7936,6.7612,6.7082,6.5591,6.5425,6.5425,6.5425,6.5425,6.5033,6.3988,6.3196,6.2189,6.0805,5.9683,5.8961,5.8882,5.6272,5.4007,5.2174,4.905,4.5969,4.2837,4.207,4.1105,3.9686,3.6338,3.3757,0.0,0.0,0.0,0.0,0.0,0.0,6.9309,6.9629,6.9842,0.0,6.9921,6.9601,6.9153,6.9187,6.9532,7.0256,7.0739,7.1429,7.2533,0.0,0.0,0.0,0.0,0.0,0.0,7.2671,7.2922,7.3542,7.3782,7.4174,7.4819,7.5042,7.5225,7.5225,7.5225,7.5225,7.5225,7.5225,7.5225,7.5225,7.5225,7.5225,7.5225,7.5225,7.5225,7.5225,7.5225,7.5225,7.5225,7.5225,7.5225,7.5225,7.5225,7.5225,7.5225,7.5225,7.5225,7.5225,7.5225,7.5225,7.5225,7.5225,7.5225,7.5225,7.5225,7.5225,7.5225,7.5225,7.5225,7.5225,7.5225,7.5225,7.5225,7.5225,7.4744,7.4174,7.3791,7.3747,7.394,7.4558,7.3712,7.2832,7.2582,7.141,6.9921,6.7936,6.7612,6.7082,6.5591,6.5425,6.5425,6.5425,6.5425,6.4819,6.3388,6.268,6.169,6.0106,5.9069,5.8187,5.7673,5.5196,5.26,4.9967,4.71,4.3689,3.9756,4.0245,3.9311,3.6924,3.4363,3.211,0.0,0.0,0.0,0.0,0.0,0.0,6.9806,6.9654,6.9599,7.1185,7.0961,7.051,7.0441,6.9807,6.9599,7.0361,7.0419,7.0856,7.2326,7.2602,7.2671,7.2671,7.2671,0.0,7.2671,7.2671,7.3005,7.3782,7.394,7.4329,7.5151,7.5225,7.5225,7.5225,7.5225,7.5225,7.5225,7.5225,7.5225,7.5225,7.5225,7.5225,7.5225,7.5225,7.5225,7.5225,7.5225,7.5225,7.5225,7.5225,7.5225,7.5225,7.5225,7.5225,7.5225,7.5225,7.5225,7.5225,7.5225,7.5225,7.5225,7.5225,7.5225,7.5225,7.5225,7.5225,7.5225,7.5225,7.5225,7.5225,7.5225,7.5225,7.5189,7.5116,7.4482,7.3747,7.3437,7.2866,7.2769,7.3507,7.2949,7.2329,7.2329,7.0963,6.9301,6.7844,6.7612,6.7082,6.5591,6.5425,6.5425,6.5425,6.5336,6.4453,6.2485,6.2157,6.1286,5.9207,5.8466,5.7371,5.5619,5.3354,5.0797,4.7687,4.4294,4.0808,3.7166,3.8246,3.7045,3.367,3.2492,3.0789,0.0,0.0,0.0,0.0,0.0,0.0,6.9733,6.9987,7.0174,7.1237,7.1337,7.1054,7.0452,7.0097,7.0202,7.0908,7.0529,7.0506,7.1581,7.2291,7.2671,7.2671,7.2671,7.2671,7.2671,7.2671,7.2922,7.338,7.4053,7.4669,7.5189,7.5225,7.5225,7.5225,7.5225,7.5225,7.5225,7.5225,7.5225,7.5225,7.5225,7.5225,7.5225,7.5225,7.5225,7.5225,7.5225,7.5225,7.5225,7.5225,7.5225,7.5225,7.5225,7.5225,7.5225,7.5225,7.5225,7.5225,7.5225,7.5225,7.5225,7.5225,7.5225,7.5225,7.5225,7.5225,7.5225,7.5225,7.5225,7.5225,7.5225,7.5225,7.5151,7.4744,7.3869,7.2996,7.2818,7.2193,7.1848,7.2228,7.1883,7.1444,7.1444,7.0574,6.9301,6.7844,6.7612,6.7082,6.5591,6.5425,6.5425,6.5425,6.4669,6.3673,6.2386,6.1489,6.039,5.8882,5.8189,5.7151,5.5619,5.2909,4.9852,4.6412,4.1141,3.7703,3.6051,3.6295,3.5191,3.2638,3.0384,2.8689,0.0,0.0,0.0,6.7687,0.0,0.0,0.0,7.012,7.0473,7.1734,7.2042,7.1907,7.1479,7.1123,7.0911,7.1302,7.0764,7.0523,7.1336,7.1896,7.2084,7.2084,7.2429,7.2671,7.2671,7.2671,7.2838,7.3252,7.4132,7.4669,7.4894,7.5042,7.5225,7.5225,7.5225,7.5225,7.5225,7.5225,7.5225,7.5225,7.5225,7.5225,7.5225,7.5225,7.5225,7.5225,7.5225,7.5225,7.5225,7.5225,7.5225,7.5225,7.5225,7.5225,7.5225,7.5225,7.5225,7.5225,7.5225,7.5225,7.5225,7.5225,7.5225,7.5225,7.5225,7.5225,7.5225,7.5225,7.5225,7.5225,7.5225,7.5225,7.5116,7.4669,7.3712,7.2631,7.2193,7.141,7.0815,7.0632,7.0574,7.0666,7.112,7.0389,6.9301,6.7844,6.7612,6.7082,6.5591,6.5425,6.5213,6.4761,6.4175,6.3292,6.169,6.0877,5.9818,5.8297,5.7071,5.5444,5.3529,5.0783,4.7298,4.2808,3.919,3.6438,3.486,3.3658,3.2143,3.0513,2.9327,2.7354,0.0,0.0,0.0,0.0,0.0,6.8568,0.0,0.0,0.0,0.0,0.0,0.0,0.0,0.0,0.0,0.0,0.0,0.0,0.0,7.1493,0.0,7.1677,7.2195,7.2513,7.268,7.2818,7.297,7.338,7.4096,7.4517,7.4593,7.4894,7.5116,7.5225,7.5225,7.5225,7.5225,7.5225,7.5225,7.5225,7.5225,7.5225,7.5225,7.5225,7.5225,7.5225,7.5225,7.5225,7.5225,7.5225,7.5225,7.5225,7.5225,7.5225,7.5225,7.5225,7.5225,7.5225,7.5225,7.5225,7.5225,7.5225,7.5225,7.5225,7.5225,7.5225,7.5225,7.5225,7.5225,7.5225,7.5225,7.5116,7.4968,7.4669,7.3517,7.2379,7.1727,7.0724,6.986,6.9574,6.9703,7.0049,7.0757,7.033,6.9301,6.7844,6.7612,6.7082,6.5591,6.5213,6.4852,6.3988,6.3516,6.2583,6.0774,6.0163,5.9017,5.7331,5.5584,5.35,5.1026,4.7895,4.3964,3.925,3.7544,3.5602,3.367,3.1139,2.944,2.8673,2.7867,2.5874,0.0,0.0,0.0,0.0,6.9816,0.0,0.0,0.0,0.0,7.2299,0.0,0.0,0.0,0.0,0.0,0.0,0.0,0.0,7.1182,7.1401,7.1766,7.2441,7.1971,7.1931,7.2503,7.3168,7.3622,7.3861,7.4061,7.4329,7.4593,7.4593,7.4819,7.5189,7.5225,7.5225,7.5225,7.5225,7.5225,7.5225,7.5225,7.5225,7.5225,7.5225,7.5225,7.5225,7.5225,7.5225,7.5225,7.5225,7.5225,7.5225,7.5225,7.5225,7.5225,7.5225,7.5225,7.5225,7.5225,7.5225,7.5225,7.5225,7.5225,7.5225,7.5225,7.5225,7.5225,7.5225,7.5225,7.5225,7.5225,7.4894,7.4669,7.4593,7.3113,7.164,7.1848,7.0632,6.9478,6.9703,6.9798,6.9798,6.9955,6.9893,6.9301,6.7844,6.7612,6.7082,6.5591,6.4669,6.3988,6.3894,6.2189,6.0877,6.039,5.8927,5.7252,5.5366,5.4309,5.238,4.9429,4.4328,4.0747,3.8854,3.5832,3.3776,3.2511,3.0125,2.8804,2.8673,2.5084,2.3215,0.0,0.0,0.0,0.0,0.0,0.0,0.0,0.0,7.1541,0.0,0.0,0.0,0.0,0.0,0.0,0.0,7.1769,0.0,0.0,0.0,7.1121,0.0,0.0,0.0,7.2982,7.3053,7.3217,7.3542,7.3622,7.3861,7.4174,7.4441,7.4744,7.5225,7.5225,7.5225,7.5225,7.5225,7.5225,7.5225,7.5225,7.5225,7.5225,7.5225,7.5225,7.5225,7.5225,7.5225,7.5225,7.5225,7.5225,7.5225,7.5225,7.5225,7.5225,7.5225,7.5225,7.5225,7.5225,7.5225,7.5225,7.5225,7.5225,7.5225,7.5225,7.5225,7.5225,7.5225,7.5225,7.5225,7.5225,7.5042,7.4744,7.3983,7.2749,7.1727,7.1176,7.0203,6.9478,6.9798,6.9798,6.9666,6.9235,6.9136,6.8804,6.7777,6.7281,6.6585,6.5558,6.4545,6.3705,6.3068,6.1589,6.0206,5.8927,5.7311,5.5748,5.3976,5.0976,4.7925,4.5233,4.1576,3.8728,3.685,3.4845,3.2746,3.0254,2.8393,2.6659,2.5219,2.3624,2.1859,7.1342,0.0,0.0,0.0,0.0,0.0,0.0,0.0,0.0,0.0,0.0,0.0,0.0,0.0,0.0,0.0,0.0,7.1891,0.0,7.1609,0.0,0.0,0.0,0.0,0.0,7.3019,7.3032,7.3308,7.3357,7.3461,7.3702,7.4174,7.4593,7.5042,7.5116,7.5225,7.5225,7.5225,7.5225,7.5225,7.5225,7.5225,7.5225,7.5225,7.5225,7.5225,7.5225,7.5225,7.5225,7.5225,7.5225,7.5225,7.5225,7.5225,7.5225,7.5225,7.5225,7.5225,7.5225,7.5225,7.5225,7.5225,7.5225,7.5225,7.5225,7.5225,7.5225,7.5225,7.5225,7.5225,7.5225,7.5151,7.4709,7.3597,7.2666,7.1814,7.0849,7.0049,6.9607,6.9798,6.9798,6.9566,6.8804,6.8672,6.8374,6.7446,6.685,6.6163,6.5132,6.4049,6.3068,6.199,6.0877,5.9516,5.7713,5.6032,5.412,5.185,4.7847,4.4523,4.2328,3.9737,3.7467,3.5321,3.3848,3.1579,2.8673,2.6941,2.4949,2.2819,2.1996,2.0479,0.0,0.0,0.0,7.3275,0.0,0.0,0.0,0.0,7.2761,0.0,0.0,0.0,0.0,0.0,0.0,0.0,0.0,0.0,0.0,0.0,7.2438,0.0,0.0,0.0,0.0,7.3333,7.3467,7.3315,7.3483,7.3542,7.3334,7.3702,7.4174,7.4593,7.4968,7.5225,7.5225,7.5225,7.5225,7.5225,7.5225,7.5225,7.5225,7.5225,7.5225,7.5225,7.5225,7.5225,7.5225,7.5225,7.5225,7.5225,7.5225,7.5225,7.5225,7.5225,7.5225,7.5225,7.5225,7.5225,7.5225,7.5225,7.5225,7.5225,7.5225,7.5225,7.5225,7.5225,7.5225,7.5225,7.5225,7.4894,7.4517,7.3913,7.2832,7.1796,7.1266,7.0423,6.9798,6.9798,6.9798,6.9566,6.8804,6.8672,6.8208,6.6784,6.6552,6.5857,6.4179,6.2972,6.199,6.0877,5.9576,5.8426,5.734,5.5406,5.2434,4.8521,4.5814,4.3731,4.2201,3.9082,3.6701,3.5321,3.2412,3.0178,2.8673,2.6188,2.4317,2.2682,1.9924,1.8552,0.0,0.0,7.3578,7.3527,0.0,0.0,0.0,0.0,0.0,0.0,0.0,0.0,0.0,0.0,0.0,0.0,0.0,0.0,0.0,7.238,7.2358,0.0,0.0,0.0,0.0,0.0,7.2941,7.3279,7.3088,7.3053,7.3334,7.3702,7.4096,7.4593,7.4968,7.5225,7.5225,7.5225,7.5225,7.5225,7.5225,7.5225,7.5225,7.5225,7.5225,7.5225,7.5225,7.5225,7.5225,7.5225,7.5225,7.5225,7.5225,7.5225,7.5225,7.5225,7.5225,7.5225,7.5225,7.5225,7.5225,7.5225,7.5225,7.5225,7.5225,7.5225,7.5225,7.5225,7.5225,7.5042,7.4411,7.4181,7.3756,7.2414,7.1761,7.1176,7.0389,7.0049,6.9798,6.9798,6.9401,6.8837,6.8109,6.7579,6.7082,6.6585,6.5542,6.4561,6.3926,6.2386,6.1082,6.0701,5.8375,5.6456,5.5487,5.2182,4.8784,4.5839,4.3955,4.1924,3.9866,3.7307,3.504,3.3217,3.068,2.8427,2.6188,2.4438,2.2258,1.9785,1.7819,1.6846,7.4573,7.4523,0.0,7.4523,7.4472,0.0,7.3922,0.0,0.0,0.0,0.0,0.0,0.0,0.0,0.0,7.261,7.2496,7.2496,0.0,7.238,0.0,0.0,0.0,0.0,0.0,7.2438,7.2537,7.267,7.2634,7.2776,7.3053,7.3622,7.4018,7.4364,7.4894,7.5225,7.5225,7.5225,7.5225,7.5225,7.5225,7.5225,7.5225,7.5225,7.5225,7.5225,7.5225,7.5225,7.5225,7.5225,7.5225,7.5225,7.5225,7.5225,7.5225,7.5225,7.5225,7.5225,7.5225,7.5225,7.5225,7.5225,7.5225,7.5225,7.5225,7.5225,7.526,7.5546,7.5439,7.5004,7.4421,7.401,7.3402,7.1586,7.121,7.094,6.9955,6.9798,6.9798,6.9798,6.9202,6.8473,6.7744,6.7016,6.6329,6.5699,6.4593,6.3514,6.2556,6.1433,6.0413,5.9509,5.7222,5.4882,5.2769,4.9382,4.6509,4.4374,4.2477,4.0666,3.8687,3.6153,3.3671,3.152,2.9277,2.6902,2.4365,2.3283,2.1308,1.8412,1.6836,1.5849]},{"header":{"parameterUnit":"m.s-1","parameterCategory":1,"la1":30.6,"la2":29.2853,"lo1":-89.7004,"lo2":-87.6739,"dy":0.0162,"dx":0.0183,"nx":112,"ny":82,"refTime":"2023-11-18T18:00:00:Z","depth":0,"parameterNumber":3,"parameterNumberName":"V-component_of_WINDS"},"data":[0.0,0.0,0.0,0.0,0.0,0.0,0.0,0.0,0.0,0.0,0.0,0.0,0.0,0.0,0.0,0.0,0.0,0.0,0.0,0.0,0.0,0.0,0.0,0.0,0.0,0.0,0.0,0.0,0.0,0.0,0.0,0.0,0.0,0.0,0.0,0.0,0.0,0.0,0.0,0.0,0.0,0.0,0.0,0.0,0.0,0.0,0.0,0.0,0.0,0.0,0.0,0.0,0.0,0.0,0.0,0.0,0.0,0.0,0.0,0.0,0.0,0.0,0.0,0.0,0.0,0.0,0.0,0.0,0.0,0.0,0.0,0.0,0.0,0.0,0.0,0.0,0.0,0.0,0.0,0.0,0.0,0.0,0.0,0.0,0.0,0.0,0.0,0.0,0.0,0.0,0.0,-2.0798,-2.1244,-2.1978,-2.2952,-2.337,-2.343,-2.3392,0.0,0.0,0.0,0.0,0.0,0.0,0.0,0.0,0.0,0.0,0.0,0.0,0.0,0.0,0.0,0.0,0.0,0.0,0.0,0.0,0.0,0.0,0.0,0.0,0.0,0.0,0.0,0.0,0.0,0.0,0.0,0.0,0.0,0.0,0.0,0.0,0.0,0.0,0.0,0.0,0.0,0.0,0.0,0.0,0.0,0.0,0.0,0.0,0.0,0.0,0.0,0.0,0.0,0.0,0.0,0.0,0.0,0.0,0.0,0.0,0.0,0.0,0.0,0.0,0.0,0.0,0.0,0.0,0.0,0.0,0.0,0.0,0.0,0.0,0.0,0.0,0.0,0.0,0.0,0.0,0.0,0.0,0.0,0.0,0.0,0.0,0.0,0.0,0.0,0.0,0.0,0.0,0.0,0.0,0.0,0.0,0.0,0.0,0.0,0.0,0.0,0.0,0.0,0.0,-2.1491,-2.141,-2.1254,-2.1727,-2.2952,-2.4454,-2.477,-2.3521,0.0,0.0,0.0,0.0,0.0,0.0,0.0,0.0,0.0,0.0,0.0,0.0,0.0,0.0,0.0,0.0,0.0,0.0,0.0,0.0,0.0,0.0,0.0,0.0,0.0,0.0,0.0,0.0,0.0,0.0,0.0,0.0,0.0,0.0,0.0,0.0,0.0,0.0,0.0,0.0,0.0,0.0,0.0,0.0,0.0,0.0,0.0,0.0,0.0,0.0,0.0,0.0,0.0,0.0,0.0,0.0,0.0,0.0,0.0,0.0,0.0,0.0,0.0,0.0,0.0,0.0,0.0,0.0,0.0,0.0,0.0,0.0,0.0,0.0,0.0,0.0,0.0,0.0,0.0,0.0,0.0,0.0,0.0,0.0,0.0,0.0,0.0,0.0,0.0,0.0,0.0,0.0,0.0,0.0,0.0,0.0,0.0,0.0,0.0,0.0,0.0,0.0,0.0,-2.0892,-2.1115,-2.1532,-2.1362,-2.1601,-2.2952,-2.4456,-2.4948,-2.404,-2.462,0.0,0.0,0.0,0.0,0.0,0.0,0.0,0.0,0.0,0.0,0.0,0.0,0.0,0.0,0.0,0.0,0.0,0.0,0.0,0.0,0.0,0.0,0.0,0.0,0.0,0.0,0.0,0.0,0.0,0.0,0.0,0.0,0.0,0.0,0.0,0.0,0.0,0.0,0.0,0.0,0.0,0.0,0.0,0.0,0.0,0.0,0.0,0.0,0.0,0.0,0.0,0.0,0.0,0.0,0.0,0.0,0.0,0.0,0.0,0.0,0.0,0.0,0.0,0.0,0.0,0.0,0.0,0.0,0.0,0.0,0.0,0.0,0.0,0.0,0.0,0.0,0.0,0.0,0.0,0.0,0.0,0.0,0.0,0.0,0.0,0.0,0.0,0.0,0.0,0.0,0.0,0.0,0.0,0.0,0.0,0.0,0.0,0.0,0.0,0.0,0.0,0.0,-2.0732,-2.0727,-2.1407,-2.1475,-2.1964,-2.2952,-2.4564,-2.5092,-2.4384,-2.5457,0.0,0.0,0.0,0.0,0.0,0.0,0.0,0.0,0.0,0.0,0.0,0.0,0.0,0.0,0.0,0.0,0.0,0.0,0.0,0.0,0.0,0.0,0.0,0.0,0.0,0.0,0.0,0.0,0.0,0.0,0.0,0.0,0.0,0.0,0.0,0.0,0.0,0.0,0.0,0.0,0.0,0.0,0.0,0.0,0.0,0.0,0.0,0.0,0.0,0.0,0.0,0.0,0.0,0.0,0.0,0.0,0.0,0.0,0.0,0.0,0.0,0.0,0.0,0.0,0.0,0.0,0.0,0.0,0.0,0.0,0.0,0.0,0.0,0.0,0.0,0.0,0.0,0.0,0.0,0.0,0.0,0.0,0.0,0.0,0.0,0.0,0.0,0.0,0.0,0.0,0.0,0.0,0.0,0.0,0.0,0.0,0.0,0.0,0.0,0.0,0.0,0.0,-2.1163,-2.142,-2.1096,-2.2215,-2.2952,-2.3076,-2.5407,-2.6049,-2.4023,-2.523,0.0,0.0,0.0,0.0,0.0,0.0,0.0,0.0,0.0,0.0,0.0,0.0,0.0,0.0,0.0,0.0,0.0,0.0,0.0,0.0,0.0,0.0,0.0,0.0,0.0,0.0,0.0,0.0,0.0,0.0,0.0,0.0,0.0,0.0,0.0,0.0,0.0,0.0,0.0,0.0,0.0,0.0,0.0,0.0,0.0,0.0,0.0,0.0,0.0,0.0,0.0,0.0,0.0,0.0,0.0,0.0,0.0,0.0,0.0,0.0,0.0,0.0,0.0,0.0,0.0,0.0,0.0,0.0,0.0,0.0,0.0,0.0,0.0,0.0,0.0,0.0,0.0,0.0,0.0,0.0,0.0,0.0,0.0,0.0,0.0,0.0,0.0,0.0,0.0,0.0,0.0,0.0,0.0,0.0,0.0,0.0,0.0,0.0,0.0,0.0,0.0,0.0,-2.1658,-2.1713,0.0,-2.2291,-2.2793,-2.3676,-2.5125,-2.5652,-2.4687,0.0,0.0,0.0,0.0,0.0,0.0,0.0,0.0,0.0,0.0,0.0,0.0,0.0,0.0,0.0,0.0,0.0,0.0,0.0,0.0,0.0,0.0,0.0,0.0,0.0,0.0,0.0,0.0,0.0,0.0,0.0,0.0,0.0,0.0,0.0,0.0,0.0,0.0,0.0,0.0,0.0,0.0,0.0,0.0,0.0,0.0,0.0,0.0,0.0,0.0,0.0,0.0,0.0,0.0,0.0,0.0,0.0,0.0,0.0,0.0,0.0,0.0,0.0,0.0,0.0,0.0,0.0,0.0,0.0,0.0,0.0,0.0,0.0,0.0,0.0,0.0,0.0,0.0,0.0,0.0,0.0,0.0,0.0,0.0,0.0,0.0,0.0,0.0,0.0,0.0,0.0,0.0,0.0,0.0,0.0,0.0,0.0,0.0,0.0,0.0,0.0,0.0,-2.1642,-2.1778,-2.2024,0.0,-2.2504,-2.3028,-2.3927,-2.5501,-2.5902,-2.4972,0.0,0.0,0.0,0.0,0.0,0.0,0.0,0.0,0.0,0.0,0.0,0.0,0.0,0.0,0.0,0.0,0.0,0.0,0.0,0.0,0.0,0.0,0.0,0.0,0.0,0.0,0.0,0.0,0.0,0.0,0.0,0.0,0.0,0.0,0.0,0.0,0.0,0.0,0.0,0.0,0.0,0.0,0.0,0.0,0.0,0.0,0.0,0.0,0.0,0.0,0.0,0.0,0.0,0.0,0.0,0.0,0.0,0.0,0.0,0.0,0.0,0.0,0.0,0.0,0.0,0.0,0.0,0.0,0.0,0.0,0.0,0.0,0.0,0.0,0.0,0.0,0.0,0.0,0.0,0.0,0.0,0.0,0.0,0.0,0.0,0.0,0.0,0.0,0.0,0.0,0.0,0.0,0.0,0.0,0.0,0.0,0.0,0.0,0.0,0.0,0.0,0.0,-2.0805,-2.17,-2.2386,-2.1991,-2.3173,-2.4071,-2.4086,-2.6487,-2.7052,0.0,0.0,0.0,0.0,0.0,0.0,0.0,0.0,0.0,0.0,0.0,0.0,0.0,0.0,0.0,0.0,0.0,0.0,0.0,0.0,0.0,0.0,0.0,0.0,0.0,0.0,0.0,0.0,0.0,0.0,0.0,0.0,0.0,0.0,0.0,0.0,0.0,0.0,0.0,0.0,0.0,0.0,0.0,0.0,0.0,0.0,0.0,0.0,0.0,0.0,0.0,0.0,0.0,0.0,0.0,0.0,0.0,0.0,0.0,0.0,0.0,0.0,0.0,0.0,0.0,0.0,0.0,0.0,0.0,0.0,0.0,0.0,0.0,0.0,0.0,0.0,0.0,0.0,0.0,0.0,0.0,0.0,0.0,0.0,0.0,0.0,0.0,0.0,0.0,0.0,0.0,0.0,0.0,0.0,0.0,0.0,0.0,0.0,0.0,0.0,0.0,0.0,0.0,-2.1352,-2.2449,-2.3011,-2.2605,-2.3941,-2.5115,-2.616,-2.7652,-2.794,-2.647,0.0,0.0,0.0,0.0,0.0,0.0,0.0,0.0,0.0,0.0,0.0,0.0,0.0,0.0,0.0,0.0,0.0,0.0,0.0,0.0,0.0,0.0,0.0,0.0,0.0,0.0,0.0,0.0,0.0,0.0,0.0,0.0,0.0,0.0,0.0,0.0,0.0,0.0,0.0,0.0,0.0,0.0,0.0,0.0,0.0,0.0,0.0,0.0,0.0,0.0,0.0,0.0,0.0,0.0,0.0,0.0,0.0,0.0,0.0,0.0,0.0,0.0,0.0,0.0,0.0,0.0,0.0,0.0,0.0,0.0,0.0,0.0,0.0,0.0,0.0,0.0,0.0,0.0,0.0,0.0,0.0,0.0,0.0,0.0,0.0,0.0,0.0,0.0,0.0,0.0,0.0,0.0,0.0,0.0,0.0,0.0,0.0,0.0,0.0,0.0,0.0,0.0,-2.1665,-2.2603,-2.3133,-2.2859,-2.3665,-2.4467,-2.5383,-2.7062,-2.7615,-2.6421,0.0,0.0,0.0,0.0,0.0,0.0,0.0,0.0,0.0,0.0,0.0,0.0,0.0,0.0,0.0,0.0,0.0,0.0,0.0,0.0,0.0,0.0,0.0,0.0,0.0,0.0,0.0,0.0,0.0,0.0,0.0,0.0,0.0,0.0,0.0,0.0,0.0,0.0,0.0,0.0,0.0,0.0,0.0,0.0,0.0,0.0,0.0,0.0,0.0,0.0,0.0,0.0,0.0,0.0,0.0,0.0,0.0,0.0,0.0,0.0,0.0,0.0,0.0,0.0,0.0,0.0,0.0,0.0,0.0,0.0,0.0,0.0,0.0,0.0,0.0,0.0,0.0,0.0,0.0,0.0,0.0,0.0,0.0,0.0,0.0,0.0,0.0,0.0,0.0,0.0,0.0,0.0,0.0,0.0,0.0,0.0,0.0,0.0,0.0,0.0,0.0,0.0,-2.155,-2.2459,-2.2859,-2.2859,-2.3133,-2.327,-2.3133,-2.5786,-2.6819,-2.5252,0.0,0.0,0.0,0.0,0.0,0.0,0.0,0.0,0.0,0.0,0.0,0.0,0.0,0.0,0.0,0.0,0.0,0.0,0.0,0.0,0.0,0.0,0.0,0.0,0.0,0.0,0.0,0.0,0.0,0.0,0.0,0.0,0.0,0.0,0.0,0.0,0.0,0.0,0.0,0.0,0.0,0.0,0.0,0.0,0.0,0.0,0.0,0.0,0.0,0.0,0.0,0.0,0.0,0.0,0.0,0.0,0.0,0.0,0.0,0.0,-1.9635,0.0,0.0,0.0,0.0,0.0,0.0,0.0,0.0,0.0,0.0,0.0,0.0,0.0,0.0,0.0,0.0,0.0,0.0,0.0,0.0,0.0,0.0,0.0,0.0,0.0,0.0,0.0,0.0,0.0,0.0,0.0,0.0,0.0,0.0,0.0,0.0,0.0,0.0,0.0,0.0,0.0,-2.1679,-2.2579,-2.3133,-2.2859,-2.4858,-2.5786,-2.4602,-2.818,-2.9456,-2.6935,-2.814,0.0,0.0,0.0,0.0,0.0,0.0,0.0,0.0,0.0,0.0,0.0,0.0,0.0,0.0,0.0,0.0,0.0,0.0,0.0,0.0,0.0,0.0,0.0,0.0,0.0,0.0,0.0,0.0,0.0,0.0,0.0,0.0,0.0,0.0,0.0,0.0,0.0,0.0,0.0,0.0,0.0,0.0,0.0,0.0,0.0,0.0,0.0,0.0,0.0,0.0,0.0,0.0,0.0,0.0,0.0,0.0,0.0,0.0,0.0,0.0,-1.9394,0.0,0.0,0.0,0.0,0.0,0.0,0.0,0.0,0.0,0.0,0.0,0.0,0.0,0.0,0.0,0.0,0.0,0.0,0.0,0.0,0.0,0.0,0.0,0.0,0.0,0.0,0.0,0.0,0.0,0.0,0.0,0.0,0.0,0.0,0.0,0.0,0.0,0.0,0.0,0.0,-2.1764,-2.2539,-2.3133,-2.2859,-2.4196,-2.4993,-2.5008,-2.7652,-2.8963,-2.8202,-2.899,0.0,0.0,0.0,0.0,0.0,0.0,0.0,0.0,0.0,0.0,0.0,0.0,0.0,0.0,0.0,0.0,0.0,0.0,0.0,0.0,0.0,0.0,0.0,0.0,0.0,0.0,0.0,0.0,0.0,0.0,0.0,0.0,0.0,0.0,0.0,0.0,0.0,0.0,0.0,0.0,0.0,0.0,0.0,0.0,0.0,0.0,0.0,0.0,0.0,0.0,0.0,0.0,0.0,-1.9369,-1.9412,-1.9425,-1.9192,-1.9481,-2.0332,-2.0093,-2.0294,-2.0561,0.0,0.0,0.0,0.0,0.0,0.0,0.0,0.0,0.0,0.0,0.0,0.0,0.0,0.0,0.0,0.0,0.0,0.0,0.0,0.0,0.0,0.0,0.0,0.0,0.0,-2.179,-2.2413,0.0,0.0,0.0,0.0,0.0,0.0,0.0,0.0,0.0,0.0,0.0,0.0,-2.2205,-2.2686,-2.302,-2.302,-2.3295,-2.3832,-2.4639,-2.6445,-2.8014,-2.8973,-2.963,-2.9976,0.0,0.0,0.0,0.0,0.0,0.0,0.0,0.0,0.0,0.0,0.0,0.0,0.0,0.0,0.0,0.0,0.0,0.0,0.0,0.0,0.0,0.0,0.0,0.0,0.0,0.0,0.0,0.0,0.0,0.0,0.0,0.0,-2.3739,-2.3739,0.0,0.0,0.0,0.0,0.0,0.0,0.0,0.0,0.0,0.0,0.0,0.0,0.0,-2.126,-2.1541,-2.1406,-2.0699,-1.9636,-2.1064,-2.1034,-1.9941,-1.9903,-2.0309,-2.0863,-2.0824,0.0,-2.0281,-2.0079,0.0,0.0,0.0,0.0,0.0,0.0,0.0,0.0,0.0,0.0,0.0,0.0,0.0,0.0,0.0,0.0,0.0,0.0,0.0,0.0,0.0,0.0,-2.2686,-2.2632,-2.2686,-2.2862,0.0,-2.2558,-2.2479,-2.2442,-2.2558,0.0,0.0,0.0,0.0,0.0,0.0,0.0,-2.3086,-2.3447,-2.3647,-2.3647,-2.475,-2.5017,-2.4072,-2.7227,-2.8943,-2.7884,-2.9874,-3.0938,-3.023,-3.0176,0.0,0.0,0.0,0.0,0.0,0.0,0.0,0.0,0.0,0.0,0.0,0.0,0.0,0.0,0.0,0.0,0.0,0.0,0.0,0.0,0.0,0.0,0.0,0.0,0.0,0.0,0.0,0.0,0.0,-2.2432,-2.2876,-2.3279,-2.2863,-2.2131,0.0,0.0,0.0,0.0,0.0,0.0,0.0,0.0,0.0,-2.2706,-2.1279,-2.0604,-2.1067,-2.1118,-2.0524,-1.9646,-2.0424,-2.0694,-2.0316,-2.0316,-2.051,-2.1005,-2.1136,-2.1058,-2.0821,-2.0524,-2.0129,-1.975,0.0,0.0,0.0,0.0,-1.9638,-2.0093,-2.0786,-2.1344,0.0,0.0,0.0,0.0,0.0,0.0,0.0,0.0,0.0,0.0,0.0,0.0,0.0,-2.3046,-2.3126,-2.3166,-2.334,-2.3485,-2.3351,0.0,-2.2727,-2.2526,-2.2258,0.0,0.0,0.0,0.0,-2.302,-2.33,-2.3581,-2.3768,-2.3768,-2.4323,-2.5144,-2.6114,-2.7905,-2.9327,-3.029,-3.1486,-3.1891,-3.1229,-3.0882,-3.0229,0.0,0.0,0.0,0.0,0.0,0.0,0.0,0.0,0.0,0.0,0.0,0.0,0.0,0.0,0.0,0.0,0.0,0.0,0.0,0.0,0.0,0.0,0.0,0.0,0.0,0.0,0.0,0.0,-2.2782,-2.3213,-2.3326,-2.3568,-2.326,0.0,0.0,0.0,0.0,0.0,0.0,-2.429,-2.2898,-2.2333,-2.273,-2.1396,-2.0618,-2.0798,-2.0773,-2.0366,-1.9579,-1.9784,-2.0014,-2.0281,-2.0281,-2.0585,-2.1035,-2.1301,-2.1606,-2.1779,-2.1149,-2.0602,-2.0055,-1.9326,-1.8994,-1.8877,-1.9078,-1.9751,-2.0618,-2.1369,-2.1805,-2.2191,-2.1713,0.0,-2.0894,-2.063,0.0,0.0,0.0,0.0,-2.1456,-2.2023,-2.2427,-2.2873,-2.3327,-2.338,-2.338,-2.3607,-2.3701,-2.3634,0.0,-2.3086,-2.2913,-2.2686,0.0,0.0,0.0,0.0,-2.35,-2.3647,-2.3848,-2.3995,-2.3995,-2.3995,-2.4828,-2.7055,-2.7958,-2.928,-3.1502,-3.224,-3.2459,-3.2166,-3.1593,-3.1081,-3.0465,0.0,0.0,0.0,0.0,0.0,0.0,0.0,0.0,0.0,0.0,0.0,0.0,0.0,0.0,0.0,0.0,0.0,0.0,0.0,0.0,0.0,0.0,0.0,0.0,0.0,0.0,0.0,0.0,0.0,-2.5194,-2.6048,0.0,0.0,0.0,0.0,-2.5542,-2.5025,-2.5066,-2.5967,-2.5091,-2.4469,-2.4342,-2.332,-2.2291,-2.1411,-2.0377,-1.9869,-1.9869,-1.9881,-1.9893,-1.9881,-1.9881,-2.0416,-2.1327,-2.1327,-2.1888,-2.2779,-2.2205,-2.075,-1.8741,-1.873,-1.8329,-1.7948,-1.8868,-2.0047,-2.1462,-2.244,-2.2819,-2.2629,-2.0848,-1.8688,-1.6838,-1.7395,-1.6817,0.0,0.0,-1.8324,-1.9947,-2.0919,-2.2473,-2.3714,-2.3741,-2.3527,-2.3327,-2.334,-2.2913,-2.2832,0.0,-2.4342,-2.4262,-2.342,0.0,-2.3621,-2.3327,-2.3554,-2.3941,-2.4502,-2.4583,-2.4596,-2.4596,-2.4596,-2.4596,-2.473,-2.7161,-2.8678,-2.8803,-3.1147,-3.2588,-3.257,-3.2551,-3.2034,-3.0861,-3.0825,0.0,0.0,0.0,0.0,0.0,0.0,0.0,0.0,0.0,0.0,0.0,0.0,0.0,0.0,0.0,0.0,0.0,0.0,0.0,0.0,0.0,0.0,0.0,0.0,0.0,0.0,0.0,0.0,-2.5997,-2.6747,0.0,-2.5927,-2.673,-2.7297,-2.7297,-2.7904,-2.8044,-2.7462,-2.5802,-2.4449,-2.3536,-2.1846,-2.08,-2.0402,-2.0184,-2.0134,-2.0146,-2.0315,-2.0388,-2.0388,-2.0388,-2.0573,-2.0934,-2.1208,-2.1533,-2.1747,-2.1816,-2.1726,-2.1442,-2.1442,-2.1306,-2.1046,-2.1419,-2.1881,-2.2453,-2.2819,-2.2859,-2.2846,-2.218,-2.1382,-2.0649,-2.0845,-2.0634,-2.0364,-2.0598,-2.1246,-2.1772,-2.2151,-2.2684,-2.3233,-2.3434,-2.3407,-2.338,-2.3567,-2.3447,-2.342,-2.3848,-2.3688,-2.346,-2.334,-2.3728,-2.3955,-2.3661,-2.4022,-2.4396,-2.4609,-2.4636,-2.4636,-2.4636,-2.5506,-2.6502,-2.749,-2.9392,-3.0882,-3.1879,-3.2881,-3.3266,-3.301,-3.2991,-3.2735,-3.2052,-3.2034,-3.1634,0.0,0.0,0.0,0.0,0.0,0.0,0.0,0.0,0.0,0.0,0.0,0.0,0.0,0.0,0.0,0.0,0.0,0.0,0.0,0.0,0.0,0.0,0.0,0.0,0.0,0.0,-2.7204,-2.6382,-2.7626,-2.8096,-2.7,-2.8062,-2.8977,-2.9101,-2.96,-2.969,-2.8945,-2.6713,-2.5005,-2.3719,-2.1737,-2.0552,-2.0146,-2.0327,-2.0412,-2.0412,-2.0593,-2.0665,-2.0665,-2.0665,-2.0804,-2.0943,-2.1081,-2.1207,-2.1346,-2.1195,-2.1609,-2.2448,-2.1897,-2.1885,-2.216,-2.2022,-2.231,-2.2859,-2.2859,-2.2585,-2.216,-2.216,-2.1747,-2.1321,-2.1321,-2.1321,-2.1321,-2.1321,-2.181,-2.2302,-2.2302,-2.2809,-2.322,-2.3434,-2.3407,-2.338,-2.3581,-2.3541,-2.346,-2.346,-2.33,-2.3207,-2.3313,-2.3728,-2.3955,-2.3661,-2.4115,-2.4489,-2.4489,-2.5011,-2.5359,-2.5359,-2.6794,-2.8068,-2.9059,-3.0385,-3.1651,-3.2945,-3.3255,-3.3422,-3.3431,-3.3148,-3.2892,-3.2472,-3.2972,-3.2767,-3.1686,0.0,0.0,0.0,0.0,0.0,0.0,0.0,0.0,0.0,0.0,0.0,0.0,0.0,0.0,0.0,0.0,0.0,0.0,0.0,0.0,0.0,0.0,0.0,-2.615,-2.754,-2.8237,-2.6671,-2.8624,-2.9686,-2.843,-2.9491,-3.0387,-3.0772,-3.0157,-2.9935,-3.0325,-2.7949,-2.6069,-2.4979,-2.3243,-2.176,-2.0665,-2.0665,-2.0665,-2.0665,-2.0665,-2.0665,-2.0665,-2.0665,-2.0943,-2.1207,-2.1207,-2.1346,-2.1622,-2.0213,-2.0352,-2.1622,-2.0086,-1.9947,-2.0629,-2.0225,-2.1333,-2.2859,-2.2859,-2.1885,-2.0629,-2.0629,-1.9646,-1.8519,-1.8519,-1.8519,-1.8519,-1.8519,-1.9818,-2.1157,-2.1157,-2.2512,-2.3741,-2.3741,-2.3527,-2.3313,-2.3313,-2.3073,-2.2859,-2.2873,-2.3354,-2.3661,-2.3367,-2.3567,-2.3674,-2.338,-2.3848,0.0,-2.4222,-2.5749,-2.6939,-2.6925,-2.8341,-2.9186,-2.9186,-3.0029,-3.0835,-3.1491,-3.2311,-3.2983,-3.3798,-3.3157,-3.2485,-3.2124,-3.3758,-3.4556,-3.4576,0.0,0.0,0.0,0.0,0.0,0.0,0.0,0.0,0.0,0.0,0.0,0.0,0.0,0.0,0.0,0.0,0.0,0.0,0.0,0.0,0.0,0.0,-2.8676,-2.8465,-2.9364,-3.0062,-3.0013,-3.041,-3.0573,-3.0483,-3.0847,-3.1102,-3.1212,-3.1084,-3.0753,-3.0343,-2.7652,-2.5771,-2.4979,-2.2421,-2.0943,-2.0665,-2.0665,-2.0665,-2.0665,-2.0665,-2.0665,-2.0665,-2.0665,-2.0804,-2.0804,-2.0804,-2.0943,-2.0943,-2.0515,-2.0792,-2.1207,-2.0352,-2.0768,-2.1885,-2.1747,-2.2035,-2.2448,-2.2448,-2.2448,-2.2297,-2.2297,-2.2022,-2.1596,-2.1596,-2.1596,-2.1596,-2.1596,-2.2074,-2.2428,-2.2428,-2.277,-2.3113,-2.3113,-2.3046,-2.2993,-2.2993,-2.2926,-2.2926,-2.3153,-2.3327,-2.3354,-2.3046,-2.342,-2.3741,-2.3661,-2.4142,0.0,-2.5951,-2.6605,-2.7141,-2.7763,-2.9135,-3.0103,-3.0103,-3.1288,-3.2396,-3.3067,-3.343,-3.355,-3.3798,-3.3568,-3.3459,-3.3349,-3.3174,-3.3726,0.0,0.0,0.0,0.0,0.0,0.0,0.0,0.0,0.0,0.0,0.0,0.0,0.0,0.0,0.0,0.0,0.0,0.0,0.0,0.0,0.0,0.0,-2.8993,-3.0031,-3.0429,-3.0806,-3.1117,-3.1322,-3.1176,-3.1121,-3.1359,-3.1377,-3.1377,-3.1377,-3.1377,-3.1322,-3.0983,-2.7862,-2.6043,-2.5769,-2.2649,-2.1003,-2.1003,-2.1003,-2.1003,-2.1003,-2.1003,-2.1003,-2.1003,-2.1003,-2.1003,0.0,-2.0883,-2.0834,-2.0822,-2.0005,-2.0237,0.0,0.0,0.0,0.0,0.0,-2.2035,-2.2173,-2.231,-2.2448,-2.2722,-2.2859,-2.2859,-2.2859,-2.2859,-2.2859,-2.2859,-2.2859,-2.2859,-2.2859,-2.2859,-2.2859,-2.2859,-2.2859,-2.2859,-2.2859,-2.2859,-2.2859,-2.2913,-2.31,-2.3233,0.0,-2.3086,-2.3447,-2.3768,-2.3768,-2.4155,-2.4742,-2.5604,-2.6997,-2.8007,-2.8522,-3.0483,-3.1757,-3.1757,-3.2325,0.0,0.0,0.0,-3.3284,-3.3284,-3.3284,0.0,0.0,0.0,-3.4127,-3.5898,0.0,0.0,0.0,-3.7046,-3.6868,0.0,0.0,0.0,0.0,0.0,0.0,0.0,0.0,0.0,0.0,0.0,0.0,0.0,0.0,0.0,0.0,-3.0683,-3.1506,-3.1782,-3.1635,-3.1377,-3.1377,-3.1377,-3.1396,-3.1451,-3.1451,-3.1469,-3.1506,-3.1524,-3.1671,-3.1774,0.0,0.0,0.0,0.0,-2.1474,-2.1474,-2.1474,-2.1474,-2.1474,-2.1474,-2.1474,-2.1474,-2.1474,-2.1474,-2.1462,-2.1209,-2.1112,-2.1088,-1.9431,-1.9621,-2.075,-2.0828,-2.122,-2.176,-2.176,-2.176,-2.176,-2.2035,0.0,0.0,-2.2722,-2.2722,-2.2722,-2.2722,-2.2859,-2.2859,-2.2859,-2.2859,-2.2859,-2.2859,-2.2859,-2.2859,-2.2859,-2.2859,-2.2859,-2.2859,-2.2859,-2.2873,-2.2913,-2.3166,-2.338,-2.342,-2.3647,-2.3821,-2.3821,-2.4062,-2.4394,-2.4671,-2.7311,-2.9329,-2.9583,0.0,0.0,-3.3743,-3.3139,-3.2965,-3.378,-3.3193,-3.2856,-3.2856,-3.2856,-3.2856,-3.2856,-3.3928,-3.5317,-3.7059,-3.7715,-3.8571,-3.958,-3.7234,-3.6708,0.0,0.0,0.0,0.0,0.0,0.0,0.0,0.0,0.0,0.0,0.0,0.0,0.0,0.0,0.0,-2.9028,-3.0374,-3.1377,-3.1506,-3.1377,-3.1377,-3.1377,-3.1377,-3.1506,-3.1854,-3.1891,-3.2019,-3.2331,-3.2368,-3.1835,-3.0681,-2.818,-2.6414,-2.5228,-2.2729,-2.1474,-2.1474,-2.1474,-2.1474,-2.1474,0.0,0.0,-2.1474,-2.1474,-2.1474,-2.1474,-2.1426,-2.1402,-2.139,-2.1055,-2.1031,-2.1281,-2.1114,-2.122,-2.1346,-2.1346,-2.1346,-2.1346,-2.1346,-2.1622,-2.1897,-2.2035,-2.2035,-2.2035,-2.2035,-2.2173,0.0,-2.2448,-2.2585,-2.2859,-2.2859,-2.2859,-2.2859,-2.2859,-2.2859,-2.2859,-2.2859,-2.2859,-2.2939,-2.3193,-2.3474,-2.3754,-2.3995,-2.4075,-2.4115,-2.4115,-2.4369,-2.5409,-2.7977,-2.8741,-2.996,-3.1808,-3.2618,-3.2911,-3.2911,-3.2838,-3.2965,-3.378,-3.3743,-3.355,-3.355,-3.355,-3.355,-3.355,-3.4633,-3.5743,-3.7059,-3.8046,-3.9061,-4.0105,-3.8429,-3.7754,0.0,0.0,0.0,0.0,0.0,0.0,0.0,0.0,0.0,0.0,0.0,-2.7638,0.0,0.0,-2.9653,-3.0103,-3.0847,-3.1377,-3.1377,-3.1561,-3.1689,-3.1689,-3.1689,-3.1854,-3.2258,-3.2294,-3.2386,-3.257,-3.2588,-3.2411,-3.1779,-2.9119,-2.7226,-2.6683,-2.372,-2.2166,-2.2166,-2.2019,-2.1873,-2.1873,-2.1873,-2.1873,-2.1873,-2.1873,-2.1873,-2.186,-2.1728,-2.1679,-2.1667,-2.1535,-2.1474,-2.145,-2.1457,-2.1261,-2.1139,-2.1139,-2.1053,-2.0943,-2.1069,-2.1346,-2.1484,-2.176,-2.176,-2.176,-2.2035,-2.2173,-2.231,-2.2585,-2.2722,-2.2859,-2.2859,-2.2859,-2.2859,-2.2859,-2.2859,-2.2899,-2.306,-2.31,-2.318,-2.3487,-2.3781,-2.4035,-2.4182,-2.4329,-2.4422,-2.4422,-2.5116,-2.6371,-2.7795,-2.9361,-3.0859,-3.1966,-3.2797,-3.323,-3.323,-3.323,-3.3459,-3.3798,-3.3817,-3.3817,-3.3817,-3.3817,-3.3817,-3.3817,-3.4352,-3.5431,-3.7059,-3.7371,-3.8324,-3.9886,-3.8663,-3.8248,0.0,0.0,0.0,0.0,0.0,0.0,0.0,0.0,-2.6191,-2.745,-2.8095,-2.8639,-2.9601,-2.9654,-3.0122,-3.1267,-3.1377,-3.1396,-3.1488,-3.1799,-3.2074,-3.2221,-3.2166,-3.2276,-3.268,-3.2716,-3.2753,-3.2826,-3.2826,-3.2838,-3.2892,-2.9913,-2.8048,-2.8023,-2.473,-2.2856,-2.2707,-2.2408,-2.2259,-2.2259,-2.2259,-2.2259,-2.2259,-2.2259,-2.2259,-2.2247,-2.2042,-2.1945,-2.1933,-2.1716,-2.1631,-2.1631,-2.1631,-2.1462,-2.1209,-2.116,-2.1003,-2.0822,-2.1102,-2.1192,-2.1294,-2.1572,-2.1672,-2.176,-2.2035,-2.2173,-2.2323,-2.2789,-2.2953,-2.2966,-2.302,-2.3046,-2.3046,-2.3046,-2.3046,-2.3113,-2.3354,-2.3407,-2.3487,-2.3728,-2.4008,-2.4209,-2.4209,-2.4449,-2.4636,-2.5065,-2.6078,-2.7085,-2.765,-2.9932,-3.1649,-3.193,-3.3085,-3.3817,-3.3817,-3.3817,-3.3817,-3.3817,-3.3817,-3.3817,-3.3817,-3.3817,-3.3817,-3.3817,-3.4214,-3.5256,-3.6918,-3.6953,-3.7796,-3.9384,-3.851,-3.8313,-2.1982,-2.3232,-2.4843,-2.5771,-2.6194,-2.7243,0.0,0.0,-2.885,-3.0574,-3.0883,-3.1066,-3.1103,-3.1121,-3.1267,-3.1359,-3.1377,-3.1506,-3.1891,-3.1983,-3.2276,-3.301,-3.2753,-3.2698,-3.312,-3.3156,-3.3303,-3.3651,-3.367,-3.3116,-3.1738,-2.9709,-2.7719,-2.6036,-2.4018,-2.2707,-2.2408,-2.2259,-2.2259,-2.2259,-2.2259,-2.2259,-2.2259,-2.2259,-2.2259,-2.2259,-2.2235,-2.2223,-2.2211,-2.2186,-2.2174,-2.2174,-2.2174,-2.2017,-2.1752,-2.1523,-2.1414,-2.139,-2.139,-2.1363,-2.1157,-2.1157,-2.1278,-2.1207,-2.1346,-2.176,-2.2362,-2.2763,-2.2981,-2.334,-2.3594,-2.3674,-2.3674,-2.3674,-2.3674,-2.3674,-2.3714,-2.3728,-2.3728,-2.3768,-2.4008,-2.4209,-2.4209,-2.4449,-2.5065,-2.6517,-2.6794,-2.7939,-3.0643,-3.1226,-3.207,-3.3381,-3.3678,-3.3817,-3.3817,-3.3817,-3.3817,-3.3817,-3.3817,-3.3817,-3.3817,-3.3817,-3.3817,-3.3817,-3.5704,-3.6589,-3.6323,-3.8248,-3.9063,-3.8903,-3.8357,-3.8139,-2.4573,-2.5345,0.0,0.0,-2.8103,-2.8628,-2.9882,-2.9612,-2.9524,-3.1121,-3.1377,-3.1377,-3.1377,-3.1579,-3.1744,0.0,-3.1946,-3.2148,-3.2331,-3.2551,-3.2845,-3.3175,-3.3266,-3.3376,-3.3541,-3.356,-3.3633,-3.3798,-3.3817,-3.3085,-3.1649,-2.9916,-2.8053,-2.605,-2.4166,-2.3005,-2.2707,-2.2408,-2.2259,-2.2259,-2.2259,-2.2259,-2.2259,-2.2259,-2.2259,-2.2259,-2.2259,-2.2259,-2.2259,-2.2259,-2.2259,-2.2259,-2.2259,-2.2198,-2.2066,-2.18,-2.1607,-2.1474,-2.1474,-2.1402,-2.1305,-2.1305,-2.1375,-2.142,-2.1562,-2.1973,-2.2563,-2.2975,-2.3298,-2.3621,-2.3741,-2.3768,-2.3768,-2.3768,-2.3768,-2.3821,-2.3981,-2.4022,-2.4075,-2.4249,-2.4369,-2.4449,-2.4449,-2.4556,-2.5492,-2.7924,-2.8213,-2.8644,-3.0075,-3.1789,-3.3085,-3.3678,-3.3817,-3.3817,-3.3817,-3.3817,-3.3817,-3.3817,-3.3817,-3.3817,-3.3817,-3.3817,-3.3817,-3.3817,-3.4402,-3.5258,-3.6242,-3.6779,-3.7445,-3.8401,-3.7898,-3.768,-2.5587,0.0,0.0,-2.8614,-2.9445,-2.9899,-2.9899,-2.9899,-3.0116,-3.1194,-3.1469,-3.1543,-3.1543,-3.1891,-3.2166,-3.2166,-3.2404,-3.2643,-3.2753,-3.3028,-3.3266,-3.3376,-3.3633,-3.3817,-3.3817,-3.3817,-3.3817,-3.3817,-3.3817,-3.3418,-3.2368,-3.0365,-2.8671,-2.732,-2.485,-2.353,-2.3079,-2.2778,-2.2476,-2.2476,-2.2476,-2.2476,-2.2476,-2.2476,-2.2476,-2.2476,-2.2476,-2.2476,-2.2464,-2.2404,-2.2367,-2.2367,-2.2295,-2.2259,-2.2235,-2.2054,-2.186,-2.1691,-2.1691,-2.1643,-2.1583,-2.1583,-2.1679,-2.1618,-2.1906,-2.2337,-2.2793,-2.3235,-2.372,-2.4048,-2.4209,-2.4249,-2.4249,-2.4249,-2.4195,-2.4195,-2.4396,-2.4382,-2.4382,-2.4596,-2.4636,-2.4811,-2.5322,-2.5335,-2.6367,-2.9054,-2.9937,-3.0287,-3.0376,-3.2368,-3.3817,-3.3817,-3.3817,-3.3817,-3.3817,-3.3817,-3.3817,-3.3817,-3.3817,-3.3817,-3.3817,-3.3817,-3.3762,-3.3651,-3.3632,-3.4432,-3.5882,-3.5625,-3.6269,-3.7898,-3.7549,-3.7374,0.0,0.0,-2.746,-2.8212,-2.9877,-3.1359,-3.1359,-3.1359,-3.1359,-3.1377,-3.1708,-3.1983,-3.1983,-3.2313,-3.257,-3.257,-3.2588,-3.2735,-3.3138,-3.3211,-3.3376,-3.3743,-3.3798,-3.3817,0.0,-3.3817,-3.3817,-3.3817,-3.3817,-3.3982,-3.4367,-3.132,-2.9723,-2.9626,-2.6199,-2.4099,-2.3637,-2.3328,-2.3019,-2.3019,-2.3019,-2.3019,-2.3019,-2.3019,-2.3019,-2.3019,-2.3019,-2.3019,-2.2995,-2.2742,-2.2645,-2.2621,-2.2355,-2.2259,-2.2259,-2.2247,-2.2247,-2.2235,-2.2235,-2.2078,-2.186,-2.186,-2.197,-2.205,-2.205,-2.2624,-2.3314,-2.3862,-2.4314,-2.4743,-2.5317,-2.5464,-2.5464,-2.5464,-2.5251,-2.5037,-2.505,-2.4823,-2.4623,-2.4636,-2.4636,-2.516,-2.7054,-2.7393,-2.8088,-3.0024,-3.1563,-3.278,-3.363,-3.3678,-3.3817,-3.3817,-3.3817,-3.3817,-3.3817,-3.3817,-3.3817,-3.3817,-3.3817,-3.3817,-3.3817,-3.3817,-3.3633,-3.3248,-3.4277,-3.479,-3.4979,-3.608,-3.6848,-3.7396,-3.7396,-3.7374,-2.5977,0.0,-2.8742,-2.8861,-3.0219,-3.112,-3.0195,-3.0929,-3.1799,-3.1799,-3.1516,-3.121,-3.106,-3.1515,-3.1783,-3.1648,-3.2639,-3.345,-3.3596,-3.3615,-3.367,-3.3798,-3.3817,0.0,0.0,0.0,0.0,-3.4183,-3.4202,-3.3943,-3.3318,-3.2304,-3.0582,-2.8312,-2.6985,-2.5478,-2.3661,-2.3507,-2.3353,-2.3043,-2.3043,-2.3043,-2.3043,-2.3043,-2.3043,-2.3043,-2.3043,-2.3043,-2.3031,-2.2947,-2.3019,-2.3176,-2.3092,-2.3164,-2.3297,-2.3116,-2.2935,-2.273,-2.238,-2.2198,-2.2126,-2.2126,-2.2214,-2.2288,-2.2583,-2.2877,-2.3503,-2.3831,-2.4473,-2.497,-2.517,-2.5224,-2.5277,-2.5464,-2.5291,-2.513,-2.5331,-2.5291,-2.5211,-2.5211,-2.5211,-2.5691,-2.7565,-2.7879,-2.8805,-3.1579,-3.2346,-3.3151,-3.4357,-3.4623,-3.4623,-3.4623,-3.4623,-3.4623,-3.4623,-3.4623,-3.4623,-3.4623,-3.4623,-3.4385,-3.3835,-3.3817,-3.3761,-3.3727,-3.3841,-3.4595,-3.5954,-3.6143,-3.6529,-3.7374,-3.7374,-3.7374,-2.7477,-2.8656,-2.9445,-2.996,-3.0822,-3.1338,-3.0407,-3.1253,-3.2221,-3.2221,-3.1673,-3.1141,-3.0723,-3.1325,-3.159,-3.0754,-3.1996,-3.308,-3.3224,-3.3116,-3.3273,-3.3982,-3.4018,-3.4183,0.0,0.0,0.0,-3.4605,-3.4623,-3.4073,-3.2973,-3.2255,-3.0804,-2.8075,-2.7018,-2.5798,-2.4271,-2.3959,-2.3646,-2.3333,-2.3333,-2.3333,-2.3333,-2.3333,-2.3333,-2.3333,-2.3333,-2.3381,-2.3466,-2.3369,-2.349,-2.3719,-2.3635,-2.3695,-2.3828,-2.3659,-2.3478,-2.3237,-2.2621,-2.2343,-2.2259,-2.2259,-2.2259,-2.2408,-2.2707,-2.3154,-2.3464,-2.4013,-2.471,-2.5264,-2.5371,-2.5464,-2.5598,-2.5785,-2.5598,-2.5451,-2.5638,-2.5585,-2.5518,-2.5518,-2.5518,-2.6295,-2.8641,-3.0103,-3.1679,-3.3639,-3.3933,-3.4138,-3.492,-3.5027,-3.5027,-3.5027,-3.5027,-3.5027,-3.5027,-3.5027,-3.5027,-3.5027,-3.5027,-3.4807,-3.4275,-3.411,-3.424,-3.4623,-3.4046,-3.4715,-3.6582,-3.61,-3.638,-3.7374,-3.7374,-3.7374,-2.8614,-2.9392,-2.9771,-3.0918,-3.1596,-3.1906,-3.1774,-3.2065,-3.2338,-3.2472,-3.1917,-3.1226,0.0,0.0,-3.1668,-3.011,-3.0977,-3.1826,-3.2193,-3.1948,-3.2418,0.0,0.0,0.0,0.0,0.0,0.0,-3.5082,0.0,-3.4486,-3.3369,-3.1726,-3.0358,-2.8997,-2.6531,-2.5289,-2.513,-2.4172,-2.384,-2.384,-2.384,-2.384,-2.384,-2.384,-2.384,-2.384,-2.384,-2.3985,-2.419,-2.3961,-2.4021,-2.4226,-2.3997,-2.3913,-2.3925,-2.3913,-2.39,-2.378,-2.2995,-2.2549,-2.2319,-2.2319,-2.2307,-2.2457,-2.2744,-2.3191,-2.354,-2.4259,-2.5001,-2.5598,-2.5879,-2.6159,-2.6373,-2.6386,-2.6172,-2.5959,-2.5972,-2.5758,-2.5558,-2.5558,-2.5711,-2.685,-3.0307,-3.3828,-3.6201,-3.6201,-3.6201,-3.5925,-3.5192,-3.5082,-3.5082,-3.5082,-3.5082,-3.5082,-3.5082,-3.5082,-3.5082,-3.5082,-3.5082,-3.5082,-3.5027,-3.4642,-3.478,-3.5412,-3.4604,-3.5032,-3.6771,-3.6286,-3.6545,-3.7418,-3.7396,-3.7374,-2.9084,-3.0312,-3.0924,-2.8993,-2.9698,-3.0511,-2.9427,-2.9143,-2.9738,-3.1414,-2.9986,-2.826,0.0,0.0,0.0,-2.9589,-3.1582,0.0,-3.3381,-3.3544,0.0,0.0,0.0,-3.5027,-3.543,-3.5467,0.0,0.0,-3.5632,-3.5486,-3.5425,-3.3914,-3.2287,-3.0685,-2.853,-2.6675,-2.513,-2.4172,-2.384,-2.384,-2.384,-2.384,-2.384,-2.384,-2.384,-2.384,-2.384,-2.3888,-2.3949,-2.4082,-2.4287,-2.454,-2.4685,-2.4854,-2.5011,-2.4818,-2.4613,-2.4371,-2.3973,-2.3526,-2.3152,-2.3152,-2.3007,-2.2992,-2.3298,-2.3451,-2.3616,-2.4138,-2.4829,-2.5386,-2.5465,-2.5856,-2.6119,-2.6333,-2.6172,-2.6012,-2.6226,-2.6213,-2.6172,-2.6172,-2.8144,-3.0145,-3.1004,-3.4001,-3.6201,-3.6201,-3.6201,-3.6127,-3.5925,-3.5907,-3.5907,-3.5907,-3.5907,-3.5907,-3.5907,-3.5907,-3.5907,-3.5907,-3.5907,-3.565,-3.5064,-3.4917,-3.536,-3.6519,-3.5964,-3.6807,-3.8784,-3.7941,-3.7675,-3.792,-3.7549,-3.7374,-3.0401,-3.1389,-3.186,-3.0221,-3.0632,-3.1147,-2.9747,-2.9567,-2.9715,-3.048,-2.9165,0.0,0.0,0.0,0.0,0.0,0.0,0.0,-3.33,-3.339,-3.3765,0.0,-3.5155,0.0,-3.5834,-3.587,-3.5962,0.0,-3.5999,-3.5667,-3.5121,-3.36,-3.1912,-3.0238,-2.8061,-2.6043,-2.4492,-2.4,-2.384,-2.384,-2.384,-2.384,-2.384,-2.384,-2.384,-2.384,0.0,-2.3913,-2.4033,-2.4299,-2.4564,-2.4842,-2.5108,-2.5313,-2.5421,-2.5277,-2.512,-2.4963,-2.4818,-2.4492,-2.4094,-2.3744,-2.3526,-2.3551,-2.3864,-2.3934,-2.3835,-2.4301,-2.4726,-2.4997,-2.5322,-2.557,-2.6029,-2.6346,-2.6266,-2.6186,-2.636,-2.6386,-2.6544,-2.7319,-3.0083,-3.2369,-3.2369,-3.4521,-3.6201,-3.6201,-3.6201,-3.6201,-3.6201,-3.6201,-3.6201,-3.6201,-3.6201,-3.6201,-3.6201,-3.6201,-3.6201,-3.6201,-3.6201,-3.6312,-3.6286,-3.6099,-3.69,-3.861,-3.7954,-3.8471,-3.9864,-3.91,-3.8641,-3.8423,-3.792,-3.7702,-3.1738,-3.2331,-3.268,-3.2393,-3.2702,-3.2629,-3.1129,-3.0875,-3.0564,-2.9456,0.0,-2.8063,-2.7601,-2.9167,-3.0143,-2.8742,0.0,-3.2001,-3.2861,-3.2702,-3.3358,-3.534,-3.5669,-3.5834,-3.6182,-3.6201,-3.6201,-3.6201,-3.6052,-3.5438,-3.4221,-3.2369,-3.0377,-2.8544,-2.6215,-2.4652,-2.384,-2.384,-2.384,-2.384,-2.384,-2.384,-2.384,-2.384,-2.384,-2.384,-2.384,0.0,-2.4202,-2.4504,-2.477,-2.5023,-2.5325,-2.5433,-2.5433,-2.5433,-2.5433,-2.5433,-2.5433,-2.5289,-2.4975,-2.4238,-2.3973,-2.3949,-2.427,-2.4271,-2.4086,-2.456,-2.4705,-2.502,-2.5335,-2.5674,-2.6016,-2.6453,-2.6453,-2.644,-2.6702,-2.6847,-2.7462,-2.9012,-3.1759,-3.3768,-3.3768,-3.5139,-3.6201,-3.6201,-3.6201,-3.6201,-3.6201,-3.6201,-3.6201,-3.6201,-3.6201,-3.6201,-3.6201,-3.6201,-3.6201,-3.6201,-3.6201,-3.6793,-3.797,-3.7624,-3.8541,-4.0717,-3.9878,-3.9742,-4.0367,-3.9821,-3.934,-3.8925,-3.8444,-3.8204,-3.2001,-3.2551,-3.2829,-3.1563,-3.1566,-3.146,-2.9954,-2.8365,0.0,0.0,-2.6632,-2.5635,-2.622,-2.7633,-2.8882,-2.9428,0.0,0.0,0.0,0.0,-3.4721,0.0,0.0,0.0,0.0,0.0,0.0,0.0,0.0,-3.4672,-3.5754,-3.2977,-2.9759,-2.6373,-2.5594,-2.4811,-2.4332,-2.4,-2.384,-2.384,-2.384,-2.384,-2.384,-2.384,-2.384,-2.384,-2.384,0.0,-2.3949,-2.4432,-2.4661,-2.4745,-2.524,-2.5433,-2.5433,-2.5433,-2.5433,-2.5433,-2.5433,-2.5409,-2.5313,-2.4951,-2.4685,-2.4492,-2.4492,-2.4456,-2.4583,-2.4583,-2.525,-2.574,-2.5903,-2.6431,-2.7054,-2.68,-2.6747,-2.6986,-2.8304,-2.9464,-3.0531,-3.0839,-3.2522,-3.3768,-3.3768,-3.5139,-3.6201,-3.6201,-3.6201,-3.6201,-3.6201,-3.6201,-3.6201,-3.6201,-3.6201,-3.6201,-3.6201,-3.6201,-3.6201,-3.6201,-3.6201,-3.6793,-3.797,-3.7913,-3.8838,-4.0717,-4.0192,-4.0252,-4.0891,-3.9995,-3.9515,-3.9406,-3.8925,-3.8707,-3.2588,-3.3083,-3.3386,-3.2539,-3.2524,-3.2123,-3.0053,0.0,0.0,0.0,-2.6438,-2.6066,-2.6202,-2.7691,0.0,0.0,0.0,0.0,0.0,0.0,0.0,0.0,0.0,0.0,0.0,0.0,0.0,0.0,0.0,-3.4989,-3.4989,-3.1759,-2.8686,-2.5594,-2.543,-2.5025,-2.438,-2.419,-2.4251,-2.4251,-2.4251,-2.4251,-2.4251,-2.4251,-2.4251,-2.4251,-2.4251,0.0,-2.4287,-2.4685,-2.4758,-2.4661,-2.5071,-2.524,-2.524,-2.524,-2.5325,-2.5433,-2.5433,-2.5433,-2.5421,-2.5289,-2.5156,-2.5047,-2.5047,-2.4951,-2.4842,-2.4842,-2.5243,-2.5627,-2.5969,-2.6449,-2.6901,-2.7081,-2.7688,-2.8919,-3.0475,-3.1868,-3.2972,-3.2972,-3.4057,-3.4989,-3.4989,-3.5736,-3.6201,-3.6201,-3.6201,-3.6201,-3.6201,-3.6201,-3.6201,-3.6201,-3.6201,-3.6201,-3.6201,-3.6201,-3.6127,-3.5907,-3.6681,-3.7563,-3.8491,-3.9066,-4.0083,-4.1572,-4.11,-4.0921,-4.1,-4.0541,-4.017,-3.9908,-3.9427,-3.9209,-3.2965,-3.3505,-3.3817,-3.3817,-3.3817,-3.3134,-3.0506,-2.9847,0.0,0.0,-2.655,-2.6914,-2.65,-2.7757,-2.8835,0.0,0.0,0.0,0.0,0.0,0.0,0.0,0.0,0.0,0.0,0.0,0.0,0.0,0.0,0.0,-3.3297,-3.0454,-2.7717,-2.5378,-2.5486,-2.5138,-2.4486,-2.4528,-2.4625,-2.4625,-2.4625,-2.4625,-2.4625,-2.4625,-2.4625,-2.4625,-2.4625,0.0,0.0,-2.4927,-2.4914,-2.4745,-2.5023,-2.5132,-2.5132,-2.5132,-2.5264,-2.5433,-2.5433,-2.5433,-2.5433,-2.5433,-2.5433,-2.5433,-2.5433,-2.5289,-2.5132,-2.5132,-2.531,-2.5637,-2.5981,-2.6465,-2.6935,-2.7689,-2.9234,-3.0931,-3.2681,-3.4037,-3.5086,-3.5086,-3.5771,-3.6439,-3.6347,-3.6347,-3.6311,-3.6219,-3.6201,-3.6201,-3.6201,-3.6201,-3.6201,-3.6201,-3.6201,-3.6201,-3.6201,-3.6201,-3.6072,-3.576,-3.7118,-3.8242,-3.905,-4.0054,-4.1082,-4.2114,-4.1743,-4.1306,-4.0847,-4.0847,-4.0651,-4.0279,-3.9886,-3.9711,-3.2829,-3.3505,-3.3817,-3.3817,-3.3817,-3.3134,-3.0506,0.0,0.0,-2.6498,-2.6281,-2.65,-2.65,-2.6908,-2.7565,0.0,0.0,-2.9937,0.0,0.0,0.0,0.0,0.0,0.0,0.0,0.0,0.0,0.0,0.0,0.0,-3.1606,-2.9748,-2.788,-2.6157,-2.5615,-2.526,-2.526,-2.4778,-2.4625,-2.4625,-2.4625,-2.4625,-2.4625,-2.4625,-2.4625,-2.4625,-2.4625,0.0,0.0,-2.4927,-2.5035,-2.5035,-2.5301,-2.5397,-2.5397,-2.5397,-2.5421,-2.5433,-2.5433,-2.5433,-2.5433,-2.5433,-2.5433,-2.5433,-2.5433,-2.5421,-2.5397,-2.5397,-2.5714,-2.6198,-2.6537,-2.7058,-2.7835,-2.9678,-3.1158,-3.2681,-3.4412,-3.5969,-3.7049,-3.7049,-3.7184,-3.7209,-3.6842,-3.6769,-3.6641,-3.6256,-3.6201,-3.6201,-3.6201,-3.6201,-3.6201,-3.6201,-3.6201,-3.6201,-3.6201,-3.6201,-3.6182,-3.6164,-3.684,-3.7786,-3.8888,-3.9626,-4.0329,-4.1153,-4.1087,-4.0825,-4.0345,-4.0345,-4.0323,-4.0279,-4.0236,-4.0214,-3.312,-3.3688,-3.3817,-3.3817,-3.3062,-3.1999,-3.0299,0.0,-2.8412,-2.6609,-2.6574,-2.6793,-2.6793,-2.6896,-2.7129,0.0,-2.8274,0.0,-3.0372,0.0,0.0,0.0,0.0,0.0,0.0,0.0,0.0,0.0,0.0,0.0,-3.0217,-2.8171,-2.6746,-2.613,-2.5728,-2.5379,-2.5045,-2.5035,-2.5108,-2.5108,-2.5108,-2.5108,-2.5108,-2.5108,-2.5108,-2.5108,-2.5108,0.0,0.0,-2.524,-2.5192,-2.5059,-2.5156,-2.5204,-2.5204,-2.5204,-2.5301,-2.5433,-2.5433,-2.5433,-2.5433,-2.5433,-2.5433,-2.5433,-2.5433,-2.5433,-2.5433,-2.5433,-2.6273,-2.7292,-2.6953,-2.7304,-2.8601,-3.1437,-3.2592,-3.379,-3.6535,-3.7475,-3.7778,-3.7778,-3.7594,-3.7374,-3.7209,-3.7191,-3.7044,-3.6641,-3.6586,-3.6494,-3.6237,-3.6201,-3.6201,-3.6201,-3.6201,-3.6201,-3.6201,-3.6201,-3.6405,-3.6897,-3.7845,-3.8768,-3.9626,-4.0286,-4.0796,-4.1,-4.0716,-4.0476,-4.0279,-4.0279,-4.0279,-4.0279,-4.0279,-4.0279,-3.2606,-3.343,-3.3817,-3.3817,-3.2659,-3.1254,0.0,0.0,-2.7894,-2.6786,-2.6764,-2.6983,-2.6983,-2.6983,-2.6983,-2.6983,-2.7695,-2.8305,-2.8831,-3.0713,0.0,0.0,0.0,0.0,0.0,0.0,0.0,0.0,0.0,0.0,-2.9603,-2.7392,-2.6221,-2.6084,-2.5849,-2.5493,-2.5156,-2.5349,-2.5433,-2.5433,-2.5433,-2.5433,-2.5433,-2.5433,-2.5433,-2.5433,-2.5433,0.0,0.0,-2.5433,-2.5325,-2.5156,-2.5156,-2.5156,-2.5156,-2.5156,-2.5277,-2.5433,-2.5433,-2.5433,-2.5433,-2.5433,-2.5433,-2.5433,-2.5433,-2.5433,-2.5433,-2.5433,-2.694,-2.8446,-2.8278,-2.895,-3.0441,-3.3381,-3.4213,-3.5025,-3.7986,-3.8401,-3.8199,-3.8199,-3.7979,-3.7741,-3.7631,-3.7594,-3.7466,-3.7081,-3.7007,-3.6861,-3.6457,-3.6384,-3.6347,-3.6219,-3.6201,-3.6201,-3.6201,-3.6201,-3.6534,-3.7547,-3.8398,-3.9271,-4.0067,-4.0705,-4.0935,-4.0804,-4.0454,-4.0279,-4.0279,-4.0279,-4.0279,-4.0279,-4.0279,-4.0279,-3.1288,-3.2659,-3.3817,-3.3817,-3.2659,-3.1254,0.0,0.0,-2.7894,-2.6786,-2.6764,-2.6983,-2.6983,-2.6983,-2.6983,-2.6983,-2.6998,-2.7524,-2.9143,-2.9336,0.0,0.0,0.0,0.0,0.0,0.0,0.0,0.0,0.0,0.0,-3.0083,-2.7835,-2.6376,-2.6376,-2.5797,-2.5433,-2.5433,-2.5433,-2.5433,-2.5433,-2.5433,-2.5433,-2.5433,-2.5433,-2.5433,-2.5433,0.0,0.0,0.0,-2.5433,-2.5433,-2.5433,-2.5433,-2.5433,-2.5433,-2.5433,-2.5433,-2.5433,-2.5433,-2.5433,-2.5433,-2.5433,-2.5433,-2.5433,-2.5433,-2.5433,-2.5433,-2.5433,-2.7253,-2.9745,-3.0925,-3.2412,-3.3724,-3.5511,-3.5994,-3.6494,-3.8145,-3.864,-3.864,-3.864,-3.864,-3.8493,-3.8089,-3.8016,-3.7869,-3.7484,-3.7411,-3.7283,-3.6879,-3.6824,-3.6677,-3.6256,-3.6201,-3.6201,-3.6201,-3.6201,-3.6645,-3.797,-3.8576,-3.9271,-3.9929,-4.0571,-4.0782,-4.0301,-4.0279,-4.0279,-4.0279,-4.0279,-4.0279,-4.0279,-4.0279,-4.0279,-2.966,-3.0394,-3.0754,-3.0754,-2.9643,-2.8559,-2.8148,-2.72,-2.6305,-2.612,-2.6427,-2.672,-2.6954,-2.6983,-2.6983,-2.6983,-2.6983,-2.7173,-2.77,0.0,0.0,0.0,0.0,0.0,0.0,0.0,0.0,0.0,0.0,0.0,-2.8483,-2.7381,-2.6656,-2.6656,-2.5896,-2.5433,-2.5433,-2.5433,-2.5433,-2.5433,-2.5433,-2.5433,-2.5433,-2.5433,-2.5433,0.0,0.0,0.0,0.0,-2.5433,-2.5433,-2.5433,-2.5433,-2.5433,-2.5433,-2.5433,-2.5433,-2.5433,-2.5433,-2.5433,-2.5433,-2.5433,-2.5433,-2.5604,-2.6431,-2.6103,-2.5933,-2.8251,-2.9926,-3.1256,-3.3085,-3.356,-3.3887,-3.5672,-3.5994,-3.6494,-3.8145,-3.864,-3.864,-3.864,-3.864,-3.8603,-3.8456,-3.8438,-3.831,-3.7888,-3.7833,-3.7686,-3.7283,-3.7007,-3.6787,-3.6659,-3.6384,-3.6201,-3.6201,-3.6941,-3.797,-3.9136,-3.984,-4.0507,-4.1158,-4.1107,-4.0782,-4.0279,-4.0279,-4.0279,-4.0279,-4.0279,-4.0279,-4.0279,-4.0279,-4.0279,-2.8189,-2.893,-2.944,-2.944,-2.8357,0.0,0.0,0.0,-2.5769,-2.5974,-2.6369,-2.6749,-2.6954,-2.6983,-2.6983,-2.6983,-2.6983,-2.7173,-2.773,0.0,0.0,0.0,0.0,0.0,0.0,0.0,0.0,0.0,0.0,0.0,-2.7856,-2.7201,-2.6796,-2.6796,-2.5945,-2.5433,-2.5433,-2.5433,-2.5433,-2.5433,-2.5433,-2.5433,-2.5433,-2.5433,-2.5433,0.0,0.0,0.0,0.0,-2.5433,-2.5433,-2.5433,-2.5433,-2.5433,-2.5433,-2.5433,-2.5775,-2.6103,-2.6103,-2.6443,-2.694,-2.694,-2.694,-2.7109,-2.7941,-2.7604,-2.7435,-2.9592,-3.1256,-3.2741,-3.4734,-3.5204,-3.5689,-3.6654,-3.6992,-3.7312,-3.8322,-3.864,-3.864,-3.864,-3.864,-3.864,-3.864,-3.864,-3.8548,-3.8291,-3.8255,-3.8108,-3.7704,-3.7429,-3.7173,-3.6861,-3.6604,-3.6533,-3.6812,-3.753,-3.8555,-3.957,-4.043,-4.1316,-4.1983,-4.1524,-4.1044,-4.0563,-4.0367,-4.0279,-4.0279,-4.0279,-4.0279,-4.0279,-4.0279,-4.0539,0.0,-2.802,-2.9083,-2.9083,0.0,0.0,0.0,0.0,0.0,0.0,0.0,-2.6969,-2.6983,-2.6983,-2.6983,-2.6983,-2.6983,-2.7524,-2.9143,0.0,0.0,0.0,0.0,0.0,0.0,0.0,0.0,0.0,0.0,0.0,-2.8123,-2.7292,-2.6796,-2.6796,-2.5945,-2.5433,-2.5433,-2.5433,-2.5433,-2.5433,-2.5433,-2.5433,-2.5433,-2.5433,-2.5433,0.0,0.0,0.0,0.0,-2.5433,-2.5433,-2.5433,-2.5433,-2.5433,-2.5433,-2.5433,-2.6273,-2.7435,-2.7435,-2.8278,-2.9453,-2.9453,-2.9621,-2.9621,-2.9453,-2.9621,-2.9621,-2.9788,-3.1918,-3.4538,-3.5884,-3.7348,-3.864,-3.864,-3.864,-3.864,-3.864,-3.864,-3.864,-3.864,-3.864,-3.864,-3.864,-3.864,-3.864,-3.864,-3.864,-3.8511,-3.8108,-3.8034,-3.7723,-3.6952,-3.6861,-3.711,-3.7862,-3.8117,-3.8555,-3.9714,-4.0841,-4.1784,-4.2442,-4.1939,-4.1481,-4.1022,-4.052,-4.0279,-4.0279,-4.0279,-4.0279,-4.0279,-4.0409,-4.1164,-2.5546,0.0,-2.6088,-2.6088,-2.5892,-2.5561,0.0,0.0,0.0,0.0,0.0,0.0,0.0,-2.6983,-2.6983,-2.6983,-2.6983,-2.7524,-2.9143,0.0,0.0,0.0,0.0,0.0,0.0,0.0,0.0,0.0,0.0,-2.7829,-2.8123,-2.7643,-2.7135,-2.6796,-2.6273,-2.5763,-2.5433,-2.5433,-2.5433,-2.5433,-2.5433,-2.5433,-2.5433,-2.5433,-2.5433,0.0,0.0,0.0,-2.5433,-2.5433,-2.5433,-2.5433,-2.5433,-2.5433,-2.5433,-2.5433,-2.6273,-2.7435,-2.7435,-2.8278,-2.9453,-2.9453,-3.0122,-3.0803,-2.9788,-3.0289,-3.1135,-3.1768,-3.374,-3.5884,-3.6867,-3.7845,-3.864,-3.864,-3.864,-3.864,-3.864,-3.864,-3.864,-3.864,-3.864,-3.864,-3.864,-3.864,-3.864,-3.864,-3.864,-3.8603,-3.8511,-3.8218,-3.7833,-3.7338,-3.7026,-3.711,-3.7862,-3.8846,-3.9858,-4.0983,-4.2138,-4.2644,-4.2442,-4.1939,-4.1481,-4.1022,-4.052,-4.0279,-4.0279,-4.0279,-4.0279,-4.0279,-4.1421,-4.2038,-2.5052,-2.5052,-2.5052,-2.5052,-2.5052,-2.5052,-2.5052,0.0,0.0,0.0,0.0,0.0,0.0,0.0,0.0,-2.7129,-2.7961,-2.9195,0.0,0.0,0.0,0.0,0.0,0.0,0.0,0.0,0.0,0.0,0.0,-2.7976,-2.8136,-2.7474,-2.7135,-2.6796,-2.6103,-2.5604,-2.5433,-2.5433,-2.5433,-2.5433,-2.5433,-2.5433,-2.5433,-2.5433,-2.5433,0.0,0.0,0.0,-2.5433,-2.5433,-2.5433,-2.5433,-2.5433,-2.5433,-2.5433,-2.6103,-2.7109,-2.8446,-2.9118,-3.0122,-3.1301,-3.1301,-3.1813,-3.2309,-3.1632,-3.1798,-3.2309,-3.2278,-3.4083,-3.6224,-3.6707,-3.7667,-3.864,-3.864,-3.864,-3.864,-3.864,-3.864,-3.864,-3.864,-3.864,-3.864,-3.864,-3.8475,-3.8346,-3.8346,-3.8199,-3.8089,-3.8089,-3.8034,-3.7869,-3.7466,-3.7685,-3.8291,-3.9014,-3.9959,-4.0698,-4.141,-4.2581,-4.3053,-4.2769,-4.207,-4.1371,-4.0694,-4.041,-4.0279,-4.0279,-4.0279,-4.0279,-4.0279,-4.1655,-4.265,-2.5052,-2.5231,-2.5381,-2.5202,-2.5052,-2.5066,-2.5125,0.0,0.0,0.0,0.0,0.0,0.0,0.0,0.0,0.0,0.0,0.0,0.0,0.0,0.0,0.0,0.0,0.0,0.0,0.0,0.0,0.0,0.0,-2.8473,-2.815,-2.7474,-2.6965,-2.6613,-2.5945,-2.5604,-2.5433,-2.5433,-2.5433,-2.5433,-2.5433,-2.5433,-2.5433,-2.5433,-2.5433,-2.5433,0.0,0.0,-2.5433,-2.5433,-2.5433,-2.5433,-2.5433,-2.5604,-2.5763,-2.694,-2.8446,-2.9955,-3.1301,-3.2489,-3.3492,-3.3492,-3.3492,-3.3492,-3.3492,-3.3492,-3.3312,-3.2144,-3.3772,-3.5901,-3.6063,-3.7188,-3.8481,-3.864,-3.864,-3.864,-3.864,-3.864,-3.864,-3.864,-3.8585,-3.8548,-3.8548,-3.8199,-3.7924,-3.7924,-3.7631,-3.7429,-3.7429,-3.7723,-3.7796,-3.762,-3.8424,-3.944,-4.0378,-4.111,-4.141,-4.1693,-4.2581,-4.3141,-4.3075,-4.218,-4.1284,-4.041,-4.0323,-4.0279,-4.0279,-4.0279,-4.0279,-4.0279,-4.1911,-4.313,-2.5052,-2.5922,-2.6602,-2.5396,-2.5052,-2.5125,-2.5403,0.0,0.0,0.0,0.0,0.0,0.0,0.0,0.0,0.0,0.0,0.0,0.0,0.0,0.0,0.0,0.0,0.0,0.0,0.0,0.0,0.0,0.0,-2.9635,-2.7643,-2.7812,-2.7461,-2.6273,-2.6443,-2.6286,-2.5433,-2.5433,-2.5433,-2.5433,-2.5433,-2.5433,-2.5433,-2.5433,-2.5433,-2.5433,0.0,-2.5433,-2.5433,-2.5433,-2.5433,-2.5433,-2.5433,-2.6103,-2.7109,-2.7266,-2.895,-3.1316,-3.2654,-3.3312,-3.3492,-3.3492,-3.3492,-3.3492,-3.3492,-3.3492,-3.3492,-3.3312,-3.4131,-3.5109,-3.5901,-3.6867,-3.7685,-3.8481,-3.864,-3.864,-3.864,-3.864,-3.864,-3.864,-3.8365,-3.8108,-3.8108,-3.7778,-3.7521,-3.7521,-3.7466,-3.7429,-3.7429,-3.7484,-3.7792,-3.85,-3.8612,-3.9406,-4.1109,-4.1397,-4.1855,-4.2883,-4.3045,-4.2988,-4.2551,-4.1983,-4.1437,-4.0913,-4.0498,-4.0279,-4.0279,-4.0279,-4.0279,-4.0409,-4.2753,-4.3979,-2.5052,-2.5695,-2.6299,-2.6284,-2.6784,-2.75,0.0,0.0,0.0,0.0,0.0,0.0,0.0,0.0,0.0,0.0,0.0,0.0,0.0,0.0,0.0,0.0,0.0,0.0,0.0,0.0,0.0,0.0,0.0,0.0,-2.7643,-2.7292,-2.6783,-2.6103,-2.6116,-2.5775,-2.5433,-2.5433,-2.5433,-2.5433,-2.5433,-2.5775,-2.6443,-2.5775,-2.6273,-2.7617,0.0,-2.6273,-2.7448,-2.5933,-2.6273,-2.7617,-2.677,-2.7279,-2.8615,-2.9286,-3.0803,-3.2654,-3.3312,-3.3492,-3.3492,-3.3492,-3.3492,-3.3492,-3.3492,-3.3492,-3.3492,-3.3492,-3.4131,-3.4946,-3.5901,-3.6707,-3.7685,-3.8481,-3.864,-3.864,-3.864,-3.864,-3.8585,-3.8346,-3.8144,-3.7943,-3.7723,-3.7374,-3.7118,-3.7118,-3.6916,-3.6769,-3.6769,-3.7255,-3.8009,-3.8593,-3.9593,-4.0651,-4.169,-4.2131,-4.2581,-4.3184,-4.3184,-4.2805,-4.2189,-4.1825,-4.1325,-4.0734,-4.0388,-4.0279,-4.0279,-4.0279,-4.0279,-4.0409,-4.2981,-4.4202,-2.5154,-2.554,-2.619,-2.7137,0.0,0.0,0.0,0.0,0.0,0.0,0.0,0.0,0.0,0.0,0.0,0.0,0.0,0.0,0.0,0.0,0.0,0.0,0.0,0.0,0.0,0.0,0.0,0.0,0.0,0.0,-2.7968,-2.6953,-2.6103,-2.5933,-2.5763,-2.5433,-2.5433,-2.5433,-2.5433,-2.5433,-2.5775,-2.6443,-2.7435,-2.6613,-2.7448,-2.9453,-2.7279,-2.7617,-2.9286,-2.7279,-2.7617,-2.9453,-2.8278,-2.8783,-3.0122,-3.1482,-3.2654,-3.3492,-3.3492,-3.3492,-3.3492,-3.3492,-3.3492,-3.3492,-3.3492,-3.3492,-3.3492,-3.3492,-3.3968,-3.4783,-3.5901,-3.6546,-3.7348,-3.8322,-3.864,-3.864,-3.864,-3.864,-3.8548,-3.8218,-3.8016,-3.7778,-3.7484,-3.7007,-3.6696,-3.6696,-3.6421,-3.6201,-3.6201,-3.7222,-3.8063,-3.8735,-4.0277,-4.1668,-4.2264,-4.2797,-4.3023,-4.3023,-4.3023,-4.2731,-4.2064,-4.1754,-4.1234,-4.0597,-4.0432,-4.0279,-4.0279,-4.0279,-4.0409,-4.0777,-4.3107,-4.4326,-2.5418,-2.6556,-2.7632,-2.7616,0.0,0.0,0.0,0.0,0.0,0.0,0.0,0.0,0.0,0.0,0.0,0.0,0.0,0.0,0.0,0.0,0.0,0.0,0.0,0.0,0.0,0.0,0.0,0.0,0.0,0.0,-2.9411,-2.7604,-2.6286,-2.5433,-2.5763,-2.5763,-2.5433,-2.5433,-2.5433,-2.5433,-2.6601,-2.7279,-2.7435,-2.8615,-2.9286,-2.9453,-2.9286,-2.9286,-2.9453,-2.9286,-2.9286,-2.9453,-2.9453,-3.0122,-3.1482,-3.2819,-3.3476,-3.3492,-3.3492,-3.3492,-3.3492,-3.3492,-3.3492,-3.3492,-3.3492,-3.3492,-3.3492,-3.3492,-3.3492,-3.3968,-3.574,-3.6224,-3.6546,-3.8163,-3.864,-3.864,-3.864,-3.864,-3.864,-3.8603,-3.7979,-3.7448,-3.7429,-3.6769,-3.6256,-3.6256,-3.6237,-3.6201,-3.6201,-3.6979,-3.7887,-3.9012,-4.0306,-4.1494,-4.2948,-4.2883,-4.2581,-4.2581,-4.2581,-4.2559,-4.2516,-4.1632,-4.1136,-4.1093,-4.0606,-4.0279,-4.0279,-4.0279,-4.0906,-4.2166,-4.3606,-4.4841,-2.5198,-2.642,0.0,0.0,0.0,0.0,0.0,0.0,0.0,0.0,0.0,0.0,0.0,0.0,0.0,0.0,0.0,0.0,0.0,0.0,0.0,0.0,0.0,0.0,0.0,0.0,0.0,0.0,0.0,0.0,-2.9564,-2.7928,-2.694,-2.6601,-2.5933,-2.5933,-2.6601,-2.6601,-2.6601,-2.6601,-2.7109,-2.8278,-2.9969,-2.9621,-3.0455,-3.1963,-3.0289,-3.0455,-3.1798,-3.0122,-3.0455,-3.1978,-3.1978,-3.2309,-3.2819,-3.3312,-3.3492,-3.3492,-3.3492,-3.3492,-3.3492,-3.3492,-3.3492,-3.3492,-3.3492,-3.3492,-3.3492,-3.3492,-3.3492,-3.3968,-3.5578,-3.6063,-3.6546,-3.8163,-3.864,-3.864,-3.864,-3.864,-3.8566,-3.831,-3.7796,-3.7338,-3.7099,-3.6586,-3.6201,-3.6201,-3.6201,-3.6052,-3.5456,-3.7089,-3.8194,-3.831,-4.0515,-4.2159,-4.2721,-4.2721,-4.2441,-4.23,-4.23,-4.2159,-4.1898,-4.14,-4.1022,-4.0771,-4.0496,-4.0279,-4.0279,-4.1164,-4.1783,-4.2293,-4.4497,-4.5718,-2.5861,-2.6771,-2.7771,0.0,0.0,0.0,0.0,0.0,0.0,0.0,0.0,0.0,0.0,0.0,0.0,0.0,0.0,0.0,0.0,0.0,0.0,0.0,0.0,0.0,0.0,0.0,0.0,0.0,0.0,0.0,0.0,-2.8923,-2.811,-2.811,-2.7109,-2.694,-2.7435,-2.7772,-2.811,-2.811,-2.8446,-2.9635,-3.1482,-3.0969,-3.1798,-3.3312,-3.1632,-3.1798,-3.3312,-3.1467,-3.1798,-3.3492,-3.3492,-3.3492,-3.3492,-3.3492,-3.3492,-3.3492,-3.3492,-3.3492,-3.3492,-3.3492,-3.3492,-3.3492,-3.3492,-3.3492,-3.3492,-3.3492,-3.3492,-3.3968,-3.5578,-3.6063,-3.6546,-3.8163,-3.864,-3.864,-3.864,-3.864,-3.8566,-3.8273,-3.7778,-3.7338,-3.7062,-3.6567,-3.6201,-3.6201,-3.6201,-3.6052,-3.5754,-3.7383,-3.87,-3.9076,-4.1126,-4.2441,-4.2581,-4.2441,-4.23,-4.1877,-4.1735,-4.1594,-4.1473,-4.1124,-4.0886,-4.0635,-4.0363,-4.0539,-4.0906,-4.1783,-4.2776,-4.3529,-4.5354,-4.6484,-2.7554,-2.7663,0.0,0.0,0.0,0.0,0.0,0.0,0.0,0.0,0.0,0.0,0.0,0.0,0.0,0.0,0.0,0.0,0.0,0.0,0.0,0.0,0.0,0.0,0.0,0.0,0.0,0.0,0.0,0.0,0.0,-3.0773,-2.9453,-2.9453,-2.9453,-2.8783,-2.7435,-2.8783,-2.9453,-2.9621,-3.0803,-3.1482,-3.1482,-3.2819,-3.3492,-3.3492,-3.3492,-3.3492,-3.3492,-3.3492,-3.3492,-3.3492,-3.3492,-3.3492,-3.3492,-3.3492,-3.3492,-3.3492,-3.3492,-3.3492,-3.3492,-3.3492,-3.3492,-3.3492,-3.3492,-3.3492,-3.3492,-3.3492,-3.3492,-3.3968,-3.5578,-3.6063,-3.6546,-3.8163,-3.864,-3.864,-3.864,-3.864,-3.864,-3.864,-3.7979,-3.7429,-3.7429,-3.6751,-3.6219,-3.6201,-3.6201,-3.6516,-3.7255,-3.8136,-3.9425,-4.1714,-4.2018,-4.2159,-4.2581,-4.2159,-4.1877,-4.1473,-4.1167,-4.1025,-4.1473,-4.0869,-4.0635,-4.0635,-4.0363,-4.0906,-4.2293,-4.2293,-4.363,-4.6225,-4.6225,-4.7198,-2.5846,0.0,0.0,0.0,0.0,0.0,0.0,0.0,0.0,0.0,0.0,0.0,0.0,0.0,0.0,0.0,0.0,0.0,0.0,0.0,0.0,0.0,0.0,0.0,0.0,0.0,0.0,0.0,0.0,0.0,0.0,-3.1617,-3.0969,-3.0969,-2.9955,-2.9788,-3.0303,-3.0636,-3.0969,-3.0969,-3.2309,-3.2983,-3.2983,-3.3312,-3.3492,-3.3492,-3.3492,-3.3492,-3.3492,-3.3492,-3.3492,-3.3492,-3.3492,-3.3492,-3.3492,-3.3492,-3.3492,-3.3492,-3.3492,-3.3492,-3.3492,-3.3492,-3.3492,-3.3492,-3.3492,-3.3492,-3.3492,-3.3492,-3.3492,-3.3804,-3.4946,-3.5271,-3.5757,-3.8004,-3.864,-3.864,-3.864,-3.864,-3.864,-3.864,-3.8199,-3.7759,-3.7466,-3.6989,-3.6549,-3.6256,-3.5754,-3.5903,-3.7217,-3.8097,-3.9261,-4.1473,-4.1615,-4.1756,-4.1756,-4.1756,-4.1473,-4.1025,-4.1025,-4.1025,-4.1473,-4.0869,-4.0771,-4.0886,-4.1394,-4.1911,-4.2293,-4.4127,-4.5476,-4.6225,-4.7205,-4.8064,-2.7348,0.0,0.0,0.0,0.0,0.0,0.0,0.0,0.0,0.0,0.0,0.0,0.0,0.0,0.0,0.0,0.0,0.0,0.0,0.0,0.0,0.0,0.0,0.0,0.0,0.0,0.0,0.0,0.0,0.0,0.0,-3.2803,-3.2309,-3.2309,-3.1467,-3.1301,-3.1482,-3.1978,-3.1978,-3.1482,-3.2819,-3.3492,-3.3492,-3.3492,-3.3492,-3.3492,-3.3492,-3.3492,-3.3492,-3.3492,-3.3492,-3.3492,-3.3492,-3.3492,-3.3492,-3.3492,-3.3492,-3.3492,-3.3492,-3.3492,-3.3492,-3.3492,-3.3492,-3.3492,-3.3492,-3.3492,-3.3492,-3.3492,-3.3492,-3.364,-3.4621,-3.5109,-3.574,-3.7685,-3.8163,-3.8163,-3.8481,-3.864,-3.864,-3.864,-3.831,-3.7888,-3.7503,-3.7099,-3.6545,-3.5827,-3.5885,-3.6312,-3.7198,-3.8516,-3.9982,-4.1331,-4.1473,-4.1473,-4.1473,-4.1473,-4.1331,-4.0882,-4.0882,-4.1167,-4.1756,-4.0986,-4.0886,-4.1655,-4.2153,-4.2776,-4.3879,-4.5476,-4.6465,-4.7061,-4.8027,-4.8744,0.0,0.0,0.0,0.0,0.0,0.0,0.0,0.0,0.0,0.0,0.0,0.0,0.0,0.0,0.0,0.0,0.0,0.0,0.0,0.0,0.0,0.0,0.0,0.0,0.0,0.0,0.0,0.0,0.0,0.0,0.0,-3.3968,-3.3492,-3.3492,-3.3492,-3.2983,-3.1647,-3.2819,-3.2819,-3.1647,-3.2983,-3.3492,-3.3492,-3.3492,-3.3492,-3.3492,-3.3492,-3.3492,-3.3492,-3.3492,-3.3492,-3.3492,-3.3492,-3.3492,-3.3492,-3.3492,-3.3492,-3.3492,-3.3492,-3.3492,-3.3492,-3.3492,-3.3492,-3.3492,-3.3492,-3.3492,-3.3492,-3.3492,-3.3492,-3.364,-3.4621,-3.5416,-3.6224,-3.7028,-3.7365,-3.7685,-3.8481,-3.864,-3.864,-3.864,-3.8328,-3.7943,-3.7539,-3.7154,-3.6431,-3.5078,-3.6312,-3.7345,-3.7198,-3.9405,-4.1025,-4.1473,-4.1473,-4.1473,-4.1473,-4.1473,-4.1331,-4.0882,-4.1004,-4.1431,-4.2138,-4.1284,-4.1451,-4.2682,-4.2692,-4.3927,-4.6225,-4.6345,-4.7036,-4.8326,-4.8771,-4.9255,0.0,0.0,0.0,0.0,0.0,0.0,0.0,0.0,0.0,0.0,0.0,0.0,0.0,0.0,0.0,0.0,0.0,0.0,0.0,0.0,0.0,0.0,0.0,0.0,0.0,0.0,0.0,0.0,0.0,0.0,-3.4783,-3.3968,-3.3492,-3.3492,-3.3492,-3.3312,-3.3148,-3.3312,-3.3312,0.0,-3.3312,-3.3492,-3.3492,-3.3492,-3.3492,-3.3492,-3.3492,-3.3492,-3.3492,-3.3492,-3.3492,-3.3492,-3.3492,-3.3492,-3.3492,-3.3492,-3.3492,-3.3492,-3.3492,-3.3492,-3.3492,-3.3492,-3.3492,-3.3492,-3.3492,-3.3492,-3.3492,-3.3492,-3.3492,-3.364,-3.4621,-3.4946,-3.5271,-3.6224,-3.7348,-3.8322,-3.8481,-3.864,-3.864,-3.864,-3.8566,-3.8383,-3.7961,-3.7558,-3.6587,-3.4359,-3.5885,-3.7051,-3.6442,-3.8951,-4.0882,-4.1025,-4.1025,-4.1025,-4.1025,-4.1025,-4.1025,-4.0882,-4.1997,-4.2818,-4.3193,-4.2897,-4.2951,-4.3499,-4.5188,-4.614,-4.6225,-4.7205,-4.8142,-4.883,-4.8919,-4.9439,0.0,0.0,0.0,0.0,0.0,0.0,0.0,0.0,0.0,0.0,0.0,0.0,0.0,0.0,0.0,0.0,0.0,0.0,0.0,0.0,0.0,0.0,0.0,0.0,0.0,0.0,0.0,0.0,0.0,-3.574,-3.4783,-3.3968,-3.3492,-3.3492,-3.3492,-3.3492,-3.3492,-3.3492,-3.3492,-3.3492,-3.3492,-3.3492,-3.3492,-3.3492,-3.3492,-3.3492,-3.3492,-3.3492,-3.3492,-3.3492,-3.3492,-3.3492,-3.3492,-3.3492,-3.3492,-3.3492,-3.3492,-3.3492,-3.3492,-3.3492,-3.3492,-3.3492,-3.3492,-3.3492,-3.3492,-3.3492,-3.3492,-3.3492,-3.3492,-3.364,-3.4131,-3.4783,-3.5416,-3.5416,-3.6385,-3.7348,-3.7348,-3.7348,-3.7508,-3.8004,-3.8004,-3.8036,-3.7933,-3.6904,-3.5616,-3.472,-3.5845,-3.6904,-3.7179,-3.9385,-4.0882,-4.0882,-4.0882,-4.0882,-4.0882,-4.0882,-4.0882,-4.0882,-4.2257,-4.3353,-4.3863,-4.5091,-4.5667,-4.5429,-4.6314,-4.6899,-4.7205,-4.8353,-4.898,-4.9087,-4.9824,-5.0342,0.0,0.0,0.0,0.0,0.0,0.0,0.0,0.0,0.0,0.0,0.0,0.0,0.0,0.0,0.0,0.0,0.0,0.0,0.0,0.0,0.0,0.0,0.0,0.0,0.0,0.0,0.0,0.0,0.0,-3.574,-3.5109,-3.4131,-3.3492,-3.3492,-3.3492,-3.3492,-3.3492,-3.3492,-3.3492,-3.3492,-3.3492,-3.3492,-3.3492,-3.3492,-3.3492,-3.3492,-3.3492,-3.3492,-3.3492,-3.3492,-3.3492,-3.3492,-3.3492,-3.3492,-3.3492,-3.3492,-3.3492,-3.3492,-3.3492,-3.3492,-3.3492,-3.3492,-3.3492,-3.3492,-3.3492,-3.3492,-3.3492,-3.3492,-3.3492,-3.3476,-3.364,-3.4767,-3.574,-3.4946,-3.5416,-3.5901,-3.6063,-3.6063,-3.6385,-3.7188,-3.7365,-3.7542,-3.7777,-3.6022,-3.4915,-3.5422,-3.6103,-3.7032,-3.835,-3.9838,-4.0882,-4.0882,-4.0882,-4.0882,-4.0882,-4.0882,-4.1025,-4.1289,-4.2678,-4.3907,-4.4823,-4.7353,-4.8323,-4.7733,-4.7307,-4.751,-4.8172,-4.9167,-4.9467,-4.9118,-5.0616,-5.1204,0.0,0.0,0.0,0.0,0.0,0.0,0.0,0.0,0.0,0.0,0.0,0.0,0.0,0.0,0.0,0.0,0.0,0.0,0.0,0.0,0.0,0.0,0.0,0.0,0.0,0.0,0.0,0.0,-3.7028,-3.6063,-3.5901,-3.4458,-3.3492,-3.3492,-3.3492,-3.3492,-3.3492,-3.3492,-3.3492,-3.3492,-3.3492,-3.3492,-3.3492,-3.3492,-3.3492,-3.3492,-3.3492,-3.3492,-3.3492,-3.3492,-3.3492,-3.3492,-3.3492,-3.3492,-3.3492,-3.3492,-3.3492,-3.3492,-3.3492,-3.3492,-3.3492,-3.3492,-3.3492,-3.3492,-3.3492,-3.3492,-3.3492,-3.3492,-3.3492,-3.364,-3.4458,-3.4783,-3.4946,-3.4783,-3.4946,-3.5109,-3.5901,-3.6063,-3.6385,-3.7188,-3.7365,-3.7241,-3.6991,-3.639,-3.581,-3.561,-3.6998,-3.8205,-3.8496,-3.9838,-4.0882,-4.0882,-4.0882,-4.0882,-4.0882,-4.0882,-4.1431,-4.2678,-4.4161,-4.5773,-4.7749,-4.9127,-4.9824,-4.9533,-4.9186,-4.8739,-4.8172,-4.8539,-4.8953,-4.9643,-5.0268,-5.1216,0.0,0.0,0.0,0.0,0.0,0.0,0.0,0.0,0.0,0.0,0.0,0.0,0.0,0.0,0.0,0.0,0.0,0.0,0.0,0.0,0.0,0.0,0.0,0.0,0.0,0.0,0.0,0.0,-3.6546,-3.574,-3.4767,-3.3968,-3.3492,-3.3492,-3.3492,-3.3492,-3.3492,-3.3492,-3.3492,-3.3492,-3.3492,-3.3492,-3.3492,-3.3492,-3.3492,-3.3492,-3.3492,-3.3492,-3.3492,-3.3492,-3.3492,-3.3492,-3.3492,-3.3492,-3.3492,-3.3492,-3.3492,-3.3492,-3.3492,-3.3492,-3.3492,-3.3492,-3.3492,-3.3492,-3.3492,-3.3492,-3.3492,-3.3492,-3.3492,-3.3656,-3.3968,-3.4458,-3.4621,-3.4131,-3.4458,-3.4783,-3.4604,-3.4604,-3.4929,-3.5757,-3.6707,-3.7295,-3.7099,-3.6727,-3.6803,-3.7763,-3.8399,-3.9082,-3.9714,-4.0433,-4.0882,-4.0882,-4.0882,-4.0882,-4.0882,-4.0882,-4.1573,-4.2958,-4.4436,-4.6177,-4.8273,-4.9668,-5.0201,-4.9923,-4.9412,-4.8901,-4.8478,-4.9169,-4.9602,-4.9962,-5.1011,-5.1862,0.0,0.0,0.0,0.0,0.0,0.0,0.0,0.0,0.0,0.0,0.0,0.0,0.0,0.0,0.0,0.0,0.0,0.0,0.0,0.0,0.0,0.0,0.0,0.0,0.0,0.0,0.0,0.0,-3.6224,-3.5416,-3.3968,-3.364,-3.3492,-3.3492,-3.3492,-3.3492,-3.3492,-3.3492,-3.3492,-3.3492,-3.3492,-3.3492,-3.3492,-3.3492,-3.3492,-3.3492,-3.3492,-3.3492,-3.3492,-3.3492,-3.3492,-3.3492,-3.3492,-3.3492,-3.3492,-3.3492,-3.3492,-3.3492,-3.3492,-3.3492,-3.3492,-3.3492,-3.3492,-3.3492,-3.3492,-3.3492,-3.3492,-3.3492,-3.3492,-3.3492,-3.3804,-3.4131,-3.4294,-3.3968,-3.4131,-3.4294,-3.3656,-3.364,-3.4131,-3.4946,-3.6063,-3.6867,-3.7472,-3.7292,-3.7659,-3.941,-3.9731,-4.0051,-4.0781,-4.0882,-4.0882,-4.0882,-4.0882,-4.0882,-4.0882,-4.0882,-4.1693,-4.3492,-4.4709,-4.6445,-4.8818,-5.0053,-5.0452,-4.9802,-4.9378,-4.8996,-4.8754,-4.9718,-5.0275,-5.0298,-5.1691,-5.2551,0.0,0.0,0.0,0.0,0.0,0.0,0.0,0.0,0.0,0.0,0.0,0.0,0.0,0.0,0.0,0.0,0.0,0.0,0.0,0.0,0.0,0.0,0.0,0.0,0.0,0.0,0.0,0.0,-3.6546,-3.574,-3.4783,-3.3968,-3.3492,-3.3492,-3.3492,-3.3492,-3.3492,-3.3492,-3.3492,-3.3492,-3.3492,-3.3492,-3.3492,-3.3492,-3.3492,-3.3492,-3.3492,-3.3492,-3.3492,-3.3492,-3.3492,-3.3492,-3.3492,-3.3492,-3.3492,-3.3492,-3.3492,-3.3492,-3.3492,-3.3492,-3.3492,-3.3492,-3.3492,-3.3492,-3.3492,-3.3492,-3.3492,-3.3492,-3.3492,-3.364,-3.4458,-3.4131,-3.3804,-3.4621,-3.4131,-3.3476,-3.3492,-3.4131,-3.4946,-3.5901,-3.5416,-3.574,-3.8127,-3.8079,-3.8279,-3.9562,-4.064,-4.14,-4.0944,-4.0882,-4.0882,-4.0882,-4.0882,-4.0882,-4.0882,-4.0882,-4.2116,-4.496,-4.5503,-4.7221,-5.0334,-5.0867,-5.0576,-4.9412,-4.968,-4.9507,-4.8976,-5.0051,-5.0571,-5.054,-5.1906,-5.3051,0.0,0.0,0.0,0.0,0.0,0.0,0.0,0.0,0.0,0.0,0.0,0.0,0.0,0.0,0.0,0.0,0.0,0.0,0.0,0.0,0.0,0.0,0.0,0.0,0.0,0.0,0.0,0.0,0.0,-3.574,-3.4783,-3.3968,-3.3492,-3.3492,-3.3492,-3.3492,-3.3492,-3.3492,-3.3492,-3.3492,-3.3492,-3.3492,-3.3492,-3.3492,-3.3492,-3.3492,-3.3492,-3.3492,-3.3492,-3.3492,-3.3492,-3.3492,-3.3492,-3.3492,-3.3492,-3.3492,-3.3492,-3.3492,-3.3492,-3.3492,-3.3492,-3.3492,-3.3492,-3.3492,-3.3492,-3.3492,-3.3492,-3.3492,-3.3492,-3.3656,-3.3804,-3.3804,-3.364,-3.3804,-3.3656,-3.364,-3.4131,-3.4946,-3.5416,-3.4604,-3.5092,-3.6207,-3.8249,-3.8438,-3.9043,-4.0993,-4.1809,-4.1731,-4.0986,-4.0882,-4.0882,-4.0882,-4.0882,-4.0882,-4.0882,-4.1714,-4.3075,-4.5096,-4.6177,-4.7797,-5.0232,-5.0614,-5.0395,-4.9706,-5.0729,-5.0515,-4.8899,-4.9643,-5.0511,-5.1626,-5.2246,-5.3371,0.0,0.0,0.0,0.0,0.0,0.0,0.0,0.0,0.0,0.0,0.0,0.0,0.0,0.0,0.0,0.0,0.0,0.0,0.0,0.0,0.0,0.0,0.0,0.0,0.0,0.0,0.0,0.0,0.0,0.0,-3.4458,-3.3804,-3.3492,-3.3492,-3.3492,-3.3492,-3.3492,-3.3492,-3.3492,-3.3492,-3.3492,-3.3492,-3.3492,-3.3492,-3.3492,-3.3492,-3.3492,-3.3492,-3.3492,-3.3492,-3.3492,-3.3492,-3.3492,-3.3492,-3.3492,-3.3492,-3.3492,-3.3492,-3.3492,-3.3492,-3.3492,-3.3492,-3.3492,-3.3492,-3.3492,-3.3492,-3.3492,-3.3492,-3.3492,-3.3656,-3.3804,-3.3968,-3.3804,-3.3656,-3.364,-3.3968,-3.4294,-3.4783,-3.5092,-3.4441,-3.5237,-3.6672,-3.8548,-3.9179,-4.0008,-4.1928,-4.2249,-4.1917,-4.0986,-4.0882,-4.0882,-4.0882,-4.0882,-4.1147,-4.1573,-4.2538,-4.3907,-4.5797,-4.7112,-4.8477,-5.0232,-5.0887,-5.0795,-4.9861,-5.1208,-5.1089,-4.9092,-5.0313,-5.1327,-5.2395,-5.3165,-5.4453,0.0,0.0,0.0,0.0,0.0,0.0,-3.2406,0.0,-3.404,0.0,0.0,0.0,0.0,0.0,0.0,0.0,0.0,0.0,0.0,0.0,0.0,0.0,0.0,0.0,0.0,0.0,0.0,0.0,-3.6046,-3.5416,-3.364,-3.3476,-3.3492,-3.3492,-3.3492,-3.3492,-3.3492,-3.3492,-3.3492,-3.3492,-3.3492,-3.3492,-3.3492,-3.3492,-3.3492,-3.3492,-3.3492,-3.3492,-3.3492,-3.3492,-3.3492,-3.3492,-3.3492,-3.3492,-3.3492,-3.3492,-3.3492,-3.3492,-3.3492,-3.3492,-3.3492,-3.3492,-3.3492,-3.3492,-3.3492,-3.3492,-3.3492,-3.3492,-3.3492,-3.364,-3.4458,-3.4783,-3.4621,-3.364,-3.4131,-3.4621,-3.3804,-3.3476,-3.3968,-3.574,-3.6029,-3.6797,-3.9355,-4.0471,-4.1436,-4.2245,-4.2249,-4.1917,-4.0986,-4.0882,-4.0882,-4.0882,-4.0882,-4.1431,-4.2958,-4.3097,-4.4321,-4.7269,-4.8036,-4.9102,-5.0461,-5.1854,-5.1573,-4.9834,-5.1148,-5.1173,-4.9681,-5.2037,-5.2979,-5.2695,-5.4537,-5.6192,-2.4636,0.0,0.0,0.0,0.0,0.0,-2.9333,-3.1906,-3.4295,0.0,0.0,0.0,0.0,0.0,0.0,0.0,0.0,0.0,0.0,0.0,0.0,0.0,0.0,0.0,0.0,0.0,0.0,0.0,-3.6385,-3.5578,-3.4458,-3.3804,-3.3492,-3.3492,-3.3492,-3.3492,-3.3492,-3.3492,-3.3492,-3.3492,-3.3492,-3.3492,-3.3492,-3.3492,-3.3492,-3.3492,-3.3492,-3.3492,-3.3492,-3.3492,-3.3492,-3.3492,-3.3492,-3.3492,-3.3492,-3.3492,-3.3492,-3.3492,-3.3492,-3.3492,-3.3492,-3.3492,-3.3492,-3.3492,-3.3492,-3.3492,-3.3492,-3.3492,-3.3492,-3.3476,-3.3804,-3.3804,-3.3804,-3.3476,-3.4131,-3.4946,-3.5254,-3.4946,-3.4458,-3.4294,-3.5706,-3.7295,-3.8706,-4.0139,-4.1436,-4.2245,-4.2249,-4.1917,-4.0986,-4.0882,-4.0882,-4.0882,-4.0882,-4.1431,-4.2958,-4.4045,-4.5391,-4.7293,-4.8763,-4.9694,-4.9847,-5.1338,-5.1476,-4.9945,-5.1463,-5.1959,-5.1506,-5.2185,-5.2849,-5.3632,-5.5955,-5.7594,0.0,0.0,0.0,0.0,0.0,0.0,-2.9064,-3.1365,-3.35,0.0,-3.6399,-3.7007,-3.6769,-3.6787,-3.6971,-3.7356,-3.7613,-3.7979,-3.8566,0.0,0.0,0.0,0.0,0.0,0.0,-3.864,-3.8163,-3.6867,-3.6385,-3.5578,-3.4294,-3.3804,-3.3492,-3.3492,-3.3492,-3.3492,-3.3492,-3.3492,-3.3492,-3.3492,-3.3492,-3.3492,-3.3492,-3.3492,-3.3492,-3.3492,-3.3492,-3.3492,-3.3492,-3.3492,-3.3492,-3.3492,-3.3492,-3.3492,-3.3492,-3.3492,-3.3492,-3.3492,-3.3492,-3.3492,-3.3492,-3.3492,-3.3492,-3.3492,-3.3492,-3.3492,-3.3492,-3.3492,-3.3492,-3.3492,-3.3492,-3.3492,-3.3492,-3.3492,-3.4458,-3.5578,-3.619,-3.6368,-3.6063,-3.4767,-3.6351,-3.7914,-3.839,-4.0608,-4.2221,-4.2245,-4.2249,-4.1917,-4.0986,-4.0882,-4.0882,-4.0882,-4.0882,-4.1693,-4.3769,-4.4709,-4.6066,-4.824,-4.9565,-5.0359,-5.0355,-5.1697,-5.1916,-5.0847,-5.231,-5.3235,-5.3483,-5.3165,-5.3859,-5.5523,-5.7189,-5.8528,0.0,0.0,0.0,0.0,0.0,0.0,-2.9991,-3.083,-3.1902,-3.6075,-3.694,-3.6705,-3.6669,-3.6533,-3.6424,-3.6823,-3.7049,-3.7477,-3.8456,-3.8603,-3.864,-3.864,-3.864,0.0,-3.864,-3.864,-3.8004,-3.6385,-3.6063,-3.5254,-3.3656,-3.3492,-3.3492,-3.3492,-3.3492,-3.3492,-3.3492,-3.3492,-3.3492,-3.3492,-3.3492,-3.3492,-3.3492,-3.3492,-3.3492,-3.3492,-3.3492,-3.3492,-3.3492,-3.3492,-3.3492,-3.3492,-3.3492,-3.3492,-3.3492,-3.3492,-3.3492,-3.3492,-3.3492,-3.3492,-3.3492,-3.3492,-3.3492,-3.3492,-3.3492,-3.3492,-3.3492,-3.3492,-3.3492,-3.3492,-3.3492,-3.3492,-3.3476,-3.364,-3.4929,-3.6368,-3.6815,-3.7932,-3.8286,-3.685,-3.7773,-3.8864,-3.8864,-4.1384,-4.3304,-4.2393,-4.2249,-4.1917,-4.0986,-4.0882,-4.0882,-4.0882,-4.1025,-4.2257,-4.4983,-4.5368,-4.6603,-4.9461,-5.0155,-5.0758,-5.1414,-5.2431,-5.2602,-5.2041,-5.3495,-5.4648,-5.5361,-5.4621,-5.5442,-5.7735,-5.8317,-5.9145,0.0,0.0,0.0,0.0,0.0,0.0,-2.642,-2.7922,-2.9426,-3.0422,-3.1948,-3.2945,-3.2479,-3.2687,-3.2923,-3.3442,-3.459,-3.6118,-3.786,-3.8438,-3.864,-3.864,-3.864,-3.864,-3.864,-3.864,-3.8163,-3.7188,-3.5918,-3.4621,-3.3476,-3.3492,-3.3492,-3.3492,-3.3492,-3.3492,-3.3492,-3.3492,-3.3492,-3.3492,-3.3492,-3.3492,-3.3492,-3.3492,-3.3492,-3.3492,-3.3492,-3.3492,-3.3492,-3.3492,-3.3492,-3.3492,-3.3492,-3.3492,-3.3492,-3.3492,-3.3492,-3.3492,-3.3492,-3.3492,-3.3492,-3.3492,-3.3492,-3.3492,-3.3492,-3.3492,-3.3492,-3.3492,-3.3492,-3.3492,-3.3492,-3.3492,-3.3656,-3.4458,-3.6029,-3.7596,-3.8109,-3.9198,-3.9826,-3.9216,-3.9845,-4.0627,-4.0627,-4.2196,-4.3304,-4.2393,-4.2249,-4.1917,-4.0986,-4.0882,-4.0882,-4.0882,-4.1997,-4.3353,-4.5119,-4.6335,-4.7821,-4.9847,-4.9698,-5.012,-5.1414,-5.1993,-5.2533,-5.2922,-5.4348,-5.5375,-5.6047,-5.5889,-5.6591,-5.828,-5.9311,-6.0149,0.0,0.0,0.0,-2.4636,0.0,0.0,0.0,-2.7798,-2.9011,-3.0449,-3.1512,-3.2203,-3.2012,-3.1852,-3.1943,-3.2119,-3.3563,-3.4778,-3.4986,-3.6831,-3.8328,-3.8328,-3.8511,-3.864,-3.864,-3.864,-3.8322,-3.7525,-3.5757,-3.4621,-3.4131,-3.3804,-3.3492,-3.3492,-3.3492,-3.3492,-3.3492,-3.3492,-3.3492,-3.3492,-3.3492,-3.3492,-3.3492,-3.3492,-3.3492,-3.3492,-3.3492,-3.3492,-3.3492,-3.3492,-3.3492,-3.3492,-3.3492,-3.3492,-3.3492,-3.3492,-3.3492,-3.3492,-3.3492,-3.3492,-3.3492,-3.3492,-3.3492,-3.3492,-3.3492,-3.3492,-3.3492,-3.3492,-3.3492,-3.3492,-3.3492,-3.3492,-3.364,-3.4621,-3.6351,-3.8213,-3.9198,-4.0608,-4.1713,-4.2022,-4.2196,-4.2042,-4.1268,-4.2503,-4.3304,-4.2393,-4.2249,-4.1917,-4.0986,-4.0882,-4.1147,-4.1855,-4.2678,-4.3907,-4.6066,-4.7136,-4.8224,-4.9571,-5.0271,-5.1028,-5.1692,-5.3048,-5.4171,-5.5039,-5.5197,-5.5843,-5.6887,-5.7426,-5.8287,-5.9245,-5.9797,-6.0725,0.0,0.0,0.0,0.0,0.0,-2.5296,0.0,0.0,0.0,0.0,0.0,0.0,0.0,0.0,0.0,0.0,0.0,0.0,0.0,-3.4484,0.0,-3.6916,-3.7783,-3.8353,-3.8036,-3.8109,-3.7986,-3.7188,-3.574,-3.4946,-3.4783,-3.4131,-3.364,-3.3492,-3.3492,-3.3492,-3.3492,-3.3492,-3.3492,-3.3492,-3.3492,-3.3492,-3.3492,-3.3492,-3.3492,-3.3492,-3.3492,-3.3492,-3.3492,-3.3492,-3.3492,-3.3492,-3.3492,-3.3492,-3.3492,-3.3492,-3.3492,-3.3492,-3.3492,-3.3492,-3.3492,-3.3492,-3.3492,-3.3492,-3.3492,-3.3492,-3.3492,-3.3492,-3.3492,-3.3492,-3.3492,-3.364,-3.3968,-3.4621,-3.6654,-3.8688,-3.9964,-4.1868,-4.3442,-4.3898,-4.3767,-4.3136,-4.1888,-4.2677,-4.3304,-4.2393,-4.2249,-4.1917,-4.0986,-4.1147,-4.1714,-4.2958,-4.3653,-4.4846,-4.7269,-4.7856,-4.865,-4.9618,-5.0933,-5.189,-5.2379,-5.4375,-5.6019,-5.7109,-5.6189,-5.6426,-5.7735,-5.8874,-5.9698,-6.0113,-6.0448,-6.1328,0.0,0.0,0.0,0.0,-2.5411,0.0,0.0,0.0,0.0,-2.7032,0.0,0.0,0.0,0.0,0.0,0.0,0.0,0.0,-2.9849,-3.1417,-3.2706,-3.3013,-3.6079,-3.7445,-3.6149,-3.648,-3.6707,-3.6224,-3.5723,-3.5254,-3.4783,-3.4783,-3.4294,-3.3476,-3.3492,-3.3492,-3.3492,-3.3492,-3.3492,-3.3492,-3.3492,-3.3492,-3.3492,-3.3492,-3.3492,-3.3492,-3.3492,-3.3492,-3.3492,-3.3492,-3.3492,-3.3492,-3.3492,-3.3492,-3.3492,-3.3492,-3.3492,-3.3492,-3.3492,-3.3492,-3.3492,-3.3492,-3.3492,-3.3492,-3.3492,-3.3492,-3.3492,-3.3492,-3.3492,-3.3492,-3.3492,-3.4131,-3.4621,-3.4783,-3.7454,-4.012,-3.9826,-4.2022,-4.405,-4.3767,-4.3615,-4.3615,-4.3289,-4.3462,-4.3304,-4.2393,-4.2249,-4.1917,-4.0986,-4.1997,-4.2958,-4.3097,-4.5391,-4.7136,-4.7821,-4.8575,-4.9768,-5.1629,-5.0644,-5.1249,-5.3942,-5.5232,-5.6341,-5.7333,-5.7342,-5.7628,-5.8351,-5.9443,-6.0051,-6.0113,-6.1697,-6.2508,0.0,0.0,0.0,0.0,0.0,0.0,0.0,0.0,-2.6039,0.0,0.0,0.0,0.0,0.0,0.0,0.0,-2.809,0.0,0.0,0.0,-3.1665,0.0,0.0,0.0,-3.4811,-3.6622,-3.7508,-3.6867,-3.6707,-3.6224,-3.5578,-3.5109,-3.4458,-3.3492,-3.3492,-3.3492,-3.3492,-3.3492,-3.3492,-3.3492,-3.3492,-3.3492,-3.3492,-3.3492,-3.3492,-3.3492,-3.3492,-3.3492,-3.3492,-3.3492,-3.3492,-3.3492,-3.3492,-3.3492,-3.3492,-3.3492,-3.3492,-3.3492,-3.3492,-3.3492,-3.3492,-3.3492,-3.3492,-3.3492,-3.3492,-3.3492,-3.3492,-3.3492,-3.3492,-3.3492,-3.3492,-3.3804,-3.4458,-3.5884,-3.8073,-3.9964,-4.1094,-4.281,-4.405,-4.3615,-4.3615,-4.3532,-4.3263,-4.3201,-4.2994,-4.2352,-4.2042,-4.1607,-4.0965,-4.2116,-4.3375,-4.4161,-4.6201,-4.7676,-4.8575,-4.9819,-5.0638,-5.0998,-5.21,-5.3931,-5.6359,-5.6703,-5.7417,-5.8687,-5.7993,-5.8174,-5.9377,-6.0203,-6.0948,-6.1642,-6.2354,-6.3036,-2.3009,0.0,0.0,0.0,0.0,0.0,0.0,0.0,0.0,0.0,0.0,0.0,0.0,0.0,0.0,0.0,0.0,-2.7776,0.0,-2.8388,0.0,0.0,0.0,0.0,0.0,-3.5811,-3.7011,-3.655,-3.6975,-3.7028,-3.6546,-3.5578,-3.4783,-3.3804,-3.364,-3.3492,-3.3492,-3.3492,-3.3492,-3.3492,-3.3492,-3.3492,-3.3492,-3.3492,-3.3492,-3.3492,-3.3492,-3.3492,-3.3492,-3.3492,-3.3492,-3.3492,-3.3492,-3.3492,-3.3492,-3.3492,-3.3492,-3.3492,-3.3492,-3.3492,-3.3492,-3.3492,-3.3492,-3.3492,-3.3492,-3.3492,-3.3492,-3.3492,-3.3492,-3.3492,-3.3492,-3.3656,-3.4441,-3.6494,-3.8231,-3.9807,-4.1733,-4.3136,-4.3919,-4.3615,-4.3615,-4.347,-4.2994,-4.2911,-4.2725,-4.2145,-4.1772,-4.1544,-4.1494,-4.2796,-4.4161,-4.5661,-4.7136,-4.8411,-4.9292,-5.0673,-5.1358,-5.1175,-5.3844,-5.6225,-5.7993,-5.7817,-5.8248,-5.9665,-5.8626,-5.8772,-6.0113,-6.0867,-6.1752,-6.2695,-6.2988,-6.3498,0.0,0.0,0.0,-2.3632,0.0,0.0,0.0,0.0,-2.5409,0.0,0.0,0.0,0.0,0.0,0.0,0.0,0.0,0.0,0.0,0.0,-2.6544,0.0,0.0,0.0,0.0,-3.2842,-3.3869,-3.4382,-3.584,-3.6867,-3.7365,-3.6546,-3.5578,-3.4783,-3.3968,-3.3492,-3.3492,-3.3492,-3.3492,-3.3492,-3.3492,-3.3492,-3.3492,-3.3492,-3.3492,-3.3492,-3.3492,-3.3492,-3.3492,-3.3492,-3.3492,-3.3492,-3.3492,-3.3492,-3.3492,-3.3492,-3.3492,-3.3492,-3.3492,-3.3492,-3.3492,-3.3492,-3.3492,-3.3492,-3.3492,-3.3492,-3.3492,-3.3492,-3.3492,-3.3492,-3.3492,-3.4131,-3.4946,-3.585,-3.7914,-4.0002,-4.0938,-4.2524,-4.3615,-4.3615,-4.3615,-4.347,-4.2994,-4.2911,-4.2621,-4.1731,-4.1586,-4.1955,-4.2883,-4.4298,-4.5661,-4.7136,-4.8893,-4.9901,-4.9845,-5.0548,-5.1752,-5.3184,-5.533,-5.6991,-5.8085,-5.8215,-5.8734,-5.9665,-5.9387,-5.9547,-6.0113,-6.1322,-6.2129,-6.2745,-6.3674,-6.4169,0.0,0.0,-2.3199,-2.3359,0.0,0.0,0.0,0.0,0.0,0.0,0.0,0.0,0.0,0.0,0.0,0.0,0.0,0.0,0.0,-2.6702,-2.6874,0.0,0.0,0.0,0.0,0.0,-3.4987,-3.4366,-3.664,-3.7827,-3.7365,-3.6546,-3.574,-3.4783,-3.3968,-3.3492,-3.3492,-3.3492,-3.3492,-3.3492,-3.3492,-3.3492,-3.3492,-3.3492,-3.3492,-3.3492,-3.3492,-3.3492,-3.3492,-3.3492,-3.3492,-3.3492,-3.3492,-3.3492,-3.3492,-3.3492,-3.3492,-3.3492,-3.3492,-3.3492,-3.3492,-3.3492,-3.3492,-3.3492,-3.3492,-3.3492,-3.3492,-3.3492,-3.3492,-3.3804,-3.4896,-3.5383,-3.6172,-3.8706,-3.9983,-4.1094,-4.2503,-4.3136,-4.3615,-4.3615,-4.3366,-4.3014,-4.2559,-4.2228,-4.1917,-4.1607,-4.2158,-4.2732,-4.3119,-4.5119,-4.687,-4.7425,-4.9418,-5.0611,-5.0401,-5.1728,-5.3473,-5.5361,-5.6769,-5.8237,-5.9664,-5.9414,-5.9785,-6.0861,-6.0212,-6.0273,-6.1322,-6.204,-6.2855,-6.3718,-6.4254,-6.4557,-2.3156,-2.3318,0.0,-2.3318,-2.3481,0.0,-2.3663,0.0,0.0,0.0,0.0,0.0,0.0,0.0,0.0,-2.607,-2.6386,-2.6386,0.0,-2.6702,0.0,0.0,0.0,0.0,0.0,-3.1874,-3.4017,-3.4467,-3.6412,-3.7683,-3.7827,-3.6707,-3.5901,-3.5271,-3.4131,-3.3492,-3.3492,-3.3492,-3.3492,-3.3492,-3.3492,-3.3492,-3.3492,-3.3492,-3.3492,-3.3492,-3.3492,-3.3492,-3.3492,-3.3492,-3.3492,-3.3492,-3.3492,-3.3492,-3.3492,-3.3492,-3.3492,-3.3492,-3.3492,-3.3492,-3.3492,-3.3492,-3.3492,-3.3492,-3.3492,-3.3492,-3.3508,-3.3635,-3.3587,-3.3984,-3.5696,-3.6097,-3.6797,-4.0296,-4.1113,-4.1578,-4.3289,-4.3615,-4.3615,-4.3615,-4.3242,-4.2787,-4.2331,-4.1876,-4.1648,-4.2057,-4.2753,-4.3448,-4.421,-4.6083,-4.7413,-4.7548,-4.9742,-5.1403,-5.1856,-5.3188,-5.4696,-5.6541,-5.7932,-5.917,-6.0436,-6.0169,-6.0745,-6.2196,-6.1037,-6.114,-6.2656,-6.2691,-6.3224,-6.4209,-6.4519,-6.4769]}]]